<?xml version="1.0" encoding="UTF-8" standalone="no" ?>
<gpx xmlns="http://www.topografix.com/GPX/1/1" xmlns:xsi="http://www.w3.org/2001/XMLSchema-instance" xsi:schemaLocation="http://www.topografix.com/GPX/1/1 http://www.topografix.com/GPX/1/1/gpx.xsd" version="1.1" creator="VisuGPX - https://www.visugpx.com">
  <metadata>
    <name>Reconnaissance 9 Clochers 2014</name>
    <desc><![CDATA[Reconnaissance du nouveau tracé des 9 Clochers, qui évolue en 2014 avec 4 derniers kilomètres complètement différents (90% chemins au lieu de 100% bitume !)]]></desc>
  </metadata>
  <trk>
    <name><![CDATA[Reconnaissance 9 Clochers 2014_1]]></name>
    <trkseg>
      <trkpt lat="45.87541" lon="4.71406">
        <ele>224.18588256836</ele>
        <time>2014-06-07T08:41:49Z</time>
      </trkpt>
      <trkpt lat="45.87551" lon="4.71401">
        <ele>224.30476379394</ele>
        <time>2014-06-07T08:41:53Z</time>
      </trkpt>
      <trkpt lat="45.87555" lon="4.714">
        <ele>224.32574462891</ele>
        <time>2014-06-07T08:41:54Z</time>
      </trkpt>
      <trkpt lat="45.87569" lon="4.71396">
        <ele>224.45823669434</ele>
        <time>2014-06-07T08:41:59Z</time>
      </trkpt>
      <trkpt lat="45.87584" lon="4.71393">
        <ele>224.57841491699</ele>
        <time>2014-06-07T08:42:04Z</time>
      </trkpt>
      <trkpt lat="45.87603" lon="4.71386">
        <ele>224.63899230957</ele>
        <time>2014-06-07T08:42:10Z</time>
      </trkpt>
      <trkpt lat="45.87607" lon="4.71379">
        <ele>224.76695251465</ele>
        <time>2014-06-07T08:42:12Z</time>
      </trkpt>
      <trkpt lat="45.87608" lon="4.71375">
        <ele>224.85380554199</ele>
        <time>2014-06-07T08:42:13Z</time>
      </trkpt>
      <trkpt lat="45.87606" lon="4.71359">
        <ele>225.18499755859</ele>
        <time>2014-06-07T08:42:16Z</time>
      </trkpt>
      <trkpt lat="45.87608" lon="4.71336">
        <ele>225.66160583496</ele>
        <time>2014-06-07T08:42:21Z</time>
      </trkpt>
      <trkpt lat="45.87606" lon="4.71315">
        <ele>225.40744018555</ele>
        <time>2014-06-07T08:42:25Z</time>
      </trkpt>
      <trkpt lat="45.87603" lon="4.71296">
        <ele>225.0807800293</ele>
        <time>2014-06-07T08:42:29Z</time>
      </trkpt>
      <trkpt lat="45.87598" lon="4.71283">
        <ele>224.83166503906</ele>
        <time>2014-06-07T08:42:32Z</time>
      </trkpt>
      <trkpt lat="45.87594" lon="4.71275">
        <ele>224.65516662598</ele>
        <time>2014-06-07T08:42:34Z</time>
      </trkpt>
      <trkpt lat="45.87583" lon="4.7125">
        <ele>223.97695922852</ele>
        <time>2014-06-07T08:42:40Z</time>
      </trkpt>
      <trkpt lat="45.8758" lon="4.71241">
        <ele>223.53890991211</ele>
        <time>2014-06-07T08:42:42Z</time>
      </trkpt>
      <trkpt lat="45.87572" lon="4.7122">
        <ele>222.55253601074</ele>
        <time>2014-06-07T08:42:47Z</time>
      </trkpt>
      <trkpt lat="45.87565" lon="4.71208">
        <ele>221.95378112793</ele>
        <time>2014-06-07T08:42:50Z</time>
      </trkpt>
      <trkpt lat="45.87558" lon="4.71193">
        <ele>221.23991394043</ele>
        <time>2014-06-07T08:42:54Z</time>
      </trkpt>
      <trkpt lat="45.87554" lon="4.71185">
        <ele>220.87341308594</ele>
        <time>2014-06-07T08:42:56Z</time>
      </trkpt>
      <trkpt lat="45.87548" lon="4.71175">
        <ele>220.38700866699</ele>
        <time>2014-06-07T08:42:59Z</time>
      </trkpt>
      <trkpt lat="45.87542" lon="4.71149">
        <ele>219.26498413086</ele>
        <time>2014-06-07T08:43:05Z</time>
      </trkpt>
      <trkpt lat="45.87542" lon="4.71146">
        <ele>219.15071105957</ele>
        <time>2014-06-07T08:43:06Z</time>
      </trkpt>
      <trkpt lat="45.87542" lon="4.71138">
        <ele>218.78829956055</ele>
        <time>2014-06-07T08:43:14Z</time>
      </trkpt>
      <trkpt lat="45.87542" lon="4.71136">
        <ele>218.69018554688</ele>
        <time>2014-06-07T08:43:15Z</time>
      </trkpt>
      <trkpt lat="45.8754" lon="4.71122">
        <ele>218.09007263184</ele>
        <time>2014-06-07T08:43:19Z</time>
      </trkpt>
      <trkpt lat="45.87538" lon="4.71119">
        <ele>217.92080688477</ele>
        <time>2014-06-07T08:43:20Z</time>
      </trkpt>
      <trkpt lat="45.87532" lon="4.71108">
        <ele>217.37512207031</ele>
        <time>2014-06-07T08:43:23Z</time>
      </trkpt>
      <trkpt lat="45.87527" lon="4.711">
        <ele>216.9748840332</ele>
        <time>2014-06-07T08:43:25Z</time>
      </trkpt>
      <trkpt lat="45.87521" lon="4.71091">
        <ele>216.5633392334</ele>
        <time>2014-06-07T08:43:27Z</time>
      </trkpt>
      <trkpt lat="45.87511" lon="4.71073">
        <ele>215.87336730957</ele>
        <time>2014-06-07T08:43:31Z</time>
      </trkpt>
      <trkpt lat="45.87509" lon="4.71069">
        <ele>215.74925231934</ele>
        <time>2014-06-07T08:43:32Z</time>
      </trkpt>
      <trkpt lat="45.87496" lon="4.71049">
        <ele>215.22561645508</ele>
        <time>2014-06-07T08:43:37Z</time>
      </trkpt>
      <trkpt lat="45.87494" lon="4.71045">
        <ele>215.15197753906</ele>
        <time>2014-06-07T08:43:38Z</time>
      </trkpt>
      <trkpt lat="45.87483" lon="4.71029">
        <ele>214.95491027832</ele>
        <time>2014-06-07T08:43:42Z</time>
      </trkpt>
      <trkpt lat="45.87479" lon="4.71021">
        <ele>214.88127136231</ele>
        <time>2014-06-07T08:43:44Z</time>
      </trkpt>
      <trkpt lat="45.87475" lon="4.71012">
        <ele>214.80497741699</ele>
        <time>2014-06-07T08:43:46Z</time>
      </trkpt>
      <trkpt lat="45.87475" lon="4.71008">
        <ele>214.73449707031</ele>
        <time>2014-06-07T08:43:47Z</time>
      </trkpt>
      <trkpt lat="45.87475" lon="4.71003">
        <ele>214.65303039551</ele>
        <time>2014-06-07T08:43:48Z</time>
      </trkpt>
      <trkpt lat="45.87483" lon="4.70997">
        <ele>214.45135498047</ele>
        <time>2014-06-07T08:43:51Z</time>
      </trkpt>
      <trkpt lat="45.87492" lon="4.7099">
        <ele>214.37127685547</ele>
        <time>2014-06-07T08:43:54Z</time>
      </trkpt>
      <trkpt lat="45.87502" lon="4.70982">
        <ele>214.42457580566</ele>
        <time>2014-06-07T08:43:57Z</time>
      </trkpt>
      <trkpt lat="45.87511" lon="4.70971">
        <ele>214.60653686523</ele>
        <time>2014-06-07T08:44:00Z</time>
      </trkpt>
      <trkpt lat="45.87525" lon="4.70954">
        <ele>214.77328491211</ele>
        <time>2014-06-07T08:44:04Z</time>
      </trkpt>
      <trkpt lat="45.87527" lon="4.7095">
        <ele>214.81411743164</ele>
        <time>2014-06-07T08:44:05Z</time>
      </trkpt>
      <trkpt lat="45.8754" lon="4.7093">
        <ele>214.87245178223</ele>
        <time>2014-06-07T08:44:09Z</time>
      </trkpt>
      <trkpt lat="45.87545" lon="4.70922">
        <ele>214.85700988769</ele>
        <time>2014-06-07T08:44:11Z</time>
      </trkpt>
      <trkpt lat="45.87549" lon="4.70917">
        <ele>214.81161499023</ele>
        <time>2014-06-07T08:44:12Z</time>
      </trkpt>
      <trkpt lat="45.87555" lon="4.70911">
        <ele>214.6944732666</ele>
        <time>2014-06-07T08:44:14Z</time>
      </trkpt>
      <trkpt lat="45.87561" lon="4.70905">
        <ele>214.6022644043</ele>
        <time>2014-06-07T08:44:16Z</time>
      </trkpt>
      <trkpt lat="45.87577" lon="4.70884">
        <ele>214.49070739746</ele>
        <time>2014-06-07T08:44:22Z</time>
      </trkpt>
      <trkpt lat="45.8759" lon="4.70867">
        <ele>214.81243896484</ele>
        <time>2014-06-07T08:44:27Z</time>
      </trkpt>
      <trkpt lat="45.87604" lon="4.70845">
        <ele>215.43168640137</ele>
        <time>2014-06-07T08:44:33Z</time>
      </trkpt>
      <trkpt lat="45.87607" lon="4.70841">
        <ele>215.52418518066</ele>
        <time>2014-06-07T08:44:34Z</time>
      </trkpt>
      <trkpt lat="45.87618" lon="4.70822">
        <ele>215.79670715332</ele>
        <time>2014-06-07T08:44:39Z</time>
      </trkpt>
      <trkpt lat="45.87629" lon="4.70797">
        <ele>215.81370544434</ele>
        <time>2014-06-07T08:44:45Z</time>
      </trkpt>
      <trkpt lat="45.87638" lon="4.70773">
        <ele>215.61483764648</ele>
        <time>2014-06-07T08:44:50Z</time>
      </trkpt>
      <trkpt lat="45.8764" lon="4.70764">
        <ele>215.48904418945</ele>
        <time>2014-06-07T08:44:52Z</time>
      </trkpt>
      <trkpt lat="45.87648" lon="4.70737">
        <ele>215.02322387695</ele>
        <time>2014-06-07T08:44:58Z</time>
      </trkpt>
      <trkpt lat="45.87656" lon="4.70715">
        <ele>214.65342712402</ele>
        <time>2014-06-07T08:45:03Z</time>
      </trkpt>
      <trkpt lat="45.87665" lon="4.70692">
        <ele>214.3049621582</ele>
        <time>2014-06-07T08:45:08Z</time>
      </trkpt>
      <trkpt lat="45.87667" lon="4.70687">
        <ele>214.26054382324</ele>
        <time>2014-06-07T08:45:09Z</time>
      </trkpt>
      <trkpt lat="45.8768" lon="4.70664">
        <ele>214.68974304199</ele>
        <time>2014-06-07T08:45:15Z</time>
      </trkpt>
      <trkpt lat="45.87694" lon="4.7064">
        <ele>215.51846313477</ele>
        <time>2014-06-07T08:45:21Z</time>
      </trkpt>
      <trkpt lat="45.87705" lon="4.7062">
        <ele>216.15214538574</ele>
        <time>2014-06-07T08:45:26Z</time>
      </trkpt>
      <trkpt lat="45.87719" lon="4.70601">
        <ele>216.7901763916</ele>
        <time>2014-06-07T08:45:32Z</time>
      </trkpt>
      <trkpt lat="45.87731" lon="4.7058">
        <ele>217.31298828125</ele>
        <time>2014-06-07T08:45:38Z</time>
      </trkpt>
      <trkpt lat="45.87733" lon="4.70577">
        <ele>217.37422180176</ele>
        <time>2014-06-07T08:45:39Z</time>
      </trkpt>
      <trkpt lat="45.87735" lon="4.70573">
        <ele>217.42292785644</ele>
        <time>2014-06-07T08:45:40Z</time>
      </trkpt>
      <trkpt lat="45.87745" lon="4.70555">
        <ele>217.79571533203</ele>
        <time>2014-06-07T08:45:45Z</time>
      </trkpt>
      <trkpt lat="45.87757" lon="4.70534">
        <ele>218.208984375</ele>
        <time>2014-06-07T08:45:51Z</time>
      </trkpt>
      <trkpt lat="45.87767" lon="4.70518">
        <ele>218.58076477051</ele>
        <time>2014-06-07T08:45:56Z</time>
      </trkpt>
      <trkpt lat="45.87777" lon="4.705">
        <ele>218.98382568359</ele>
        <time>2014-06-07T08:46:01Z</time>
      </trkpt>
      <trkpt lat="45.87789" lon="4.70479">
        <ele>219.40954589844</ele>
        <time>2014-06-07T08:46:07Z</time>
      </trkpt>
      <trkpt lat="45.87795" lon="4.70464">
        <ele>219.61553955078</ele>
        <time>2014-06-07T08:46:11Z</time>
      </trkpt>
      <trkpt lat="45.87798" lon="4.70452">
        <ele>219.73913574219</ele>
        <time>2014-06-07T08:46:15Z</time>
      </trkpt>
      <trkpt lat="45.87806" lon="4.70429">
        <ele>220.02752685547</ele>
        <time>2014-06-07T08:46:20Z</time>
      </trkpt>
      <trkpt lat="45.87808" lon="4.70425">
        <ele>220.09619140625</ele>
        <time>2014-06-07T08:46:21Z</time>
      </trkpt>
      <trkpt lat="45.87811" lon="4.70417">
        <ele>220.17858886719</ele>
        <time>2014-06-07T08:46:23Z</time>
      </trkpt>
      <trkpt lat="45.87812" lon="4.70409">
        <ele>220.27783203125</ele>
        <time>2014-06-07T08:46:25Z</time>
      </trkpt>
      <trkpt lat="45.87822" lon="4.7039">
        <ele>220.67655944824</ele>
        <time>2014-06-07T08:46:30Z</time>
      </trkpt>
      <trkpt lat="45.87835" lon="4.70386">
        <ele>221.09582519531</ele>
        <time>2014-06-07T08:46:34Z</time>
      </trkpt>
      <trkpt lat="45.87853" lon="4.70381">
        <ele>222.19445800781</ele>
        <time>2014-06-07T08:46:39Z</time>
      </trkpt>
      <trkpt lat="45.87857" lon="4.7038">
        <ele>222.40045166016</ele>
        <time>2014-06-07T08:46:40Z</time>
      </trkpt>
      <trkpt lat="45.87872" lon="4.70375">
        <ele>223.3388671875</ele>
        <time>2014-06-07T08:46:45Z</time>
      </trkpt>
      <trkpt lat="45.87887" lon="4.70373">
        <ele>224.20861816406</ele>
        <time>2014-06-07T08:46:49Z</time>
      </trkpt>
      <trkpt lat="45.87893" lon="4.70372">
        <ele>224.59771728516</ele>
        <time>2014-06-07T08:46:51Z</time>
      </trkpt>
      <trkpt lat="45.87903" lon="4.70369">
        <ele>225.19281005859</ele>
        <time>2014-06-07T08:46:54Z</time>
      </trkpt>
      <trkpt lat="45.87921" lon="4.70366">
        <ele>226.3876953125</ele>
        <time>2014-06-07T08:47:00Z</time>
      </trkpt>
      <trkpt lat="45.87937" lon="4.70364">
        <ele>227.75625610352</ele>
        <time>2014-06-07T08:47:05Z</time>
      </trkpt>
      <trkpt lat="45.8794" lon="4.70363">
        <ele>228.02746582031</ele>
        <time>2014-06-07T08:47:06Z</time>
      </trkpt>
      <trkpt lat="45.87948" lon="4.70354">
        <ele>228.81071472168</ele>
        <time>2014-06-07T08:47:10Z</time>
      </trkpt>
      <trkpt lat="45.87951" lon="4.70337">
        <ele>229.21366882324</ele>
        <time>2014-06-07T08:47:14Z</time>
      </trkpt>
      <trkpt lat="45.87952" lon="4.70328">
        <ele>229.43580627441</ele>
        <time>2014-06-07T08:47:16Z</time>
      </trkpt>
      <trkpt lat="45.87955" lon="4.70301">
        <ele>229.93284606934</ele>
        <time>2014-06-07T08:47:22Z</time>
      </trkpt>
      <trkpt lat="45.87962" lon="4.70273">
        <ele>230.71029663086</ele>
        <time>2014-06-07T08:47:28Z</time>
      </trkpt>
      <trkpt lat="45.87967" lon="4.70251">
        <ele>231.24768066406</ele>
        <time>2014-06-07T08:47:33Z</time>
      </trkpt>
      <trkpt lat="45.87977" lon="4.70232">
        <ele>231.25196838379</ele>
        <time>2014-06-07T08:47:38Z</time>
      </trkpt>
      <trkpt lat="45.87994" lon="4.70214">
        <ele>231.42492675781</ele>
        <time>2014-06-07T08:47:44Z</time>
      </trkpt>
      <trkpt lat="45.87997" lon="4.70211">
        <ele>231.47915649414</ele>
        <time>2014-06-07T08:47:45Z</time>
      </trkpt>
      <trkpt lat="45.88015" lon="4.70197">
        <ele>231.2151184082</ele>
        <time>2014-06-07T08:47:51Z</time>
      </trkpt>
      <trkpt lat="45.88018" lon="4.70195">
        <ele>231.13673400879</ele>
        <time>2014-06-07T08:47:52Z</time>
      </trkpt>
      <trkpt lat="45.88031" lon="4.7018">
        <ele>230.56338500977</ele>
        <time>2014-06-07T08:47:57Z</time>
      </trkpt>
      <trkpt lat="45.88042" lon="4.70158">
        <ele>230.3123626709</ele>
        <time>2014-06-07T08:48:03Z</time>
      </trkpt>
      <trkpt lat="45.8805" lon="4.70136">
        <ele>231.40840148926</ele>
        <time>2014-06-07T08:48:08Z</time>
      </trkpt>
      <trkpt lat="45.88064" lon="4.70114">
        <ele>232.76370239258</ele>
        <time>2014-06-07T08:48:14Z</time>
      </trkpt>
      <trkpt lat="45.88071" lon="4.70099">
        <ele>233.69889831543</ele>
        <time>2014-06-07T08:48:19Z</time>
      </trkpt>
      <trkpt lat="45.88073" lon="4.70092">
        <ele>234.09466552734</ele>
        <time>2014-06-07T08:48:21Z</time>
      </trkpt>
      <trkpt lat="45.88078" lon="4.70079">
        <ele>235.02458190918</ele>
        <time>2014-06-07T08:48:25Z</time>
      </trkpt>
      <trkpt lat="45.88079" lon="4.70075">
        <ele>235.28395080566</ele>
        <time>2014-06-07T08:48:26Z</time>
      </trkpt>
      <trkpt lat="45.88082" lon="4.70066">
        <ele>235.96345520019</ele>
        <time>2014-06-07T08:48:29Z</time>
      </trkpt>
      <trkpt lat="45.88087" lon="4.70052">
        <ele>236.77287292481</ele>
        <time>2014-06-07T08:48:33Z</time>
      </trkpt>
      <trkpt lat="45.88089" lon="4.70045">
        <ele>237.16400146484</ele>
        <time>2014-06-07T08:48:35Z</time>
      </trkpt>
      <trkpt lat="45.88094" lon="4.70027">
        <ele>238.09288024902</ele>
        <time>2014-06-07T08:48:39Z</time>
      </trkpt>
      <trkpt lat="45.88098" lon="4.70003">
        <ele>239.27917480469</ele>
        <time>2014-06-07T08:48:45Z</time>
      </trkpt>
      <trkpt lat="45.88099" lon="4.69982">
        <ele>239.8655090332</ele>
        <time>2014-06-07T08:48:50Z</time>
      </trkpt>
      <trkpt lat="45.88099" lon="4.69969">
        <ele>240.1813659668</ele>
        <time>2014-06-07T08:48:53Z</time>
      </trkpt>
      <trkpt lat="45.881" lon="4.69954">
        <ele>240.51324462891</ele>
        <time>2014-06-07T08:48:56Z</time>
      </trkpt>
      <trkpt lat="45.881" lon="4.69943">
        <ele>240.77188110352</ele>
        <time>2014-06-07T08:48:59Z</time>
      </trkpt>
      <trkpt lat="45.881" lon="4.69924">
        <ele>241.22506713867</ele>
        <time>2014-06-07T08:49:03Z</time>
      </trkpt>
      <trkpt lat="45.881" lon="4.6992">
        <ele>241.32005310059</ele>
        <time>2014-06-07T08:49:04Z</time>
      </trkpt>
      <trkpt lat="45.881" lon="4.69898">
        <ele>242.3907623291</ele>
        <time>2014-06-07T08:49:09Z</time>
      </trkpt>
      <trkpt lat="45.88102" lon="4.69884">
        <ele>243.07957458496</ele>
        <time>2014-06-07T08:49:12Z</time>
      </trkpt>
      <trkpt lat="45.88106" lon="4.69862">
        <ele>244.16250610352</ele>
        <time>2014-06-07T08:49:17Z</time>
      </trkpt>
      <trkpt lat="45.88107" lon="4.69853">
        <ele>244.60539245606</ele>
        <time>2014-06-07T08:49:19Z</time>
      </trkpt>
      <trkpt lat="45.8811" lon="4.69841">
        <ele>245.25325012207</ele>
        <time>2014-06-07T08:49:22Z</time>
      </trkpt>
      <trkpt lat="45.88113" lon="4.69823">
        <ele>245.85652160644</ele>
        <time>2014-06-07T08:49:26Z</time>
      </trkpt>
      <trkpt lat="45.88114" lon="4.69818">
        <ele>245.95166015625</ele>
        <time>2014-06-07T08:49:27Z</time>
      </trkpt>
      <trkpt lat="45.88117" lon="4.69799">
        <ele>246.33723449707</ele>
        <time>2014-06-07T08:49:31Z</time>
      </trkpt>
      <trkpt lat="45.88118" lon="4.69794">
        <ele>246.43986511231</ele>
        <time>2014-06-07T08:49:32Z</time>
      </trkpt>
      <trkpt lat="45.88121" lon="4.69767">
        <ele>247.06875610352</ele>
        <time>2014-06-07T08:49:38Z</time>
      </trkpt>
      <trkpt lat="45.88123" lon="4.69762">
        <ele>247.19467163086</ele>
        <time>2014-06-07T08:49:39Z</time>
      </trkpt>
      <trkpt lat="45.88127" lon="4.69735">
        <ele>247.71965026856</ele>
        <time>2014-06-07T08:49:45Z</time>
      </trkpt>
      <trkpt lat="45.88128" lon="4.6973">
        <ele>247.79646301269</ele>
        <time>2014-06-07T08:49:46Z</time>
      </trkpt>
      <trkpt lat="45.88132" lon="4.69718">
        <ele>248.03950500488</ele>
        <time>2014-06-07T08:49:49Z</time>
      </trkpt>
      <trkpt lat="45.88137" lon="4.69701">
        <ele>248.39494323731</ele>
        <time>2014-06-07T08:49:53Z</time>
      </trkpt>
      <trkpt lat="45.88142" lon="4.69677">
        <ele>248.93431091309</ele>
        <time>2014-06-07T08:49:58Z</time>
      </trkpt>
      <trkpt lat="45.88143" lon="4.69673">
        <ele>249.03373718262</ele>
        <time>2014-06-07T08:49:59Z</time>
      </trkpt>
      <trkpt lat="45.88147" lon="4.69645">
        <ele>250.1315612793</ele>
        <time>2014-06-07T08:50:05Z</time>
      </trkpt>
      <trkpt lat="45.88148" lon="4.69641">
        <ele>250.32283020019</ele>
        <time>2014-06-07T08:50:06Z</time>
      </trkpt>
      <trkpt lat="45.8815" lon="4.69618">
        <ele>251.29936218262</ele>
        <time>2014-06-07T08:50:11Z</time>
      </trkpt>
      <trkpt lat="45.88153" lon="4.69603">
        <ele>251.9020690918</ele>
        <time>2014-06-07T08:50:14Z</time>
      </trkpt>
      <trkpt lat="45.88157" lon="4.69576">
        <ele>253.13117980957</ele>
        <time>2014-06-07T08:50:20Z</time>
      </trkpt>
      <trkpt lat="45.88158" lon="4.69571">
        <ele>253.38844299316</ele>
        <time>2014-06-07T08:50:21Z</time>
      </trkpt>
      <trkpt lat="45.8816" lon="4.69543">
        <ele>254.80059814453</ele>
        <time>2014-06-07T08:50:27Z</time>
      </trkpt>
      <trkpt lat="45.88163" lon="4.69516">
        <ele>256.166015625</ele>
        <time>2014-06-07T08:50:33Z</time>
      </trkpt>
      <trkpt lat="45.88164" lon="4.69513">
        <ele>256.34548950195</ele>
        <time>2014-06-07T08:50:34Z</time>
      </trkpt>
      <trkpt lat="45.88164" lon="4.69508">
        <ele>256.58560180664</ele>
        <time>2014-06-07T08:50:35Z</time>
      </trkpt>
      <trkpt lat="45.88165" lon="4.69494">
        <ele>257.3583984375</ele>
        <time>2014-06-07T08:50:38Z</time>
      </trkpt>
      <trkpt lat="45.88167" lon="4.69482">
        <ele>258.09454345703</ele>
        <time>2014-06-07T08:50:41Z</time>
      </trkpt>
      <trkpt lat="45.88169" lon="4.69465">
        <ele>259.12750244141</ele>
        <time>2014-06-07T08:50:45Z</time>
      </trkpt>
      <trkpt lat="45.8817" lon="4.69448">
        <ele>260.15823364258</ele>
        <time>2014-06-07T08:50:49Z</time>
      </trkpt>
      <trkpt lat="45.88171" lon="4.69438">
        <ele>260.71978759766</ele>
        <time>2014-06-07T08:50:51Z</time>
      </trkpt>
      <trkpt lat="45.88173" lon="4.69425">
        <ele>261.49865722656</ele>
        <time>2014-06-07T08:50:54Z</time>
      </trkpt>
      <trkpt lat="45.88176" lon="4.69412">
        <ele>262.28082275391</ele>
        <time>2014-06-07T08:50:57Z</time>
      </trkpt>
      <trkpt lat="45.88177" lon="4.69408">
        <ele>262.54797363281</ele>
        <time>2014-06-07T08:50:58Z</time>
      </trkpt>
      <trkpt lat="45.8818" lon="4.6939">
        <ele>263.6496887207</ele>
        <time>2014-06-07T08:51:02Z</time>
      </trkpt>
      <trkpt lat="45.88181" lon="4.69386">
        <ele>263.92926025391</ele>
        <time>2014-06-07T08:51:03Z</time>
      </trkpt>
      <trkpt lat="45.88182" lon="4.69377">
        <ele>264.47058105469</ele>
        <time>2014-06-07T08:51:05Z</time>
      </trkpt>
      <trkpt lat="45.88182" lon="4.69377">
        <ele>264.47058105469</ele>
        <time>2014-06-07T08:51:05Z</time>
      </trkpt>
      <trkpt lat="45.88186" lon="4.69364">
        <ele>265.33419799805</ele>
        <time>2014-06-07T08:51:08Z</time>
      </trkpt>
      <trkpt lat="45.88189" lon="4.69351">
        <ele>266.15924072266</ele>
        <time>2014-06-07T08:51:11Z</time>
      </trkpt>
      <trkpt lat="45.8819" lon="4.69346">
        <ele>266.46237182617</ele>
        <time>2014-06-07T08:51:12Z</time>
      </trkpt>
      <trkpt lat="45.88195" lon="4.69326">
        <ele>267.83166503906</ele>
        <time>2014-06-07T08:51:17Z</time>
      </trkpt>
      <trkpt lat="45.88197" lon="4.69317">
        <ele>268.43621826172</ele>
        <time>2014-06-07T08:51:19Z</time>
      </trkpt>
      <trkpt lat="45.88199" lon="4.69308">
        <ele>269.00857543945</ele>
        <time>2014-06-07T08:51:21Z</time>
      </trkpt>
      <trkpt lat="45.88204" lon="4.69293">
        <ele>270.05197143555</ele>
        <time>2014-06-07T08:51:25Z</time>
      </trkpt>
      <trkpt lat="45.88206" lon="4.69291">
        <ele>270.28430175781</ele>
        <time>2014-06-07T08:51:26Z</time>
      </trkpt>
      <trkpt lat="45.88216" lon="4.69287">
        <ele>270.67495727539</ele>
        <time>2014-06-07T08:51:29Z</time>
      </trkpt>
      <trkpt lat="45.8822" lon="4.69287">
        <ele>270.78790283203</ele>
        <time>2014-06-07T08:51:30Z</time>
      </trkpt>
      <trkpt lat="45.8824" lon="4.69284">
        <ele>271.34494018555</ele>
        <time>2014-06-07T08:51:36Z</time>
      </trkpt>
      <trkpt lat="45.88261" lon="4.69282">
        <ele>271.37704467773</ele>
        <time>2014-06-07T08:51:42Z</time>
      </trkpt>
      <trkpt lat="45.88268" lon="4.69282">
        <ele>271.19317626953</ele>
        <time>2014-06-07T08:51:44Z</time>
      </trkpt>
      <trkpt lat="45.88286" lon="4.69283">
        <ele>270.69049072266</ele>
        <time>2014-06-07T08:51:49Z</time>
      </trkpt>
      <trkpt lat="45.8829" lon="4.69282">
        <ele>270.60778808594</ele>
        <time>2014-06-07T08:51:50Z</time>
      </trkpt>
      <trkpt lat="45.88311" lon="4.69282">
        <ele>270.06408691406</ele>
        <time>2014-06-07T08:51:56Z</time>
      </trkpt>
      <trkpt lat="45.88332" lon="4.69282">
        <ele>269.51361083984</ele>
        <time>2014-06-07T08:52:02Z</time>
      </trkpt>
      <trkpt lat="45.88353" lon="4.69278">
        <ele>269.63760375977</ele>
        <time>2014-06-07T08:52:08Z</time>
      </trkpt>
      <trkpt lat="45.88374" lon="4.69275">
        <ele>269.79782104492</ele>
        <time>2014-06-07T08:52:14Z</time>
      </trkpt>
      <trkpt lat="45.88384" lon="4.69274">
        <ele>269.84817504883</ele>
        <time>2014-06-07T08:52:17Z</time>
      </trkpt>
      <trkpt lat="45.88398" lon="4.69274">
        <ele>269.85046386719</ele>
        <time>2014-06-07T08:52:21Z</time>
      </trkpt>
      <trkpt lat="45.88419" lon="4.69275">
        <ele>269.75253295898</ele>
        <time>2014-06-07T08:52:27Z</time>
      </trkpt>
      <trkpt lat="45.88439" lon="4.69277">
        <ele>269.33874511719</ele>
        <time>2014-06-07T08:52:33Z</time>
      </trkpt>
      <trkpt lat="45.88443" lon="4.69278">
        <ele>269.26177978516</ele>
        <time>2014-06-07T08:52:34Z</time>
      </trkpt>
      <trkpt lat="45.88463" lon="4.69277">
        <ele>268.94061279297</ele>
        <time>2014-06-07T08:52:40Z</time>
      </trkpt>
      <trkpt lat="45.8847" lon="4.69278">
        <ele>268.81555175781</ele>
        <time>2014-06-07T08:52:42Z</time>
      </trkpt>
      <trkpt lat="45.88477" lon="4.69279">
        <ele>268.67651367188</ele>
        <time>2014-06-07T08:52:44Z</time>
      </trkpt>
      <trkpt lat="45.88493" lon="4.69282">
        <ele>268.34005737305</ele>
        <time>2014-06-07T08:52:49Z</time>
      </trkpt>
      <trkpt lat="45.88514" lon="4.69279">
        <ele>268.02661132812</ele>
        <time>2014-06-07T08:52:55Z</time>
      </trkpt>
      <trkpt lat="45.88524" lon="4.69262">
        <ele>268.18286132812</ele>
        <time>2014-06-07T08:53:00Z</time>
      </trkpt>
      <trkpt lat="45.8853" lon="4.69233">
        <ele>268.75839233398</ele>
        <time>2014-06-07T08:53:06Z</time>
      </trkpt>
      <trkpt lat="45.88531" lon="4.69228">
        <ele>268.87359619141</ele>
        <time>2014-06-07T08:53:07Z</time>
      </trkpt>
      <trkpt lat="45.88543" lon="4.69211">
        <ele>269.14212036133</ele>
        <time>2014-06-07T08:53:12Z</time>
      </trkpt>
      <trkpt lat="45.88554" lon="4.69207">
        <ele>269.09072875977</ele>
        <time>2014-06-07T08:53:15Z</time>
      </trkpt>
      <trkpt lat="45.88564" lon="4.69204">
        <ele>269.00137329102</ele>
        <time>2014-06-07T08:53:18Z</time>
      </trkpt>
      <trkpt lat="45.88585" lon="4.69199">
        <ele>268.84414672852</ele>
        <time>2014-06-07T08:53:24Z</time>
      </trkpt>
      <trkpt lat="45.88588" lon="4.69199">
        <ele>268.93478393555</ele>
        <time>2014-06-07T08:53:25Z</time>
      </trkpt>
      <trkpt lat="45.88609" lon="4.69195">
        <ele>269.37982177734</ele>
        <time>2014-06-07T08:53:31Z</time>
      </trkpt>
      <trkpt lat="45.88612" lon="4.69195">
        <ele>269.44125366211</ele>
        <time>2014-06-07T08:53:32Z</time>
      </trkpt>
      <trkpt lat="45.88633" lon="4.69196">
        <ele>269.74209594727</ele>
        <time>2014-06-07T08:53:38Z</time>
      </trkpt>
      <trkpt lat="45.88647" lon="4.69198">
        <ele>269.92742919922</ele>
        <time>2014-06-07T08:53:42Z</time>
      </trkpt>
      <trkpt lat="45.88665" lon="4.69202">
        <ele>270.11959838867</ele>
        <time>2014-06-07T08:53:47Z</time>
      </trkpt>
      <trkpt lat="45.88668" lon="4.69203">
        <ele>270.14025878906</ele>
        <time>2014-06-07T08:53:48Z</time>
      </trkpt>
      <trkpt lat="45.88684" lon="4.69214">
        <ele>270.07501220703</ele>
        <time>2014-06-07T08:53:53Z</time>
      </trkpt>
      <trkpt lat="45.88695" lon="4.69227">
        <ele>269.88507080078</ele>
        <time>2014-06-07T08:53:57Z</time>
      </trkpt>
      <trkpt lat="45.88708" lon="4.69252">
        <ele>269.45245361328</ele>
        <time>2014-06-07T08:54:03Z</time>
      </trkpt>
      <trkpt lat="45.88713" lon="4.6926">
        <ele>269.31286621094</ele>
        <time>2014-06-07T08:54:05Z</time>
      </trkpt>
      <trkpt lat="45.88721" lon="4.69272">
        <ele>269.11145019531</ele>
        <time>2014-06-07T08:54:08Z</time>
      </trkpt>
      <trkpt lat="45.88736" lon="4.69293">
        <ele>268.80358886719</ele>
        <time>2014-06-07T08:54:14Z</time>
      </trkpt>
      <trkpt lat="45.88739" lon="4.69295">
        <ele>268.78186035156</ele>
        <time>2014-06-07T08:54:15Z</time>
      </trkpt>
      <trkpt lat="45.88758" lon="4.69305">
        <ele>269.00238037109</ele>
        <time>2014-06-07T08:54:21Z</time>
      </trkpt>
      <trkpt lat="45.88778" lon="4.69308">
        <ele>269.74545288086</ele>
        <time>2014-06-07T08:54:27Z</time>
      </trkpt>
      <trkpt lat="45.88799" lon="4.69308">
        <ele>270.58264160156</ele>
        <time>2014-06-07T08:54:33Z</time>
      </trkpt>
      <trkpt lat="45.88802" lon="4.69308">
        <ele>270.71170043945</ele>
        <time>2014-06-07T08:54:34Z</time>
      </trkpt>
      <trkpt lat="45.88815" lon="4.69306">
        <ele>271.26013183594</ele>
        <time>2014-06-07T08:54:38Z</time>
      </trkpt>
      <trkpt lat="45.88827" lon="4.69302">
        <ele>271.75793457031</ele>
        <time>2014-06-07T08:54:42Z</time>
      </trkpt>
      <trkpt lat="45.88839" lon="4.69294">
        <ele>271.88995361328</ele>
        <time>2014-06-07T08:54:46Z</time>
      </trkpt>
      <trkpt lat="45.88845" lon="4.6929">
        <ele>271.78555297852</ele>
        <time>2014-06-07T08:54:48Z</time>
      </trkpt>
      <trkpt lat="45.88854" lon="4.69283">
        <ele>271.65637207031</ele>
        <time>2014-06-07T08:54:51Z</time>
      </trkpt>
      <trkpt lat="45.88866" lon="4.69274">
        <ele>271.48788452148</ele>
        <time>2014-06-07T08:54:55Z</time>
      </trkpt>
      <trkpt lat="45.88875" lon="4.69266">
        <ele>271.40643310547</ele>
        <time>2014-06-07T08:54:58Z</time>
      </trkpt>
      <trkpt lat="45.88888" lon="4.69253">
        <ele>271.31817626953</ele>
        <time>2014-06-07T08:55:03Z</time>
      </trkpt>
      <trkpt lat="45.88906" lon="4.69238">
        <ele>271.37939453125</ele>
        <time>2014-06-07T08:55:09Z</time>
      </trkpt>
      <trkpt lat="45.88913" lon="4.69235">
        <ele>271.39266967773</ele>
        <time>2014-06-07T08:55:11Z</time>
      </trkpt>
      <trkpt lat="45.88932" lon="4.6923">
        <ele>271.62814331055</ele>
        <time>2014-06-07T08:55:17Z</time>
      </trkpt>
      <trkpt lat="45.8894" lon="4.69228">
        <ele>271.72955322266</ele>
        <time>2014-06-07T08:55:19Z</time>
      </trkpt>
      <trkpt lat="45.8896" lon="4.69222">
        <ele>272.02325439453</ele>
        <time>2014-06-07T08:55:25Z</time>
      </trkpt>
      <trkpt lat="45.8898" lon="4.69215">
        <ele>272.27835083008</ele>
        <time>2014-06-07T08:55:31Z</time>
      </trkpt>
      <trkpt lat="45.88984" lon="4.69214">
        <ele>272.3134765625</ele>
        <time>2014-06-07T08:55:32Z</time>
      </trkpt>
      <trkpt lat="45.88987" lon="4.69214">
        <ele>272.34832763672</ele>
        <time>2014-06-07T08:55:33Z</time>
      </trkpt>
      <trkpt lat="45.89007" lon="4.69206">
        <ele>272.48635864258</ele>
        <time>2014-06-07T08:55:39Z</time>
      </trkpt>
      <trkpt lat="45.89014" lon="4.69205">
        <ele>272.48452758789</ele>
        <time>2014-06-07T08:55:41Z</time>
      </trkpt>
      <trkpt lat="45.89035" lon="4.69203">
        <ele>272.44635009766</ele>
        <time>2014-06-07T08:55:47Z</time>
      </trkpt>
      <trkpt lat="45.89038" lon="4.69204">
        <ele>272.40707397461</ele>
        <time>2014-06-07T08:55:48Z</time>
      </trkpt>
      <trkpt lat="45.89054" lon="4.69217">
        <ele>271.87533569336</ele>
        <time>2014-06-07T08:55:53Z</time>
      </trkpt>
      <trkpt lat="45.89069" lon="4.69233">
        <ele>271.06744384766</ele>
        <time>2014-06-07T08:55:58Z</time>
      </trkpt>
      <trkpt lat="45.89072" lon="4.69236">
        <ele>270.8669128418</ele>
        <time>2014-06-07T08:55:59Z</time>
      </trkpt>
      <trkpt lat="45.89084" lon="4.69248">
        <ele>270.07751464844</ele>
        <time>2014-06-07T08:56:03Z</time>
      </trkpt>
      <trkpt lat="45.8909" lon="4.69254">
        <ele>269.67727661133</ele>
        <time>2014-06-07T08:56:05Z</time>
      </trkpt>
      <trkpt lat="45.89107" lon="4.69271">
        <ele>268.69323730469</ele>
        <time>2014-06-07T08:56:11Z</time>
      </trkpt>
      <trkpt lat="45.89122" lon="4.69284">
        <ele>268.08306884766</ele>
        <time>2014-06-07T08:56:16Z</time>
      </trkpt>
      <trkpt lat="45.89132" lon="4.69291">
        <ele>267.81649780273</ele>
        <time>2014-06-07T08:56:19Z</time>
      </trkpt>
      <trkpt lat="45.89138" lon="4.69295">
        <ele>267.70950317383</ele>
        <time>2014-06-07T08:56:21Z</time>
      </trkpt>
      <trkpt lat="45.89155" lon="4.69301">
        <ele>267.65444946289</ele>
        <time>2014-06-07T08:56:26Z</time>
      </trkpt>
      <trkpt lat="45.89173" lon="4.69308">
        <ele>267.34210205078</ele>
        <time>2014-06-07T08:56:31Z</time>
      </trkpt>
      <trkpt lat="45.89177" lon="4.6931">
        <ele>267.17068481445</ele>
        <time>2014-06-07T08:56:32Z</time>
      </trkpt>
      <trkpt lat="45.89197" lon="4.69319">
        <ele>266.18969726562</ele>
        <time>2014-06-07T08:56:38Z</time>
      </trkpt>
      <trkpt lat="45.89201" lon="4.69321">
        <ele>266.02331542969</ele>
        <time>2014-06-07T08:56:39Z</time>
      </trkpt>
      <trkpt lat="45.89211" lon="4.69324">
        <ele>265.57797241211</ele>
        <time>2014-06-07T08:56:42Z</time>
      </trkpt>
      <trkpt lat="45.8922" lon="4.69328">
        <ele>265.14395141602</ele>
        <time>2014-06-07T08:56:45Z</time>
      </trkpt>
      <trkpt lat="45.89224" lon="4.6933">
        <ele>264.99838256836</ele>
        <time>2014-06-07T08:56:46Z</time>
      </trkpt>
      <trkpt lat="45.8924" lon="4.69337">
        <ele>264.24984741211</ele>
        <time>2014-06-07T08:56:51Z</time>
      </trkpt>
      <trkpt lat="45.89253" lon="4.69342">
        <ele>263.63009643555</ele>
        <time>2014-06-07T08:56:54Z</time>
      </trkpt>
      <trkpt lat="45.89264" lon="4.69345">
        <ele>263.26501464844</ele>
        <time>2014-06-07T08:56:57Z</time>
      </trkpt>
      <trkpt lat="45.8927" lon="4.69347">
        <ele>263.05853271484</ele>
        <time>2014-06-07T08:56:59Z</time>
      </trkpt>
      <trkpt lat="45.89281" lon="4.69351">
        <ele>262.70660400391</ele>
        <time>2014-06-07T08:57:02Z</time>
      </trkpt>
      <trkpt lat="45.89291" lon="4.69355">
        <ele>262.37219238281</ele>
        <time>2014-06-07T08:57:05Z</time>
      </trkpt>
      <trkpt lat="45.89304" lon="4.69359">
        <ele>261.96258544922</ele>
        <time>2014-06-07T08:57:09Z</time>
      </trkpt>
      <trkpt lat="45.89315" lon="4.69364">
        <ele>261.61798095703</ele>
        <time>2014-06-07T08:57:12Z</time>
      </trkpt>
      <trkpt lat="45.89326" lon="4.69369">
        <ele>261.27621459961</ele>
        <time>2014-06-07T08:57:15Z</time>
      </trkpt>
      <trkpt lat="45.89333" lon="4.69373">
        <ele>261.05392456055</ele>
        <time>2014-06-07T08:57:17Z</time>
      </trkpt>
      <trkpt lat="45.89347" lon="4.69381">
        <ele>259.52691650391</ele>
        <time>2014-06-07T08:57:21Z</time>
      </trkpt>
      <trkpt lat="45.89357" lon="4.69387">
        <ele>258.46203613281</ele>
        <time>2014-06-07T08:57:24Z</time>
      </trkpt>
      <trkpt lat="45.8937" lon="4.69394">
        <ele>257.14788818359</ele>
        <time>2014-06-07T08:57:28Z</time>
      </trkpt>
      <trkpt lat="45.89376" lon="4.69399">
        <ele>256.50561523438</ele>
        <time>2014-06-07T08:57:30Z</time>
      </trkpt>
      <trkpt lat="45.89383" lon="4.6941">
        <ele>255.88250732422</ele>
        <time>2014-06-07T08:57:33Z</time>
      </trkpt>
      <trkpt lat="45.8939" lon="4.69423">
        <ele>255.01506042481</ele>
        <time>2014-06-07T08:57:36Z</time>
      </trkpt>
      <trkpt lat="45.89396" lon="4.69432">
        <ele>254.32556152344</ele>
        <time>2014-06-07T08:57:38Z</time>
      </trkpt>
      <trkpt lat="45.89399" lon="4.69436">
        <ele>253.9367980957</ele>
        <time>2014-06-07T08:57:39Z</time>
      </trkpt>
      <trkpt lat="45.89409" lon="4.69452">
        <ele>252.69909667969</ele>
        <time>2014-06-07T08:57:43Z</time>
      </trkpt>
      <trkpt lat="45.89412" lon="4.69457">
        <ele>252.41229248047</ele>
        <time>2014-06-07T08:57:44Z</time>
      </trkpt>
      <trkpt lat="45.8942" lon="4.69474">
        <ele>251.47268676758</ele>
        <time>2014-06-07T08:57:48Z</time>
      </trkpt>
      <trkpt lat="45.89422" lon="4.69479">
        <ele>251.24229431152</ele>
        <time>2014-06-07T08:57:49Z</time>
      </trkpt>
      <trkpt lat="45.89428" lon="4.69492">
        <ele>250.63629150391</ele>
        <time>2014-06-07T08:57:52Z</time>
      </trkpt>
      <trkpt lat="45.89434" lon="4.69505">
        <ele>250.07659912109</ele>
        <time>2014-06-07T08:57:55Z</time>
      </trkpt>
      <trkpt lat="45.89441" lon="4.69522">
        <ele>249.39404296875</ele>
        <time>2014-06-07T08:57:59Z</time>
      </trkpt>
      <trkpt lat="45.89444" lon="4.69531">
        <ele>249.07188415527</ele>
        <time>2014-06-07T08:58:01Z</time>
      </trkpt>
      <trkpt lat="45.89447" lon="4.6954">
        <ele>248.74682617188</ele>
        <time>2014-06-07T08:58:03Z</time>
      </trkpt>
      <trkpt lat="45.89454" lon="4.69554">
        <ele>248.22938537598</ele>
        <time>2014-06-07T08:58:06Z</time>
      </trkpt>
      <trkpt lat="45.89464" lon="4.69575">
        <ele>247.45092773438</ele>
        <time>2014-06-07T08:58:11Z</time>
      </trkpt>
      <trkpt lat="45.89467" lon="4.69583">
        <ele>247.17796325684</ele>
        <time>2014-06-07T08:58:13Z</time>
      </trkpt>
      <trkpt lat="45.89478" lon="4.69606">
        <ele>245.93728637695</ele>
        <time>2014-06-07T08:58:18Z</time>
      </trkpt>
      <trkpt lat="45.89481" lon="4.6961">
        <ele>245.65959167481</ele>
        <time>2014-06-07T08:58:19Z</time>
      </trkpt>
      <trkpt lat="45.89487" lon="4.69622">
        <ele>244.99694824219</ele>
        <time>2014-06-07T08:58:22Z</time>
      </trkpt>
      <trkpt lat="45.89491" lon="4.69631">
        <ele>244.55056762695</ele>
        <time>2014-06-07T08:58:24Z</time>
      </trkpt>
      <trkpt lat="45.89499" lon="4.69642">
        <ele>243.93153381348</ele>
        <time>2014-06-07T08:58:27Z</time>
      </trkpt>
      <trkpt lat="45.89504" lon="4.6965">
        <ele>243.46928405762</ele>
        <time>2014-06-07T08:58:29Z</time>
      </trkpt>
      <trkpt lat="45.89507" lon="4.69654">
        <ele>243.19331359863</ele>
        <time>2014-06-07T08:58:30Z</time>
      </trkpt>
      <trkpt lat="45.89518" lon="4.69667">
        <ele>242.31695556641</ele>
        <time>2014-06-07T08:58:34Z</time>
      </trkpt>
      <trkpt lat="45.89529" lon="4.69681">
        <ele>240.91529846191</ele>
        <time>2014-06-07T08:58:38Z</time>
      </trkpt>
      <trkpt lat="45.89532" lon="4.69684">
        <ele>240.53283691406</ele>
        <time>2014-06-07T08:58:39Z</time>
      </trkpt>
      <trkpt lat="45.89545" lon="4.69701">
        <ele>238.66716003418</ele>
        <time>2014-06-07T08:58:44Z</time>
      </trkpt>
      <trkpt lat="45.89548" lon="4.69704">
        <ele>238.27104187012</ele>
        <time>2014-06-07T08:58:45Z</time>
      </trkpt>
      <trkpt lat="45.89564" lon="4.6972">
        <ele>236.39886474609</ele>
        <time>2014-06-07T08:58:50Z</time>
      </trkpt>
      <trkpt lat="45.89576" lon="4.69729">
        <ele>235.05921936035</ele>
        <time>2014-06-07T08:58:54Z</time>
      </trkpt>
      <trkpt lat="45.89583" lon="4.69733">
        <ele>234.43118286133</ele>
        <time>2014-06-07T08:58:56Z</time>
      </trkpt>
      <trkpt lat="45.89586" lon="4.69734">
        <ele>234.28555297852</ele>
        <time>2014-06-07T08:58:57Z</time>
      </trkpt>
      <trkpt lat="45.896" lon="4.69739">
        <ele>233.83560180664</ele>
        <time>2014-06-07T08:59:01Z</time>
      </trkpt>
      <trkpt lat="45.89603" lon="4.69739">
        <ele>233.76849365234</ele>
        <time>2014-06-07T08:59:02Z</time>
      </trkpt>
      <trkpt lat="45.89618" lon="4.69745">
        <ele>233.31629943848</ele>
        <time>2014-06-07T08:59:06Z</time>
      </trkpt>
      <trkpt lat="45.89636" lon="4.69751">
        <ele>232.93772888184</ele>
        <time>2014-06-07T08:59:11Z</time>
      </trkpt>
      <trkpt lat="45.8964" lon="4.69753">
        <ele>232.85140991211</ele>
        <time>2014-06-07T08:59:12Z</time>
      </trkpt>
      <trkpt lat="45.89651" lon="4.69763">
        <ele>232.23504638672</ele>
        <time>2014-06-07T08:59:16Z</time>
      </trkpt>
      <trkpt lat="45.89653" lon="4.69768">
        <ele>231.96549987793</ele>
        <time>2014-06-07T08:59:17Z</time>
      </trkpt>
      <trkpt lat="45.89664" lon="4.6979">
        <ele>230.61819458008</ele>
        <time>2014-06-07T08:59:22Z</time>
      </trkpt>
      <trkpt lat="45.89666" lon="4.69794">
        <ele>230.37890625</ele>
        <time>2014-06-07T08:59:23Z</time>
      </trkpt>
      <trkpt lat="45.89675" lon="4.6981">
        <ele>229.26196289062</ele>
        <time>2014-06-07T08:59:27Z</time>
      </trkpt>
      <trkpt lat="45.89677" lon="4.69814">
        <ele>229.06503295898</ele>
        <time>2014-06-07T08:59:28Z</time>
      </trkpt>
      <trkpt lat="45.89686" lon="4.69829">
        <ele>228.20721435547</ele>
        <time>2014-06-07T08:59:32Z</time>
      </trkpt>
      <trkpt lat="45.89689" lon="4.69837">
        <ele>227.88624572754</ele>
        <time>2014-06-07T08:59:34Z</time>
      </trkpt>
      <trkpt lat="45.89693" lon="4.69846">
        <ele>227.57873535156</ele>
        <time>2014-06-07T08:59:36Z</time>
      </trkpt>
      <trkpt lat="45.89706" lon="4.69866">
        <ele>227.00483703613</ele>
        <time>2014-06-07T08:59:42Z</time>
      </trkpt>
      <trkpt lat="45.89707" lon="4.69869">
        <ele>226.9372253418</ele>
        <time>2014-06-07T08:59:43Z</time>
      </trkpt>
      <trkpt lat="45.89716" lon="4.69879">
        <ele>226.68569946289</ele>
        <time>2014-06-07T08:59:46Z</time>
      </trkpt>
      <trkpt lat="45.89729" lon="4.69894">
        <ele>226.35478210449</ele>
        <time>2014-06-07T08:59:51Z</time>
      </trkpt>
      <trkpt lat="45.8974" lon="4.69915">
        <ele>225.92852783203</ele>
        <time>2014-06-07T08:59:56Z</time>
      </trkpt>
      <trkpt lat="45.89746" lon="4.69926">
        <ele>225.6251373291</ele>
        <time>2014-06-07T08:59:59Z</time>
      </trkpt>
      <trkpt lat="45.89747" lon="4.69931">
        <ele>225.46287536621</ele>
        <time>2014-06-07T09:00:00Z</time>
      </trkpt>
      <trkpt lat="45.89758" lon="4.69941">
        <ele>225.04344177246</ele>
        <time>2014-06-07T09:00:03Z</time>
      </trkpt>
      <trkpt lat="45.89761" lon="4.69945">
        <ele>224.89494323731</ele>
        <time>2014-06-07T09:00:04Z</time>
      </trkpt>
      <trkpt lat="45.89771" lon="4.69952">
        <ele>224.59159851074</ele>
        <time>2014-06-07T09:00:07Z</time>
      </trkpt>
      <trkpt lat="45.89775" lon="4.69953">
        <ele>224.5089263916</ele>
        <time>2014-06-07T09:00:08Z</time>
      </trkpt>
      <trkpt lat="45.89783" lon="4.69954">
        <ele>224.42889404297</ele>
        <time>2014-06-07T09:00:11Z</time>
      </trkpt>
      <trkpt lat="45.89792" lon="4.69944">
        <ele>224.6795501709</ele>
        <time>2014-06-07T09:00:14Z</time>
      </trkpt>
      <trkpt lat="45.89795" lon="4.69932">
        <ele>225.01141357422</ele>
        <time>2014-06-07T09:00:17Z</time>
      </trkpt>
      <trkpt lat="45.89798" lon="4.6992">
        <ele>225.33358764648</ele>
        <time>2014-06-07T09:00:20Z</time>
      </trkpt>
      <trkpt lat="45.89799" lon="4.69909">
        <ele>225.59342956543</ele>
        <time>2014-06-07T09:00:22Z</time>
      </trkpt>
      <trkpt lat="45.89797" lon="4.69905">
        <ele>225.70901489258</ele>
        <time>2014-06-07T09:00:23Z</time>
      </trkpt>
      <trkpt lat="45.89796" lon="4.69895">
        <ele>225.97108459473</ele>
        <time>2014-06-07T09:00:25Z</time>
      </trkpt>
      <trkpt lat="45.89798" lon="4.69885">
        <ele>226.18623352051</ele>
        <time>2014-06-07T09:00:27Z</time>
      </trkpt>
      <trkpt lat="45.89799" lon="4.69871">
        <ele>226.50437927246</ele>
        <time>2014-06-07T09:00:30Z</time>
      </trkpt>
      <trkpt lat="45.89801" lon="4.69862">
        <ele>226.70465087891</ele>
        <time>2014-06-07T09:00:32Z</time>
      </trkpt>
      <trkpt lat="45.89806" lon="4.69851">
        <ele>226.90263366699</ele>
        <time>2014-06-07T09:00:35Z</time>
      </trkpt>
      <trkpt lat="45.89811" lon="4.69838">
        <ele>227.14753723144</ele>
        <time>2014-06-07T09:00:38Z</time>
      </trkpt>
      <trkpt lat="45.89813" lon="4.69829">
        <ele>227.40646362305</ele>
        <time>2014-06-07T09:00:40Z</time>
      </trkpt>
      <trkpt lat="45.89817" lon="4.69811">
        <ele>228.09910583496</ele>
        <time>2014-06-07T09:00:44Z</time>
      </trkpt>
      <trkpt lat="45.89817" lon="4.69802">
        <ele>228.48161315918</ele>
        <time>2014-06-07T09:00:46Z</time>
      </trkpt>
      <trkpt lat="45.89818" lon="4.69787">
        <ele>229.10244750977</ele>
        <time>2014-06-07T09:00:49Z</time>
      </trkpt>
      <trkpt lat="45.89817" lon="4.69758">
        <ele>230.30151367188</ele>
        <time>2014-06-07T09:00:55Z</time>
      </trkpt>
      <trkpt lat="45.89812" lon="4.69739">
        <ele>231.13189697266</ele>
        <time>2014-06-07T09:00:59Z</time>
      </trkpt>
      <trkpt lat="45.89811" lon="4.6973">
        <ele>231.63372802734</ele>
        <time>2014-06-07T09:01:01Z</time>
      </trkpt>
      <trkpt lat="45.89806" lon="4.69722">
        <ele>232.03941345215</ele>
        <time>2014-06-07T09:01:03Z</time>
      </trkpt>
      <trkpt lat="45.89804" lon="4.69707">
        <ele>232.84507751465</ele>
        <time>2014-06-07T09:01:06Z</time>
      </trkpt>
      <trkpt lat="45.89803" lon="4.69702">
        <ele>233.13061523438</ele>
        <time>2014-06-07T09:01:07Z</time>
      </trkpt>
      <trkpt lat="45.89801" lon="4.69687">
        <ele>234.01466369629</ele>
        <time>2014-06-07T09:01:11Z</time>
      </trkpt>
      <trkpt lat="45.89803" lon="4.6968">
        <ele>234.47128295898</ele>
        <time>2014-06-07T09:01:13Z</time>
      </trkpt>
      <trkpt lat="45.89805" lon="4.69667">
        <ele>235.30499267578</ele>
        <time>2014-06-07T09:01:16Z</time>
      </trkpt>
      <trkpt lat="45.89806" lon="4.69663">
        <ele>235.59603881836</ele>
        <time>2014-06-07T09:01:17Z</time>
      </trkpt>
      <trkpt lat="45.89809" lon="4.69652">
        <ele>236.43890380859</ele>
        <time>2014-06-07T09:01:20Z</time>
      </trkpt>
      <trkpt lat="45.8981" lon="4.69648">
        <ele>236.72421264648</ele>
        <time>2014-06-07T09:01:21Z</time>
      </trkpt>
      <trkpt lat="45.89817" lon="4.69628">
        <ele>238.33033752441</ele>
        <time>2014-06-07T09:01:26Z</time>
      </trkpt>
      <trkpt lat="45.89824" lon="4.69617">
        <ele>239.26338195801</ele>
        <time>2014-06-07T09:01:29Z</time>
      </trkpt>
      <trkpt lat="45.89831" lon="4.6961">
        <ele>240.02694702148</ele>
        <time>2014-06-07T09:01:32Z</time>
      </trkpt>
      <trkpt lat="45.89842" lon="4.69597">
        <ele>241.41772460938</ele>
        <time>2014-06-07T09:01:37Z</time>
      </trkpt>
      <trkpt lat="45.89844" lon="4.69594">
        <ele>241.70892333984</ele>
        <time>2014-06-07T09:01:38Z</time>
      </trkpt>
      <trkpt lat="45.89853" lon="4.69582">
        <ele>242.80784606934</ele>
        <time>2014-06-07T09:01:42Z</time>
      </trkpt>
      <trkpt lat="45.89861" lon="4.69571">
        <ele>243.90634155273</ele>
        <time>2014-06-07T09:01:46Z</time>
      </trkpt>
      <trkpt lat="45.89866" lon="4.69563">
        <ele>244.70344543457</ele>
        <time>2014-06-07T09:01:49Z</time>
      </trkpt>
      <trkpt lat="45.89872" lon="4.69556">
        <ele>245.40376281738</ele>
        <time>2014-06-07T09:01:52Z</time>
      </trkpt>
      <trkpt lat="45.89874" lon="4.69553">
        <ele>245.64022827148</ele>
        <time>2014-06-07T09:01:53Z</time>
      </trkpt>
      <trkpt lat="45.89879" lon="4.69545">
        <ele>246.37683105469</ele>
        <time>2014-06-07T09:01:56Z</time>
      </trkpt>
      <trkpt lat="45.89885" lon="4.69537">
        <ele>247.06790161133</ele>
        <time>2014-06-07T09:01:59Z</time>
      </trkpt>
      <trkpt lat="45.89891" lon="4.69528">
        <ele>247.80435180664</ele>
        <time>2014-06-07T09:02:02Z</time>
      </trkpt>
      <trkpt lat="45.89896" lon="4.6952">
        <ele>248.47155761719</ele>
        <time>2014-06-07T09:02:05Z</time>
      </trkpt>
      <trkpt lat="45.89898" lon="4.69517">
        <ele>248.66082763672</ele>
        <time>2014-06-07T09:02:06Z</time>
      </trkpt>
      <trkpt lat="45.89901" lon="4.69515">
        <ele>248.87217712402</ele>
        <time>2014-06-07T09:02:07Z</time>
      </trkpt>
      <trkpt lat="45.89905" lon="4.69509">
        <ele>249.28173828125</ele>
        <time>2014-06-07T09:02:09Z</time>
      </trkpt>
      <trkpt lat="45.89908" lon="4.69504">
        <ele>249.6296081543</ele>
        <time>2014-06-07T09:02:11Z</time>
      </trkpt>
      <trkpt lat="45.89912" lon="4.69499">
        <ele>250.0047454834</ele>
        <time>2014-06-07T09:02:13Z</time>
      </trkpt>
      <trkpt lat="45.89919" lon="4.69488">
        <ele>251.07369995117</ele>
        <time>2014-06-07T09:02:17Z</time>
      </trkpt>
      <trkpt lat="45.89924" lon="4.69477">
        <ele>252.02424621582</ele>
        <time>2014-06-07T09:02:20Z</time>
      </trkpt>
      <trkpt lat="45.89927" lon="4.69471">
        <ele>252.58995056152</ele>
        <time>2014-06-07T09:02:22Z</time>
      </trkpt>
      <trkpt lat="45.89931" lon="4.69464">
        <ele>253.16381835938</ele>
        <time>2014-06-07T09:02:24Z</time>
      </trkpt>
      <trkpt lat="45.89935" lon="4.69452">
        <ele>254.06025695801</ele>
        <time>2014-06-07T09:02:27Z</time>
      </trkpt>
      <trkpt lat="45.89936" lon="4.69449">
        <ele>254.32685852051</ele>
        <time>2014-06-07T09:02:28Z</time>
      </trkpt>
      <trkpt lat="45.89942" lon="4.69432">
        <ele>255.5998840332</ele>
        <time>2014-06-07T09:02:32Z</time>
      </trkpt>
      <trkpt lat="45.89943" lon="4.69429">
        <ele>255.82484436035</ele>
        <time>2014-06-07T09:02:33Z</time>
      </trkpt>
      <trkpt lat="45.89949" lon="4.69413">
        <ele>256.81958007812</ele>
        <time>2014-06-07T09:02:37Z</time>
      </trkpt>
      <trkpt lat="45.8995" lon="4.69409">
        <ele>257.01593017578</ele>
        <time>2014-06-07T09:02:38Z</time>
      </trkpt>
      <trkpt lat="45.89958" lon="4.6939">
        <ele>257.93997192383</ele>
        <time>2014-06-07T09:02:43Z</time>
      </trkpt>
      <trkpt lat="45.89959" lon="4.69386">
        <ele>258.15466308594</ele>
        <time>2014-06-07T09:02:44Z</time>
      </trkpt>
      <trkpt lat="45.8997" lon="4.69362">
        <ele>259.21136474609</ele>
        <time>2014-06-07T09:02:50Z</time>
      </trkpt>
      <trkpt lat="45.89974" lon="4.69351">
        <ele>259.71566772461</ele>
        <time>2014-06-07T09:02:53Z</time>
      </trkpt>
      <trkpt lat="45.89979" lon="4.69338">
        <ele>260.24304199219</ele>
        <time>2014-06-07T09:02:56Z</time>
      </trkpt>
      <trkpt lat="45.89983" lon="4.69326">
        <ele>260.81512451172</ele>
        <time>2014-06-07T09:02:59Z</time>
      </trkpt>
      <trkpt lat="45.89986" lon="4.69318">
        <ele>261.26315307617</ele>
        <time>2014-06-07T09:03:01Z</time>
      </trkpt>
      <trkpt lat="45.89991" lon="4.69306">
        <ele>261.85595703125</ele>
        <time>2014-06-07T09:03:04Z</time>
      </trkpt>
      <trkpt lat="45.89996" lon="4.69298">
        <ele>262.21301269531</ele>
        <time>2014-06-07T09:03:06Z</time>
      </trkpt>
      <trkpt lat="45.90006" lon="4.69286">
        <ele>262.93817138672</ele>
        <time>2014-06-07T09:03:10Z</time>
      </trkpt>
      <trkpt lat="45.90009" lon="4.69284">
        <ele>263.150390625</ele>
        <time>2014-06-07T09:03:11Z</time>
      </trkpt>
      <trkpt lat="45.90023" lon="4.69281">
        <ele>263.5595703125</ele>
        <time>2014-06-07T09:03:15Z</time>
      </trkpt>
      <trkpt lat="45.90039" lon="4.6929">
        <ele>263.28628540039</ele>
        <time>2014-06-07T09:03:20Z</time>
      </trkpt>
      <trkpt lat="45.90058" lon="4.69302">
        <ele>262.82153320312</ele>
        <time>2014-06-07T09:03:26Z</time>
      </trkpt>
      <trkpt lat="45.90075" lon="4.69304">
        <ele>262.97290039062</ele>
        <time>2014-06-07T09:03:31Z</time>
      </trkpt>
      <trkpt lat="45.90078" lon="4.69304">
        <ele>263.01156616211</ele>
        <time>2014-06-07T09:03:32Z</time>
      </trkpt>
      <trkpt lat="45.90099" lon="4.69304">
        <ele>263.70281982422</ele>
        <time>2014-06-07T09:03:38Z</time>
      </trkpt>
      <trkpt lat="45.90117" lon="4.69301">
        <ele>264.44934082031</ele>
        <time>2014-06-07T09:03:43Z</time>
      </trkpt>
      <trkpt lat="45.90134" lon="4.69298">
        <ele>265.23428344727</ele>
        <time>2014-06-07T09:03:48Z</time>
      </trkpt>
      <trkpt lat="45.90139" lon="4.69297">
        <ele>265.41232299805</ele>
        <time>2014-06-07T09:03:49Z</time>
      </trkpt>
      <trkpt lat="45.90142" lon="4.69296">
        <ele>265.55291748047</ele>
        <time>2014-06-07T09:03:50Z</time>
      </trkpt>
      <trkpt lat="45.90161" lon="4.69296">
        <ele>266.18676757812</ele>
        <time>2014-06-07T09:03:55Z</time>
      </trkpt>
      <trkpt lat="45.9018" lon="4.69298">
        <ele>266.55505371094</ele>
        <time>2014-06-07T09:04:00Z</time>
      </trkpt>
      <trkpt lat="45.90184" lon="4.69299">
        <ele>266.60430908203</ele>
        <time>2014-06-07T09:04:01Z</time>
      </trkpt>
      <trkpt lat="45.90203" lon="4.69306">
        <ele>266.71713256836</ele>
        <time>2014-06-07T09:04:07Z</time>
      </trkpt>
      <trkpt lat="45.90206" lon="4.69307">
        <ele>266.69146728516</ele>
        <time>2014-06-07T09:04:08Z</time>
      </trkpt>
      <trkpt lat="45.90215" lon="4.69312">
        <ele>266.62658691406</ele>
        <time>2014-06-07T09:04:11Z</time>
      </trkpt>
      <trkpt lat="45.90224" lon="4.6932">
        <ele>266.40380859375</ele>
        <time>2014-06-07T09:04:14Z</time>
      </trkpt>
      <trkpt lat="45.90227" lon="4.69323">
        <ele>266.29379272461</ele>
        <time>2014-06-07T09:04:15Z</time>
      </trkpt>
      <trkpt lat="45.90238" lon="4.69342">
        <ele>265.62957763672</ele>
        <time>2014-06-07T09:04:20Z</time>
      </trkpt>
      <trkpt lat="45.90245" lon="4.69367">
        <ele>265.09451293945</ele>
        <time>2014-06-07T09:04:25Z</time>
      </trkpt>
      <trkpt lat="45.90251" lon="4.69379">
        <ele>264.92074584961</ele>
        <time>2014-06-07T09:04:28Z</time>
      </trkpt>
      <trkpt lat="45.90257" lon="4.69385">
        <ele>264.7907409668</ele>
        <time>2014-06-07T09:04:30Z</time>
      </trkpt>
      <trkpt lat="45.90273" lon="4.69405">
        <ele>264.31439208984</ele>
        <time>2014-06-07T09:04:36Z</time>
      </trkpt>
      <trkpt lat="45.90276" lon="4.69409">
        <ele>264.22311401367</ele>
        <time>2014-06-07T09:04:37Z</time>
      </trkpt>
      <trkpt lat="45.90284" lon="4.69418">
        <ele>263.97003173828</ele>
        <time>2014-06-07T09:04:40Z</time>
      </trkpt>
      <trkpt lat="45.90289" lon="4.69425">
        <ele>263.8132019043</ele>
        <time>2014-06-07T09:04:42Z</time>
      </trkpt>
      <trkpt lat="45.90301" lon="4.69437">
        <ele>263.46823120117</ele>
        <time>2014-06-07T09:04:46Z</time>
      </trkpt>
      <trkpt lat="45.90307" lon="4.69442">
        <ele>263.27471923828</ele>
        <time>2014-06-07T09:04:48Z</time>
      </trkpt>
      <trkpt lat="45.90322" lon="4.69454">
        <ele>262.78344726562</ele>
        <time>2014-06-07T09:04:53Z</time>
      </trkpt>
      <trkpt lat="45.90326" lon="4.69456">
        <ele>262.67636108398</ele>
        <time>2014-06-07T09:04:54Z</time>
      </trkpt>
      <trkpt lat="45.9034" lon="4.69464">
        <ele>262.26635742188</ele>
        <time>2014-06-07T09:04:58Z</time>
      </trkpt>
      <trkpt lat="45.90349" lon="4.69471">
        <ele>261.90612792969</ele>
        <time>2014-06-07T09:05:01Z</time>
      </trkpt>
      <trkpt lat="45.90358" lon="4.69484">
        <ele>261.32409667969</ele>
        <time>2014-06-07T09:05:05Z</time>
      </trkpt>
      <trkpt lat="45.90368" lon="4.69494">
        <ele>260.81127929688</ele>
        <time>2014-06-07T09:05:09Z</time>
      </trkpt>
      <trkpt lat="45.90387" lon="4.695">
        <ele>260.37069702148</ele>
        <time>2014-06-07T09:05:14Z</time>
      </trkpt>
      <trkpt lat="45.90406" lon="4.69504">
        <ele>259.88220214844</ele>
        <time>2014-06-07T09:05:19Z</time>
      </trkpt>
      <trkpt lat="45.90413" lon="4.69506">
        <ele>259.6647644043</ele>
        <time>2014-06-07T09:05:21Z</time>
      </trkpt>
      <trkpt lat="45.90431" lon="4.69512">
        <ele>258.94580078125</ele>
        <time>2014-06-07T09:05:26Z</time>
      </trkpt>
      <trkpt lat="45.90437" lon="4.69515">
        <ele>258.64141845703</ele>
        <time>2014-06-07T09:05:28Z</time>
      </trkpt>
      <trkpt lat="45.90451" lon="4.6953">
        <ele>257.52575683594</ele>
        <time>2014-06-07T09:05:33Z</time>
      </trkpt>
      <trkpt lat="45.90454" lon="4.6954">
        <ele>256.93670654297</ele>
        <time>2014-06-07T09:05:35Z</time>
      </trkpt>
      <trkpt lat="45.90456" lon="4.69555">
        <ele>256.07369995117</ele>
        <time>2014-06-07T09:05:38Z</time>
      </trkpt>
      <trkpt lat="45.9046" lon="4.69581">
        <ele>254.58538818359</ele>
        <time>2014-06-07T09:05:43Z</time>
      </trkpt>
      <trkpt lat="45.90463" lon="4.69604">
        <ele>253.73626708984</ele>
        <time>2014-06-07T09:05:47Z</time>
      </trkpt>
      <trkpt lat="45.90464" lon="4.69609">
        <ele>253.55737304688</ele>
        <time>2014-06-07T09:05:48Z</time>
      </trkpt>
      <trkpt lat="45.90466" lon="4.69626">
        <ele>252.96798706055</ele>
        <time>2014-06-07T09:05:51Z</time>
      </trkpt>
      <trkpt lat="45.90467" lon="4.69631">
        <ele>252.79188537598</ele>
        <time>2014-06-07T09:05:52Z</time>
      </trkpt>
      <trkpt lat="45.9047" lon="4.69647">
        <ele>252.27874755859</ele>
        <time>2014-06-07T09:05:55Z</time>
      </trkpt>
      <trkpt lat="45.90474" lon="4.69667">
        <ele>251.67849731445</ele>
        <time>2014-06-07T09:05:59Z</time>
      </trkpt>
      <trkpt lat="45.90475" lon="4.69672">
        <ele>251.49366760254</ele>
        <time>2014-06-07T09:06:00Z</time>
      </trkpt>
      <trkpt lat="45.90472" lon="4.69697">
        <ele>250.58500671387</ele>
        <time>2014-06-07T09:06:05Z</time>
      </trkpt>
      <trkpt lat="45.90465" lon="4.69716">
        <ele>249.81367492676</ele>
        <time>2014-06-07T09:06:09Z</time>
      </trkpt>
      <trkpt lat="45.90462" lon="4.69741">
        <ele>248.86267089844</ele>
        <time>2014-06-07T09:06:14Z</time>
      </trkpt>
      <trkpt lat="45.90462" lon="4.69746">
        <ele>248.68643188477</ele>
        <time>2014-06-07T09:06:15Z</time>
      </trkpt>
      <trkpt lat="45.90473" lon="4.69767">
        <ele>247.66351318359</ele>
        <time>2014-06-07T09:06:20Z</time>
      </trkpt>
      <trkpt lat="45.90485" lon="4.69773">
        <ele>247.56204223633</ele>
        <time>2014-06-07T09:06:24Z</time>
      </trkpt>
      <trkpt lat="45.90489" lon="4.69774">
        <ele>247.57473754883</ele>
        <time>2014-06-07T09:06:25Z</time>
      </trkpt>
      <trkpt lat="45.90506" lon="4.69779">
        <ele>247.44902038574</ele>
        <time>2014-06-07T09:06:30Z</time>
      </trkpt>
      <trkpt lat="45.9052" lon="4.69781">
        <ele>246.97497558594</ele>
        <time>2014-06-07T09:06:34Z</time>
      </trkpt>
      <trkpt lat="45.90527" lon="4.69783">
        <ele>246.68353271484</ele>
        <time>2014-06-07T09:06:36Z</time>
      </trkpt>
      <trkpt lat="45.90538" lon="4.69796">
        <ele>245.92735290527</ele>
        <time>2014-06-07T09:06:40Z</time>
      </trkpt>
      <trkpt lat="45.90544" lon="4.69802">
        <ele>245.56913757324</ele>
        <time>2014-06-07T09:06:42Z</time>
      </trkpt>
      <trkpt lat="45.90556" lon="4.69813">
        <ele>244.98327636719</ele>
        <time>2014-06-07T09:06:46Z</time>
      </trkpt>
      <trkpt lat="45.90559" lon="4.69815">
        <ele>244.86054992676</ele>
        <time>2014-06-07T09:06:47Z</time>
      </trkpt>
      <trkpt lat="45.90573" lon="4.69822">
        <ele>244.42593383789</ele>
        <time>2014-06-07T09:06:51Z</time>
      </trkpt>
      <trkpt lat="45.90577" lon="4.69823">
        <ele>244.34637451172</ele>
        <time>2014-06-07T09:06:52Z</time>
      </trkpt>
      <trkpt lat="45.90591" lon="4.69827">
        <ele>243.79106140137</ele>
        <time>2014-06-07T09:06:56Z</time>
      </trkpt>
      <trkpt lat="45.90608" lon="4.69826">
        <ele>243.0655670166</ele>
        <time>2014-06-07T09:07:00Z</time>
      </trkpt>
      <trkpt lat="45.90612" lon="4.69824">
        <ele>242.92628479004</ele>
        <time>2014-06-07T09:07:01Z</time>
      </trkpt>
      <trkpt lat="45.90626" lon="4.6982">
        <ele>242.43037414551</ele>
        <time>2014-06-07T09:07:05Z</time>
      </trkpt>
      <trkpt lat="45.9063" lon="4.69818">
        <ele>242.30416870117</ele>
        <time>2014-06-07T09:07:06Z</time>
      </trkpt>
      <trkpt lat="45.90645" lon="4.69817">
        <ele>241.74430847168</ele>
        <time>2014-06-07T09:07:10Z</time>
      </trkpt>
      <trkpt lat="45.90649" lon="4.69819">
        <ele>241.46072387695</ele>
        <time>2014-06-07T09:07:11Z</time>
      </trkpt>
      <trkpt lat="45.90659" lon="4.69826">
        <ele>240.69152832031</ele>
        <time>2014-06-07T09:07:14Z</time>
      </trkpt>
      <trkpt lat="45.90666" lon="4.69828">
        <ele>240.28298950195</ele>
        <time>2014-06-07T09:07:16Z</time>
      </trkpt>
      <trkpt lat="45.90674" lon="4.69829">
        <ele>240.23150634766</ele>
        <time>2014-06-07T09:07:18Z</time>
      </trkpt>
      <trkpt lat="45.90686" lon="4.69832">
        <ele>240.07586669922</ele>
        <time>2014-06-07T09:07:21Z</time>
      </trkpt>
      <trkpt lat="45.90691" lon="4.6984">
        <ele>239.51382446289</ele>
        <time>2014-06-07T09:07:23Z</time>
      </trkpt>
      <trkpt lat="45.90693" lon="4.69846">
        <ele>239.12609863281</ele>
        <time>2014-06-07T09:07:24Z</time>
      </trkpt>
      <trkpt lat="45.90695" lon="4.69862">
        <ele>238.03863525391</ele>
        <time>2014-06-07T09:07:27Z</time>
      </trkpt>
      <trkpt lat="45.90695" lon="4.69867">
        <ele>237.68576049805</ele>
        <time>2014-06-07T09:07:28Z</time>
      </trkpt>
      <trkpt lat="45.90697" lon="4.69879">
        <ele>236.91879272461</ele>
        <time>2014-06-07T09:07:30Z</time>
      </trkpt>
      <trkpt lat="45.90696" lon="4.6989">
        <ele>236.15089416504</ele>
        <time>2014-06-07T09:07:32Z</time>
      </trkpt>
      <trkpt lat="45.90701" lon="4.69903">
        <ele>235.34407043457</ele>
        <time>2014-06-07T09:07:35Z</time>
      </trkpt>
      <trkpt lat="45.90703" lon="4.69906">
        <ele>235.18237304688</ele>
        <time>2014-06-07T09:07:36Z</time>
      </trkpt>
      <trkpt lat="45.90706" lon="4.69907">
        <ele>235.12240600586</ele>
        <time>2014-06-07T09:07:37Z</time>
      </trkpt>
      <trkpt lat="45.90717" lon="4.69907">
        <ele>235.20988464356</ele>
        <time>2014-06-07T09:07:40Z</time>
      </trkpt>
      <trkpt lat="45.9072" lon="4.69907">
        <ele>235.27613830566</ele>
        <time>2014-06-07T09:07:41Z</time>
      </trkpt>
      <trkpt lat="45.90734" lon="4.69904">
        <ele>235.6104888916</ele>
        <time>2014-06-07T09:07:45Z</time>
      </trkpt>
      <trkpt lat="45.90752" lon="4.699">
        <ele>236.03387451172</ele>
        <time>2014-06-07T09:07:51Z</time>
      </trkpt>
      <trkpt lat="45.90755" lon="4.69899">
        <ele>236.12350463867</ele>
        <time>2014-06-07T09:07:52Z</time>
      </trkpt>
      <trkpt lat="45.90769" lon="4.69897">
        <ele>236.55824279785</ele>
        <time>2014-06-07T09:07:57Z</time>
      </trkpt>
      <trkpt lat="45.90781" lon="4.69896">
        <ele>236.89846801758</ele>
        <time>2014-06-07T09:08:01Z</time>
      </trkpt>
      <trkpt lat="45.90784" lon="4.69896">
        <ele>236.98735046387</ele>
        <time>2014-06-07T09:08:02Z</time>
      </trkpt>
      <trkpt lat="45.9079" lon="4.69896">
        <ele>237.11534118652</ele>
        <time>2014-06-07T09:08:04Z</time>
      </trkpt>
      <trkpt lat="45.908" lon="4.69895">
        <ele>237.41870117188</ele>
        <time>2014-06-07T09:08:07Z</time>
      </trkpt>
      <trkpt lat="45.90812" lon="4.69894">
        <ele>237.69868469238</ele>
        <time>2014-06-07T09:08:11Z</time>
      </trkpt>
      <trkpt lat="45.90816" lon="4.69894">
        <ele>237.79847717285</ele>
        <time>2014-06-07T09:08:12Z</time>
      </trkpt>
      <trkpt lat="45.90822" lon="4.69893">
        <ele>237.98809814453</ele>
        <time>2014-06-07T09:08:14Z</time>
      </trkpt>
      <trkpt lat="45.90837" lon="4.69893">
        <ele>238.32090759277</ele>
        <time>2014-06-07T09:08:18Z</time>
      </trkpt>
      <trkpt lat="45.90851" lon="4.69896">
        <ele>238.35792541504</ele>
        <time>2014-06-07T09:08:22Z</time>
      </trkpt>
      <trkpt lat="45.90857" lon="4.69899">
        <ele>238.16447448731</ele>
        <time>2014-06-07T09:08:24Z</time>
      </trkpt>
      <trkpt lat="45.90868" lon="4.69906">
        <ele>237.76837158203</ele>
        <time>2014-06-07T09:08:28Z</time>
      </trkpt>
      <trkpt lat="45.90879" lon="4.69911">
        <ele>237.62088012695</ele>
        <time>2014-06-07T09:08:31Z</time>
      </trkpt>
      <trkpt lat="45.90889" lon="4.69913">
        <ele>237.64077758789</ele>
        <time>2014-06-07T09:08:34Z</time>
      </trkpt>
      <trkpt lat="45.90906" lon="4.69915">
        <ele>237.85661315918</ele>
        <time>2014-06-07T09:08:39Z</time>
      </trkpt>
      <trkpt lat="45.90914" lon="4.69916">
        <ele>237.98597717285</ele>
        <time>2014-06-07T09:08:41Z</time>
      </trkpt>
      <trkpt lat="45.90932" lon="4.69917">
        <ele>237.20452880859</ele>
        <time>2014-06-07T09:08:46Z</time>
      </trkpt>
      <trkpt lat="45.90936" lon="4.69917">
        <ele>237.02191162109</ele>
        <time>2014-06-07T09:08:47Z</time>
      </trkpt>
      <trkpt lat="45.90957" lon="4.69918">
        <ele>235.94287109375</ele>
        <time>2014-06-07T09:08:53Z</time>
      </trkpt>
      <trkpt lat="45.9096" lon="4.69918">
        <ele>235.79051208496</ele>
        <time>2014-06-07T09:08:54Z</time>
      </trkpt>
      <trkpt lat="45.90979" lon="4.69919">
        <ele>234.75115966797</ele>
        <time>2014-06-07T09:08:59Z</time>
      </trkpt>
      <trkpt lat="45.90983" lon="4.69919">
        <ele>234.55909729004</ele>
        <time>2014-06-07T09:09:00Z</time>
      </trkpt>
      <trkpt lat="45.90997" lon="4.69917">
        <ele>234.10440063477</ele>
        <time>2014-06-07T09:09:04Z</time>
      </trkpt>
      <trkpt lat="45.91005" lon="4.69916">
        <ele>233.98034667969</ele>
        <time>2014-06-07T09:09:06Z</time>
      </trkpt>
      <trkpt lat="45.91023" lon="4.69918">
        <ele>233.58811950684</ele>
        <time>2014-06-07T09:09:11Z</time>
      </trkpt>
      <trkpt lat="45.9103" lon="4.6992">
        <ele>233.31698608398</ele>
        <time>2014-06-07T09:09:13Z</time>
      </trkpt>
      <trkpt lat="45.9104" lon="4.69923">
        <ele>232.95088195801</ele>
        <time>2014-06-07T09:09:16Z</time>
      </trkpt>
      <trkpt lat="45.91043" lon="4.69925">
        <ele>232.78480529785</ele>
        <time>2014-06-07T09:09:17Z</time>
      </trkpt>
      <trkpt lat="45.91055" lon="4.69931">
        <ele>232.20536804199</ele>
        <time>2014-06-07T09:09:21Z</time>
      </trkpt>
      <trkpt lat="45.91065" lon="4.69937">
        <ele>231.6688079834</ele>
        <time>2014-06-07T09:09:24Z</time>
      </trkpt>
      <trkpt lat="45.91069" lon="4.69945">
        <ele>231.01843261719</ele>
        <time>2014-06-07T09:09:26Z</time>
      </trkpt>
      <trkpt lat="45.9107" lon="4.69966">
        <ele>229.44839477539</ele>
        <time>2014-06-07T09:09:30Z</time>
      </trkpt>
      <trkpt lat="45.91069" lon="4.69971">
        <ele>229.03302001953</ele>
        <time>2014-06-07T09:09:31Z</time>
      </trkpt>
      <trkpt lat="45.91069" lon="4.69981">
        <ele>228.28283691406</ele>
        <time>2014-06-07T09:09:33Z</time>
      </trkpt>
      <trkpt lat="45.91069" lon="4.69991">
        <ele>227.51950073242</ele>
        <time>2014-06-07T09:09:35Z</time>
      </trkpt>
      <trkpt lat="45.91068" lon="4.70007">
        <ele>226.43003845215</ele>
        <time>2014-06-07T09:09:38Z</time>
      </trkpt>
      <trkpt lat="45.91066" lon="4.70016">
        <ele>225.85057067871</ele>
        <time>2014-06-07T09:09:40Z</time>
      </trkpt>
      <trkpt lat="45.91064" lon="4.70028">
        <ele>225.19578552246</ele>
        <time>2014-06-07T09:09:42Z</time>
      </trkpt>
      <trkpt lat="45.91063" lon="4.70037">
        <ele>224.62283325195</ele>
        <time>2014-06-07T09:09:44Z</time>
      </trkpt>
      <trkpt lat="45.91061" lon="4.70058">
        <ele>223.46357727051</ele>
        <time>2014-06-07T09:09:48Z</time>
      </trkpt>
      <trkpt lat="45.9106" lon="4.70063">
        <ele>223.17839050293</ele>
        <time>2014-06-07T09:09:49Z</time>
      </trkpt>
      <trkpt lat="45.91059" lon="4.70082">
        <ele>222.08891296387</ele>
        <time>2014-06-07T09:09:53Z</time>
      </trkpt>
      <trkpt lat="45.91058" lon="4.70088">
        <ele>221.73298645019</ele>
        <time>2014-06-07T09:09:54Z</time>
      </trkpt>
      <trkpt lat="45.91057" lon="4.70103">
        <ele>220.76460266113</ele>
        <time>2014-06-07T09:09:57Z</time>
      </trkpt>
      <trkpt lat="45.91059" lon="4.70118">
        <ele>219.78901672363</ele>
        <time>2014-06-07T09:10:00Z</time>
      </trkpt>
      <trkpt lat="45.91061" lon="4.70123">
        <ele>219.46731567383</ele>
        <time>2014-06-07T09:10:01Z</time>
      </trkpt>
      <trkpt lat="45.91069" lon="4.70139">
        <ele>218.52890014648</ele>
        <time>2014-06-07T09:10:05Z</time>
      </trkpt>
      <trkpt lat="45.91073" lon="4.70142">
        <ele>218.3953704834</ele>
        <time>2014-06-07T09:10:06Z</time>
      </trkpt>
      <trkpt lat="45.91079" lon="4.70145">
        <ele>218.25607299805</ele>
        <time>2014-06-07T09:10:08Z</time>
      </trkpt>
      <trkpt lat="45.91091" lon="4.70145">
        <ele>218.25743103027</ele>
        <time>2014-06-07T09:10:11Z</time>
      </trkpt>
      <trkpt lat="45.91099" lon="4.70145">
        <ele>218.19105529785</ele>
        <time>2014-06-07T09:10:13Z</time>
      </trkpt>
      <trkpt lat="45.91119" lon="4.70145">
        <ele>218.08042907715</ele>
        <time>2014-06-07T09:10:18Z</time>
      </trkpt>
      <trkpt lat="45.91134" lon="4.70138">
        <ele>218.30152893066</ele>
        <time>2014-06-07T09:10:22Z</time>
      </trkpt>
      <trkpt lat="45.91137" lon="4.70136">
        <ele>218.35618591309</ele>
        <time>2014-06-07T09:10:23Z</time>
      </trkpt>
      <trkpt lat="45.91149" lon="4.70129">
        <ele>218.52993774414</ele>
        <time>2014-06-07T09:10:27Z</time>
      </trkpt>
      <trkpt lat="45.91167" lon="4.70124">
        <ele>218.55264282227</ele>
        <time>2014-06-07T09:10:32Z</time>
      </trkpt>
      <trkpt lat="45.91187" lon="4.70118">
        <ele>218.87455749512</ele>
        <time>2014-06-07T09:10:37Z</time>
      </trkpt>
      <trkpt lat="45.9119" lon="4.70119">
        <ele>218.89166259766</ele>
        <time>2014-06-07T09:10:38Z</time>
      </trkpt>
      <trkpt lat="45.91201" lon="4.70118">
        <ele>218.97593688965</ele>
        <time>2014-06-07T09:10:41Z</time>
      </trkpt>
      <trkpt lat="45.91219" lon="4.70117">
        <ele>219.15376281738</ele>
        <time>2014-06-07T09:10:46Z</time>
      </trkpt>
      <trkpt lat="45.91238" lon="4.70115">
        <ele>219.36628723144</ele>
        <time>2014-06-07T09:10:51Z</time>
      </trkpt>
      <trkpt lat="45.91247" lon="4.70114">
        <ele>219.51147460938</ele>
        <time>2014-06-07T09:10:54Z</time>
      </trkpt>
      <trkpt lat="45.91265" lon="4.70115">
        <ele>219.8291015625</ele>
        <time>2014-06-07T09:10:59Z</time>
      </trkpt>
      <trkpt lat="45.91277" lon="4.70117">
        <ele>220.05340576172</ele>
        <time>2014-06-07T09:11:03Z</time>
      </trkpt>
      <trkpt lat="45.91287" lon="4.70118">
        <ele>220.21362304688</ele>
        <time>2014-06-07T09:11:07Z</time>
      </trkpt>
      <trkpt lat="45.91293" lon="4.70121">
        <ele>220.23651123047</ele>
        <time>2014-06-07T09:11:09Z</time>
      </trkpt>
      <trkpt lat="45.91299" lon="4.70125">
        <ele>220.14953613281</ele>
        <time>2014-06-07T09:11:11Z</time>
      </trkpt>
      <trkpt lat="45.91315" lon="4.7013">
        <ele>220.33950805664</ele>
        <time>2014-06-07T09:11:15Z</time>
      </trkpt>
      <trkpt lat="45.91331" lon="4.70129">
        <ele>220.76293945312</ele>
        <time>2014-06-07T09:11:20Z</time>
      </trkpt>
      <trkpt lat="45.9135" lon="4.70125">
        <ele>221.01139831543</ele>
        <time>2014-06-07T09:11:26Z</time>
      </trkpt>
      <trkpt lat="45.91352" lon="4.70125">
        <ele>221.00874328613</ele>
        <time>2014-06-07T09:11:27Z</time>
      </trkpt>
      <trkpt lat="45.91363" lon="4.70123">
        <ele>221.1780090332</ele>
        <time>2014-06-07T09:11:31Z</time>
      </trkpt>
      <trkpt lat="45.91368" lon="4.70121">
        <ele>221.32550048828</ele>
        <time>2014-06-07T09:11:33Z</time>
      </trkpt>
      <trkpt lat="45.91372" lon="4.70117">
        <ele>221.6251373291</ele>
        <time>2014-06-07T09:11:35Z</time>
      </trkpt>
      <trkpt lat="45.91383" lon="4.70114">
        <ele>221.98750305176</ele>
        <time>2014-06-07T09:11:38Z</time>
      </trkpt>
      <trkpt lat="45.91391" lon="4.70113">
        <ele>222.13732910156</ele>
        <time>2014-06-07T09:11:40Z</time>
      </trkpt>
      <trkpt lat="45.91397" lon="4.70111">
        <ele>222.47863769531</ele>
        <time>2014-06-07T09:11:42Z</time>
      </trkpt>
      <trkpt lat="45.91413" lon="4.70105">
        <ele>223.37548828125</ele>
        <time>2014-06-07T09:11:46Z</time>
      </trkpt>
      <trkpt lat="45.9143" lon="4.70101">
        <ele>223.8669128418</ele>
        <time>2014-06-07T09:11:51Z</time>
      </trkpt>
      <trkpt lat="45.91441" lon="4.701">
        <ele>223.88963317871</ele>
        <time>2014-06-07T09:11:54Z</time>
      </trkpt>
      <trkpt lat="45.91447" lon="4.70098">
        <ele>224.0382232666</ele>
        <time>2014-06-07T09:11:56Z</time>
      </trkpt>
      <trkpt lat="45.91454" lon="4.70097">
        <ele>224.11349487305</ele>
        <time>2014-06-07T09:11:58Z</time>
      </trkpt>
      <trkpt lat="45.9146" lon="4.70095">
        <ele>224.26509094238</ele>
        <time>2014-06-07T09:12:00Z</time>
      </trkpt>
      <trkpt lat="45.91473" lon="4.70093">
        <ele>224.40104675293</ele>
        <time>2014-06-07T09:12:04Z</time>
      </trkpt>
      <trkpt lat="45.91476" lon="4.70092">
        <ele>224.46730041504</ele>
        <time>2014-06-07T09:12:05Z</time>
      </trkpt>
      <trkpt lat="45.91494" lon="4.70085">
        <ele>224.88633728027</ele>
        <time>2014-06-07T09:12:11Z</time>
      </trkpt>
      <trkpt lat="45.91512" lon="4.70083">
        <ele>225.57647705078</ele>
        <time>2014-06-07T09:12:16Z</time>
      </trkpt>
      <trkpt lat="45.91518" lon="4.70081">
        <ele>226.09092712402</ele>
        <time>2014-06-07T09:12:18Z</time>
      </trkpt>
      <trkpt lat="45.91529" lon="4.7008">
        <ele>226.75643920898</ele>
        <time>2014-06-07T09:12:21Z</time>
      </trkpt>
      <trkpt lat="45.91536" lon="4.7008">
        <ele>227.08520507812</ele>
        <time>2014-06-07T09:12:23Z</time>
      </trkpt>
      <trkpt lat="45.91549" lon="4.70078">
        <ele>227.89389038086</ele>
        <time>2014-06-07T09:12:27Z</time>
      </trkpt>
      <trkpt lat="45.91569" lon="4.70077">
        <ele>229.13946533203</ele>
        <time>2014-06-07T09:12:33Z</time>
      </trkpt>
      <trkpt lat="45.9159" lon="4.70074">
        <ele>230.29080200195</ele>
        <time>2014-06-07T09:12:39Z</time>
      </trkpt>
      <trkpt lat="45.91594" lon="4.70074">
        <ele>230.39399719238</ele>
        <time>2014-06-07T09:12:40Z</time>
      </trkpt>
      <trkpt lat="45.91603" lon="4.70072">
        <ele>230.67401123047</ele>
        <time>2014-06-07T09:12:43Z</time>
      </trkpt>
      <trkpt lat="45.91618" lon="4.7007">
        <ele>231.0185546875</ele>
        <time>2014-06-07T09:12:47Z</time>
      </trkpt>
      <trkpt lat="45.91634" lon="4.70067">
        <ele>231.54788208008</ele>
        <time>2014-06-07T09:12:52Z</time>
      </trkpt>
      <trkpt lat="45.91638" lon="4.70066">
        <ele>231.65310668945</ele>
        <time>2014-06-07T09:12:53Z</time>
      </trkpt>
      <trkpt lat="45.91647" lon="4.70063">
        <ele>232.12467956543</ele>
        <time>2014-06-07T09:12:56Z</time>
      </trkpt>
      <trkpt lat="45.9165" lon="4.70058">
        <ele>232.65270996094</ele>
        <time>2014-06-07T09:12:58Z</time>
      </trkpt>
      <trkpt lat="45.91653" lon="4.70052">
        <ele>233.39643859863</ele>
        <time>2014-06-07T09:13:00Z</time>
      </trkpt>
      <trkpt lat="45.91654" lon="4.70037">
        <ele>235.05451965332</ele>
        <time>2014-06-07T09:13:05Z</time>
      </trkpt>
      <trkpt lat="45.91653" lon="4.70033">
        <ele>235.43063354492</ele>
        <time>2014-06-07T09:13:06Z</time>
      </trkpt>
      <trkpt lat="45.91647" lon="4.70022">
        <ele>236.74198913574</ele>
        <time>2014-06-07T09:13:10Z</time>
      </trkpt>
      <trkpt lat="45.91645" lon="4.70019">
        <ele>237.05320739746</ele>
        <time>2014-06-07T09:13:11Z</time>
      </trkpt>
      <trkpt lat="45.91641" lon="4.70009">
        <ele>238.23504638672</ele>
        <time>2014-06-07T09:13:14Z</time>
      </trkpt>
      <trkpt lat="45.91637" lon="4.70001">
        <ele>239.28100585938</ele>
        <time>2014-06-07T09:13:17Z</time>
      </trkpt>
      <trkpt lat="45.91636" lon="4.69998">
        <ele>239.52169799805</ele>
        <time>2014-06-07T09:13:18Z</time>
      </trkpt>
      <trkpt lat="45.91631" lon="4.69987">
        <ele>240.33537292481</ele>
        <time>2014-06-07T09:13:21Z</time>
      </trkpt>
      <trkpt lat="45.9163" lon="4.69985">
        <ele>240.54937744141</ele>
        <time>2014-06-07T09:13:22Z</time>
      </trkpt>
      <trkpt lat="45.91622" lon="4.69968">
        <ele>241.8231048584</ele>
        <time>2014-06-07T09:13:27Z</time>
      </trkpt>
      <trkpt lat="45.91616" lon="4.69958">
        <ele>242.65966796875</ele>
        <time>2014-06-07T09:13:30Z</time>
      </trkpt>
      <trkpt lat="45.91611" lon="4.69947">
        <ele>243.51683044434</ele>
        <time>2014-06-07T09:13:33Z</time>
      </trkpt>
      <trkpt lat="45.9161" lon="4.69943">
        <ele>243.77546691894</ele>
        <time>2014-06-07T09:13:34Z</time>
      </trkpt>
      <trkpt lat="45.91601" lon="4.69921">
        <ele>245.44515991211</ele>
        <time>2014-06-07T09:13:40Z</time>
      </trkpt>
      <trkpt lat="45.916" lon="4.69918">
        <ele>245.68663024902</ele>
        <time>2014-06-07T09:13:41Z</time>
      </trkpt>
      <trkpt lat="45.91593" lon="4.69898">
        <ele>246.84060668945</ele>
        <time>2014-06-07T09:13:46Z</time>
      </trkpt>
      <trkpt lat="45.91591" lon="4.6989">
        <ele>247.27033996582</ele>
        <time>2014-06-07T09:13:48Z</time>
      </trkpt>
      <trkpt lat="45.91587" lon="4.69875">
        <ele>248.00100708008</ele>
        <time>2014-06-07T09:13:52Z</time>
      </trkpt>
      <trkpt lat="45.91585" lon="4.69855">
        <ele>248.97633361816</ele>
        <time>2014-06-07T09:13:57Z</time>
      </trkpt>
      <trkpt lat="45.91584" lon="4.69838">
        <ele>249.77345275879</ele>
        <time>2014-06-07T09:14:01Z</time>
      </trkpt>
      <trkpt lat="45.91583" lon="4.69821">
        <ele>250.86093139648</ele>
        <time>2014-06-07T09:14:05Z</time>
      </trkpt>
      <trkpt lat="45.91583" lon="4.69798">
        <ele>252.52758789062</ele>
        <time>2014-06-07T09:14:11Z</time>
      </trkpt>
      <trkpt lat="45.91583" lon="4.69794">
        <ele>252.84028625488</ele>
        <time>2014-06-07T09:14:12Z</time>
      </trkpt>
      <trkpt lat="45.91584" lon="4.69787">
        <ele>253.35935974121</ele>
        <time>2014-06-07T09:14:14Z</time>
      </trkpt>
      <trkpt lat="45.91582" lon="4.69776">
        <ele>254.15362548828</ele>
        <time>2014-06-07T09:14:17Z</time>
      </trkpt>
      <trkpt lat="45.9158" lon="4.69772">
        <ele>254.39880371094</ele>
        <time>2014-06-07T09:14:18Z</time>
      </trkpt>
      <trkpt lat="45.91575" lon="4.69761">
        <ele>255.22381591797</ele>
        <time>2014-06-07T09:14:21Z</time>
      </trkpt>
      <trkpt lat="45.91575" lon="4.69757">
        <ele>255.49594116211</ele>
        <time>2014-06-07T09:14:22Z</time>
      </trkpt>
      <trkpt lat="45.91573" lon="4.6975">
        <ele>255.97378540039</ele>
        <time>2014-06-07T09:14:24Z</time>
      </trkpt>
      <trkpt lat="45.91571" lon="4.69747">
        <ele>256.19876098633</ele>
        <time>2014-06-07T09:14:25Z</time>
      </trkpt>
      <trkpt lat="45.9157" lon="4.69743">
        <ele>256.37799072266</ele>
        <time>2014-06-07T09:14:26Z</time>
      </trkpt>
      <trkpt lat="45.9157" lon="4.6974">
        <ele>256.56350708008</ele>
        <time>2014-06-07T09:14:27Z</time>
      </trkpt>
      <trkpt lat="45.91566" lon="4.69734">
        <ele>256.93206787109</ele>
        <time>2014-06-07T09:14:29Z</time>
      </trkpt>
      <trkpt lat="45.91565" lon="4.69731">
        <ele>257.08984375</ele>
        <time>2014-06-07T09:14:30Z</time>
      </trkpt>
      <trkpt lat="45.91562" lon="4.6972">
        <ele>257.71817016602</ele>
        <time>2014-06-07T09:14:33Z</time>
      </trkpt>
      <trkpt lat="45.91562" lon="4.69716">
        <ele>257.9436340332</ele>
        <time>2014-06-07T09:14:34Z</time>
      </trkpt>
      <trkpt lat="45.91563" lon="4.69704">
        <ele>258.60894775391</ele>
        <time>2014-06-07T09:14:37Z</time>
      </trkpt>
      <trkpt lat="45.91564" lon="4.69697">
        <ele>259.02008056641</ele>
        <time>2014-06-07T09:14:39Z</time>
      </trkpt>
      <trkpt lat="45.91567" lon="4.69683">
        <ele>259.88232421875</ele>
        <time>2014-06-07T09:14:43Z</time>
      </trkpt>
      <trkpt lat="45.9157" lon="4.69675">
        <ele>260.34432983398</ele>
        <time>2014-06-07T09:14:45Z</time>
      </trkpt>
      <trkpt lat="45.91572" lon="4.69664">
        <ele>261.00518798828</ele>
        <time>2014-06-07T09:14:48Z</time>
      </trkpt>
      <trkpt lat="45.91578" lon="4.69651">
        <ele>261.84365844727</ele>
        <time>2014-06-07T09:14:52Z</time>
      </trkpt>
      <trkpt lat="45.91589" lon="4.69635">
        <ele>263.02236938477</ele>
        <time>2014-06-07T09:14:57Z</time>
      </trkpt>
      <trkpt lat="45.91591" lon="4.69632">
        <ele>263.25491333008</ele>
        <time>2014-06-07T09:14:58Z</time>
      </trkpt>
      <trkpt lat="45.91602" lon="4.69619">
        <ele>264.361328125</ele>
        <time>2014-06-07T09:15:03Z</time>
      </trkpt>
      <trkpt lat="45.91608" lon="4.69611">
        <ele>265.10070800781</ele>
        <time>2014-06-07T09:15:06Z</time>
      </trkpt>
      <trkpt lat="45.9161" lon="4.69609">
        <ele>265.32821655273</ele>
        <time>2014-06-07T09:15:07Z</time>
      </trkpt>
      <trkpt lat="45.91616" lon="4.69602">
        <ele>266.12347412109</ele>
        <time>2014-06-07T09:15:10Z</time>
      </trkpt>
      <trkpt lat="45.91624" lon="4.69593">
        <ele>267.12475585938</ele>
        <time>2014-06-07T09:15:13Z</time>
      </trkpt>
      <trkpt lat="45.91629" lon="4.69588">
        <ele>267.75326538086</ele>
        <time>2014-06-07T09:15:15Z</time>
      </trkpt>
      <trkpt lat="45.91639" lon="4.69578">
        <ele>268.92181396484</ele>
        <time>2014-06-07T09:15:19Z</time>
      </trkpt>
      <trkpt lat="45.91641" lon="4.69576">
        <ele>269.1552734375</ele>
        <time>2014-06-07T09:15:20Z</time>
      </trkpt>
      <trkpt lat="45.9165" lon="4.69565">
        <ele>270.10284423828</ele>
        <time>2014-06-07T09:15:24Z</time>
      </trkpt>
      <trkpt lat="45.91653" lon="4.69562">
        <ele>270.36605834961</ele>
        <time>2014-06-07T09:15:25Z</time>
      </trkpt>
      <trkpt lat="45.91665" lon="4.6955">
        <ele>271.53335571289</ele>
        <time>2014-06-07T09:15:30Z</time>
      </trkpt>
      <trkpt lat="45.91678" lon="4.69532">
        <ele>272.42199707031</ele>
        <time>2014-06-07T09:15:36Z</time>
      </trkpt>
      <trkpt lat="45.9168" lon="4.69529">
        <ele>272.61581420898</ele>
        <time>2014-06-07T09:15:37Z</time>
      </trkpt>
      <trkpt lat="45.91689" lon="4.69517">
        <ele>273.27978515625</ele>
        <time>2014-06-07T09:15:41Z</time>
      </trkpt>
      <trkpt lat="45.91693" lon="4.69511">
        <ele>273.64477539062</ele>
        <time>2014-06-07T09:15:43Z</time>
      </trkpt>
      <trkpt lat="45.917" lon="4.69502">
        <ele>274.26654052734</ele>
        <time>2014-06-07T09:15:46Z</time>
      </trkpt>
      <trkpt lat="45.9171" lon="4.6949">
        <ele>275.12545776367</ele>
        <time>2014-06-07T09:15:50Z</time>
      </trkpt>
      <trkpt lat="45.91716" lon="4.69486">
        <ele>275.42929077148</ele>
        <time>2014-06-07T09:15:52Z</time>
      </trkpt>
      <trkpt lat="45.91728" lon="4.69488">
        <ele>275.43099975586</ele>
        <time>2014-06-07T09:15:56Z</time>
      </trkpt>
      <trkpt lat="45.91731" lon="4.69489">
        <ele>275.44473266602</ele>
        <time>2014-06-07T09:15:57Z</time>
      </trkpt>
      <trkpt lat="45.91743" lon="4.69494">
        <ele>275.28909301758</ele>
        <time>2014-06-07T09:16:01Z</time>
      </trkpt>
      <trkpt lat="45.91762" lon="4.69499">
        <ele>275.04425048828</ele>
        <time>2014-06-07T09:16:07Z</time>
      </trkpt>
      <trkpt lat="45.91774" lon="4.69493">
        <ele>275.49655151367</ele>
        <time>2014-06-07T09:16:11Z</time>
      </trkpt>
      <trkpt lat="45.91782" lon="4.6948">
        <ele>276.39270019531</ele>
        <time>2014-06-07T09:16:15Z</time>
      </trkpt>
      <trkpt lat="45.91787" lon="4.69472">
        <ele>277.01293945312</ele>
        <time>2014-06-07T09:16:18Z</time>
      </trkpt>
      <trkpt lat="45.91793" lon="4.69463">
        <ele>277.66110229492</ele>
        <time>2014-06-07T09:16:21Z</time>
      </trkpt>
      <trkpt lat="45.918" lon="4.69456">
        <ele>278.25454711914</ele>
        <time>2014-06-07T09:16:24Z</time>
      </trkpt>
      <trkpt lat="45.91804" lon="4.69451">
        <ele>278.70571899414</ele>
        <time>2014-06-07T09:16:26Z</time>
      </trkpt>
      <trkpt lat="45.91811" lon="4.69444">
        <ele>279.34204101562</ele>
        <time>2014-06-07T09:16:29Z</time>
      </trkpt>
      <trkpt lat="45.91815" lon="4.69438">
        <ele>279.86669921875</ele>
        <time>2014-06-07T09:16:31Z</time>
      </trkpt>
      <trkpt lat="45.91826" lon="4.69425">
        <ele>281.12222290039</ele>
        <time>2014-06-07T09:16:36Z</time>
      </trkpt>
      <trkpt lat="45.91828" lon="4.69422">
        <ele>281.42727661133</ele>
        <time>2014-06-07T09:16:37Z</time>
      </trkpt>
      <trkpt lat="45.91838" lon="4.69409">
        <ele>283.30212402344</ele>
        <time>2014-06-07T09:16:42Z</time>
      </trkpt>
      <trkpt lat="45.91843" lon="4.69401">
        <ele>284.73150634766</ele>
        <time>2014-06-07T09:16:45Z</time>
      </trkpt>
      <trkpt lat="45.91846" lon="4.69396">
        <ele>285.64758300781</ele>
        <time>2014-06-07T09:16:47Z</time>
      </trkpt>
      <trkpt lat="45.9185" lon="4.69391">
        <ele>286.61291503906</ele>
        <time>2014-06-07T09:16:49Z</time>
      </trkpt>
      <trkpt lat="45.91856" lon="4.69387">
        <ele>287.45690917969</ele>
        <time>2014-06-07T09:16:51Z</time>
      </trkpt>
      <trkpt lat="45.91859" lon="4.69386">
        <ele>287.80880737305</ele>
        <time>2014-06-07T09:16:52Z</time>
      </trkpt>
      <trkpt lat="45.91867" lon="4.69388">
        <ele>288.19046020508</ele>
        <time>2014-06-07T09:16:55Z</time>
      </trkpt>
      <trkpt lat="45.91869" lon="4.69389">
        <ele>288.216796875</ele>
        <time>2014-06-07T09:16:56Z</time>
      </trkpt>
      <trkpt lat="45.91884" lon="4.69395">
        <ele>288.57897949219</ele>
        <time>2014-06-07T09:17:02Z</time>
      </trkpt>
      <trkpt lat="45.91887" lon="4.69396">
        <ele>288.54867553711</ele>
        <time>2014-06-07T09:17:03Z</time>
      </trkpt>
      <trkpt lat="45.91896" lon="4.69393">
        <ele>289.57290649414</ele>
        <time>2014-06-07T09:17:07Z</time>
      </trkpt>
      <trkpt lat="45.91898" lon="4.69379">
        <ele>291.56704711914</ele>
        <time>2014-06-07T09:17:11Z</time>
      </trkpt>
      <trkpt lat="45.919" lon="4.69362">
        <ele>294.02294921875</ele>
        <time>2014-06-07T09:17:16Z</time>
      </trkpt>
      <trkpt lat="45.91901" lon="4.69347">
        <ele>296.10290527344</ele>
        <time>2014-06-07T09:17:21Z</time>
      </trkpt>
      <trkpt lat="45.91903" lon="4.69335">
        <ele>297.81781005859</ele>
        <time>2014-06-07T09:17:25Z</time>
      </trkpt>
      <trkpt lat="45.91902" lon="4.69333">
        <ele>298.10720825195</ele>
        <time>2014-06-07T09:17:26Z</time>
      </trkpt>
      <trkpt lat="45.91901" lon="4.69328">
        <ele>298.80361938477</ele>
        <time>2014-06-07T09:17:27Z</time>
      </trkpt>
      <trkpt lat="45.91891" lon="4.69316">
        <ele>300.47512817383</ele>
        <time>2014-06-07T09:17:31Z</time>
      </trkpt>
      <trkpt lat="45.91879" lon="4.69302">
        <ele>302.44348144531</ele>
        <time>2014-06-07T09:17:36Z</time>
      </trkpt>
      <trkpt lat="45.91875" lon="4.69299">
        <ele>302.73101806641</ele>
        <time>2014-06-07T09:17:37Z</time>
      </trkpt>
      <trkpt lat="45.91861" lon="4.69288">
        <ele>303.95843505859</ele>
        <time>2014-06-07T09:17:42Z</time>
      </trkpt>
      <trkpt lat="45.91858" lon="4.69286">
        <ele>304.21343994141</ele>
        <time>2014-06-07T09:17:43Z</time>
      </trkpt>
      <trkpt lat="45.91848" lon="4.69277">
        <ele>305.34176635742</ele>
        <time>2014-06-07T09:17:47Z</time>
      </trkpt>
      <trkpt lat="45.91834" lon="4.69264">
        <ele>307.17153930664</ele>
        <time>2014-06-07T09:17:53Z</time>
      </trkpt>
      <trkpt lat="45.91832" lon="4.69262">
        <ele>307.37521362305</ele>
        <time>2014-06-07T09:17:54Z</time>
      </trkpt>
      <trkpt lat="45.91829" lon="4.69259">
        <ele>307.59103393555</ele>
        <time>2014-06-07T09:17:55Z</time>
      </trkpt>
      <trkpt lat="45.9182" lon="4.69251">
        <ele>308.12857055664</ele>
        <time>2014-06-07T09:17:59Z</time>
      </trkpt>
      <trkpt lat="45.91817" lon="4.69249">
        <ele>308.40283203125</ele>
        <time>2014-06-07T09:18:00Z</time>
      </trkpt>
      <trkpt lat="45.91817" lon="4.69249">
        <ele>308.40283203125</ele>
        <time>2014-06-07T09:18:00Z</time>
      </trkpt>
      <trkpt lat="45.91813" lon="4.69245">
        <ele>308.61090087891</ele>
        <time>2014-06-07T09:18:02Z</time>
      </trkpt>
      <trkpt lat="45.91805" lon="4.69238">
        <ele>309.09317016602</ele>
        <time>2014-06-07T09:18:05Z</time>
      </trkpt>
      <trkpt lat="45.91796" lon="4.6923">
        <ele>309.93359375</ele>
        <time>2014-06-07T09:18:09Z</time>
      </trkpt>
      <trkpt lat="45.91793" lon="4.69227">
        <ele>310.11187744141</ele>
        <time>2014-06-07T09:18:10Z</time>
      </trkpt>
      <trkpt lat="45.91784" lon="4.69219">
        <ele>310.94537353516</ele>
        <time>2014-06-07T09:18:14Z</time>
      </trkpt>
      <trkpt lat="45.91779" lon="4.69214">
        <ele>311.47332763672</ele>
        <time>2014-06-07T09:18:16Z</time>
      </trkpt>
      <trkpt lat="45.91773" lon="4.69207">
        <ele>312.2092590332</ele>
        <time>2014-06-07T09:18:19Z</time>
      </trkpt>
      <trkpt lat="45.9177" lon="4.69205">
        <ele>312.38787841797</ele>
        <time>2014-06-07T09:18:20Z</time>
      </trkpt>
      <trkpt lat="45.91762" lon="4.69196">
        <ele>313.63125610352</ele>
        <time>2014-06-07T09:18:24Z</time>
      </trkpt>
      <trkpt lat="45.91759" lon="4.69193">
        <ele>313.94027709961</ele>
        <time>2014-06-07T09:18:25Z</time>
      </trkpt>
      <trkpt lat="45.91751" lon="4.69183">
        <ele>315.27944946289</ele>
        <time>2014-06-07T09:18:29Z</time>
      </trkpt>
      <trkpt lat="45.9174" lon="4.69172">
        <ele>316.4970703125</ele>
        <time>2014-06-07T09:18:34Z</time>
      </trkpt>
      <trkpt lat="45.91739" lon="4.6917">
        <ele>316.64511108398</ele>
        <time>2014-06-07T09:18:35Z</time>
      </trkpt>
      <trkpt lat="45.9173" lon="4.6916">
        <ele>317.43545532227</ele>
        <time>2014-06-07T09:18:39Z</time>
      </trkpt>
      <trkpt lat="45.91727" lon="4.69158">
        <ele>317.59222412109</ele>
        <time>2014-06-07T09:18:40Z</time>
      </trkpt>
      <trkpt lat="45.91721" lon="4.69151">
        <ele>317.95556640625</ele>
        <time>2014-06-07T09:18:43Z</time>
      </trkpt>
      <trkpt lat="45.91717" lon="4.69146">
        <ele>318.50546264648</ele>
        <time>2014-06-07T09:18:45Z</time>
      </trkpt>
      <trkpt lat="45.9171" lon="4.69139">
        <ele>318.91403198242</ele>
        <time>2014-06-07T09:18:48Z</time>
      </trkpt>
      <trkpt lat="45.91706" lon="4.69134">
        <ele>319.26306152344</ele>
        <time>2014-06-07T09:18:50Z</time>
      </trkpt>
      <trkpt lat="45.917" lon="4.69128">
        <ele>319.69107055664</ele>
        <time>2014-06-07T09:18:53Z</time>
      </trkpt>
      <trkpt lat="45.91694" lon="4.69124">
        <ele>319.7780456543</ele>
        <time>2014-06-07T09:18:55Z</time>
      </trkpt>
      <trkpt lat="45.9169" lon="4.6912">
        <ele>319.82897949219</ele>
        <time>2014-06-07T09:18:57Z</time>
      </trkpt>
      <trkpt lat="45.91683" lon="4.69113">
        <ele>320.1826171875</ele>
        <time>2014-06-07T09:19:00Z</time>
      </trkpt>
      <trkpt lat="45.91681" lon="4.69112">
        <ele>320.22265625</ele>
        <time>2014-06-07T09:19:01Z</time>
      </trkpt>
      <trkpt lat="45.91672" lon="4.69102">
        <ele>320.9436340332</ele>
        <time>2014-06-07T09:19:05Z</time>
      </trkpt>
      <trkpt lat="45.91664" lon="4.69093">
        <ele>321.42471313477</ele>
        <time>2014-06-07T09:19:09Z</time>
      </trkpt>
      <trkpt lat="45.91659" lon="4.69088">
        <ele>321.58618164062</ele>
        <time>2014-06-07T09:19:11Z</time>
      </trkpt>
      <trkpt lat="45.91655" lon="4.69083">
        <ele>321.76998901367</ele>
        <time>2014-06-07T09:19:13Z</time>
      </trkpt>
      <trkpt lat="45.91647" lon="4.69074">
        <ele>321.77865600586</ele>
        <time>2014-06-07T09:19:17Z</time>
      </trkpt>
      <trkpt lat="45.91645" lon="4.6907">
        <ele>321.94152832031</ele>
        <time>2014-06-07T09:19:18Z</time>
      </trkpt>
      <trkpt lat="45.91638" lon="4.69059">
        <ele>322.30340576172</ele>
        <time>2014-06-07T09:19:22Z</time>
      </trkpt>
      <trkpt lat="45.91635" lon="4.69053">
        <ele>322.58932495117</ele>
        <time>2014-06-07T09:19:24Z</time>
      </trkpt>
      <trkpt lat="45.91628" lon="4.69042">
        <ele>322.85342407227</ele>
        <time>2014-06-07T09:19:28Z</time>
      </trkpt>
      <trkpt lat="45.91627" lon="4.69038">
        <ele>323.11627197266</ele>
        <time>2014-06-07T09:19:29Z</time>
      </trkpt>
      <trkpt lat="45.91624" lon="4.69028">
        <ele>323.98162841797</ele>
        <time>2014-06-07T09:19:32Z</time>
      </trkpt>
      <trkpt lat="45.91618" lon="4.69017">
        <ele>324.51284790039</ele>
        <time>2014-06-07T09:19:36Z</time>
      </trkpt>
      <trkpt lat="45.91617" lon="4.69013">
        <ele>324.8405456543</ele>
        <time>2014-06-07T09:19:37Z</time>
      </trkpt>
      <trkpt lat="45.91615" lon="4.69003">
        <ele>325.72409057617</ele>
        <time>2014-06-07T09:19:40Z</time>
      </trkpt>
      <trkpt lat="45.9161" lon="4.6899">
        <ele>326.68591308594</ele>
        <time>2014-06-07T09:19:44Z</time>
      </trkpt>
      <trkpt lat="45.91609" lon="4.68983">
        <ele>327.31985473633</ele>
        <time>2014-06-07T09:19:46Z</time>
      </trkpt>
      <trkpt lat="45.91605" lon="4.6897">
        <ele>328.58065795898</ele>
        <time>2014-06-07T09:19:50Z</time>
      </trkpt>
      <trkpt lat="45.91605" lon="4.68967">
        <ele>328.8818359375</ele>
        <time>2014-06-07T09:19:51Z</time>
      </trkpt>
      <trkpt lat="45.91603" lon="4.68959">
        <ele>329.69689941406</ele>
        <time>2014-06-07T09:19:53Z</time>
      </trkpt>
      <trkpt lat="45.91601" lon="4.68953">
        <ele>330.35552978516</ele>
        <time>2014-06-07T09:19:55Z</time>
      </trkpt>
      <trkpt lat="45.916" lon="4.6895">
        <ele>330.74935913086</ele>
        <time>2014-06-07T09:19:56Z</time>
      </trkpt>
      <trkpt lat="45.91597" lon="4.68936">
        <ele>332.33276367188</ele>
        <time>2014-06-07T09:20:00Z</time>
      </trkpt>
      <trkpt lat="45.91597" lon="4.68932">
        <ele>332.76071166992</ele>
        <time>2014-06-07T09:20:01Z</time>
      </trkpt>
      <trkpt lat="45.91595" lon="4.68926">
        <ele>333.4973449707</ele>
        <time>2014-06-07T09:20:03Z</time>
      </trkpt>
      <trkpt lat="45.91594" lon="4.68909">
        <ele>335.47543334961</ele>
        <time>2014-06-07T09:20:08Z</time>
      </trkpt>
      <trkpt lat="45.91594" lon="4.68905">
        <ele>335.84725952148</ele>
        <time>2014-06-07T09:20:09Z</time>
      </trkpt>
      <trkpt lat="45.91593" lon="4.68893">
        <ele>336.91131591797</ele>
        <time>2014-06-07T09:20:12Z</time>
      </trkpt>
      <trkpt lat="45.91593" lon="4.68883">
        <ele>337.91375732422</ele>
        <time>2014-06-07T09:20:15Z</time>
      </trkpt>
      <trkpt lat="45.91594" lon="4.68869">
        <ele>339.3796081543</ele>
        <time>2014-06-07T09:20:19Z</time>
      </trkpt>
      <trkpt lat="45.91594" lon="4.68862">
        <ele>340.10202026367</ele>
        <time>2014-06-07T09:20:21Z</time>
      </trkpt>
      <trkpt lat="45.91595" lon="4.68853">
        <ele>341.17196655273</ele>
        <time>2014-06-07T09:20:24Z</time>
      </trkpt>
      <trkpt lat="45.91596" lon="4.68842">
        <ele>342.43341064453</ele>
        <time>2014-06-07T09:20:27Z</time>
      </trkpt>
      <trkpt lat="45.91597" lon="4.68838">
        <ele>342.91064453125</ele>
        <time>2014-06-07T09:20:28Z</time>
      </trkpt>
      <trkpt lat="45.91598" lon="4.68824">
        <ele>344.50512695312</ele>
        <time>2014-06-07T09:20:32Z</time>
      </trkpt>
      <trkpt lat="45.91599" lon="4.68815">
        <ele>345.66775512695</ele>
        <time>2014-06-07T09:20:35Z</time>
      </trkpt>
      <trkpt lat="45.91602" lon="4.68797">
        <ele>347.87454223633</ele>
        <time>2014-06-07T09:20:40Z</time>
      </trkpt>
      <trkpt lat="45.91604" lon="4.6878">
        <ele>349.93865966797</ele>
        <time>2014-06-07T09:20:45Z</time>
      </trkpt>
      <trkpt lat="45.91603" lon="4.68777">
        <ele>350.20068359375</ele>
        <time>2014-06-07T09:20:46Z</time>
      </trkpt>
      <trkpt lat="45.91603" lon="4.68767">
        <ele>351.12704467773</ele>
        <time>2014-06-07T09:20:49Z</time>
      </trkpt>
      <trkpt lat="45.91602" lon="4.68755">
        <ele>352.10458374023</ele>
        <time>2014-06-07T09:20:52Z</time>
      </trkpt>
      <trkpt lat="45.916" lon="4.68741">
        <ele>353.16265869141</ele>
        <time>2014-06-07T09:20:56Z</time>
      </trkpt>
      <trkpt lat="45.916" lon="4.68733">
        <ele>353.71890258789</ele>
        <time>2014-06-07T09:20:58Z</time>
      </trkpt>
      <trkpt lat="45.916" lon="4.68725">
        <ele>354.40603637695</ele>
        <time>2014-06-07T09:21:00Z</time>
      </trkpt>
      <trkpt lat="45.91602" lon="4.68716">
        <ele>355.27523803711</ele>
        <time>2014-06-07T09:21:03Z</time>
      </trkpt>
      <trkpt lat="45.91602" lon="4.68713">
        <ele>355.49731445312</ele>
        <time>2014-06-07T09:21:04Z</time>
      </trkpt>
      <trkpt lat="45.91603" lon="4.68707">
        <ele>356.14266967773</ele>
        <time>2014-06-07T09:21:06Z</time>
      </trkpt>
      <trkpt lat="45.91605" lon="4.68698">
        <ele>357.01608276367</ele>
        <time>2014-06-07T09:21:09Z</time>
      </trkpt>
      <trkpt lat="45.91606" lon="4.68694">
        <ele>357.35049438477</ele>
        <time>2014-06-07T09:21:10Z</time>
      </trkpt>
      <trkpt lat="45.91609" lon="4.68684">
        <ele>358.32556152344</ele>
        <time>2014-06-07T09:21:13Z</time>
      </trkpt>
      <trkpt lat="45.91613" lon="4.68673">
        <ele>359.30859375</ele>
        <time>2014-06-07T09:21:16Z</time>
      </trkpt>
      <trkpt lat="45.91613" lon="4.6867">
        <ele>359.59140014648</ele>
        <time>2014-06-07T09:21:17Z</time>
      </trkpt>
      <trkpt lat="45.91618" lon="4.68657">
        <ele>360.72045898438</ele>
        <time>2014-06-07T09:21:21Z</time>
      </trkpt>
      <trkpt lat="45.91623" lon="4.68639">
        <ele>362.05514526367</ele>
        <time>2014-06-07T09:21:26Z</time>
      </trkpt>
      <trkpt lat="45.91622" lon="4.68634">
        <ele>362.35485839844</ele>
        <time>2014-06-07T09:21:27Z</time>
      </trkpt>
      <trkpt lat="45.91623" lon="4.68627">
        <ele>362.81655883789</ele>
        <time>2014-06-07T09:21:29Z</time>
      </trkpt>
      <trkpt lat="45.91621" lon="4.68617">
        <ele>363.37521362305</ele>
        <time>2014-06-07T09:21:31Z</time>
      </trkpt>
      <trkpt lat="45.91618" lon="4.68604">
        <ele>364.08010864258</ele>
        <time>2014-06-07T09:21:34Z</time>
      </trkpt>
      <trkpt lat="45.91608" lon="4.68578">
        <ele>365.50170898438</ele>
        <time>2014-06-07T09:21:40Z</time>
      </trkpt>
      <trkpt lat="45.91607" lon="4.68575">
        <ele>365.60980224609</ele>
        <time>2014-06-07T09:21:41Z</time>
      </trkpt>
      <trkpt lat="45.916" lon="4.68559">
        <ele>366.12884521484</ele>
        <time>2014-06-07T09:21:45Z</time>
      </trkpt>
      <trkpt lat="45.91599" lon="4.68556">
        <ele>366.23654174805</ele>
        <time>2014-06-07T09:21:46Z</time>
      </trkpt>
      <trkpt lat="45.91592" lon="4.68541">
        <ele>366.67211914062</ele>
        <time>2014-06-07T09:21:50Z</time>
      </trkpt>
      <trkpt lat="45.91589" lon="4.68535">
        <ele>366.86669921875</ele>
        <time>2014-06-07T09:21:52Z</time>
      </trkpt>
      <trkpt lat="45.91586" lon="4.68529">
        <ele>367.03103637695</ele>
        <time>2014-06-07T09:21:54Z</time>
      </trkpt>
      <trkpt lat="45.91581" lon="4.68514">
        <ele>367.65118408203</ele>
        <time>2014-06-07T09:21:58Z</time>
      </trkpt>
      <trkpt lat="45.91576" lon="4.68504">
        <ele>368.36242675781</ele>
        <time>2014-06-07T09:22:01Z</time>
      </trkpt>
      <trkpt lat="45.91571" lon="4.68494">
        <ele>369.2900390625</ele>
        <time>2014-06-07T09:22:04Z</time>
      </trkpt>
      <trkpt lat="45.9157" lon="4.6849">
        <ele>369.63909912109</ele>
        <time>2014-06-07T09:22:05Z</time>
      </trkpt>
      <trkpt lat="45.91563" lon="4.68478">
        <ele>371.00674438477</ele>
        <time>2014-06-07T09:22:09Z</time>
      </trkpt>
      <trkpt lat="45.91557" lon="4.68464">
        <ele>372.3625793457</ele>
        <time>2014-06-07T09:22:13Z</time>
      </trkpt>
      <trkpt lat="45.91553" lon="4.68457">
        <ele>373.06701660156</ele>
        <time>2014-06-07T09:22:15Z</time>
      </trkpt>
      <trkpt lat="45.9155" lon="4.68445">
        <ele>374.12814331055</ele>
        <time>2014-06-07T09:22:18Z</time>
      </trkpt>
      <trkpt lat="45.91547" lon="4.68433">
        <ele>375.10470581055</ele>
        <time>2014-06-07T09:22:21Z</time>
      </trkpt>
      <trkpt lat="45.91545" lon="4.68429">
        <ele>375.4631652832</ele>
        <time>2014-06-07T09:22:22Z</time>
      </trkpt>
      <trkpt lat="45.91543" lon="4.68413">
        <ele>376.5549621582</ele>
        <time>2014-06-07T09:22:26Z</time>
      </trkpt>
      <trkpt lat="45.91543" lon="4.68409">
        <ele>376.7194519043</ele>
        <time>2014-06-07T09:22:27Z</time>
      </trkpt>
      <trkpt lat="45.91541" lon="4.68392">
        <ele>377.41339111328</ele>
        <time>2014-06-07T09:22:31Z</time>
      </trkpt>
      <trkpt lat="45.91542" lon="4.68388">
        <ele>377.54772949219</ele>
        <time>2014-06-07T09:22:32Z</time>
      </trkpt>
      <trkpt lat="45.9154" lon="4.68371">
        <ele>378.21658325195</ele>
        <time>2014-06-07T09:22:36Z</time>
      </trkpt>
      <trkpt lat="45.9154" lon="4.68363">
        <ele>378.50494384766</ele>
        <time>2014-06-07T09:22:38Z</time>
      </trkpt>
      <trkpt lat="45.91539" lon="4.68351">
        <ele>378.97412109375</ele>
        <time>2014-06-07T09:22:41Z</time>
      </trkpt>
      <trkpt lat="45.91537" lon="4.68342">
        <ele>379.37994384766</ele>
        <time>2014-06-07T09:22:43Z</time>
      </trkpt>
      <trkpt lat="45.91538" lon="4.68337">
        <ele>379.49462890625</ele>
        <time>2014-06-07T09:22:44Z</time>
      </trkpt>
      <trkpt lat="45.91539" lon="4.68331">
        <ele>379.62161254883</ele>
        <time>2014-06-07T09:22:45Z</time>
      </trkpt>
      <trkpt lat="45.9154" lon="4.68303">
        <ele>379.91802978516</ele>
        <time>2014-06-07T09:22:51Z</time>
      </trkpt>
      <trkpt lat="45.91539" lon="4.68289">
        <ele>380.11599731445</ele>
        <time>2014-06-07T09:22:54Z</time>
      </trkpt>
      <trkpt lat="45.9154" lon="4.68284">
        <ele>380.16464233398</ele>
        <time>2014-06-07T09:22:55Z</time>
      </trkpt>
      <trkpt lat="45.91542" lon="4.68261">
        <ele>380.33972167969</ele>
        <time>2014-06-07T09:23:00Z</time>
      </trkpt>
      <trkpt lat="45.91547" lon="4.68245">
        <ele>380.27197265625</ele>
        <time>2014-06-07T09:23:04Z</time>
      </trkpt>
      <trkpt lat="45.91553" lon="4.68229">
        <ele>379.92837524414</ele>
        <time>2014-06-07T09:23:08Z</time>
      </trkpt>
      <trkpt lat="45.91558" lon="4.68217">
        <ele>379.64562988281</ele>
        <time>2014-06-07T09:23:11Z</time>
      </trkpt>
      <trkpt lat="45.9156" lon="4.68212">
        <ele>379.51599121094</ele>
        <time>2014-06-07T09:23:12Z</time>
      </trkpt>
      <trkpt lat="45.91568" lon="4.68194">
        <ele>378.9919128418</ele>
        <time>2014-06-07T09:23:16Z</time>
      </trkpt>
      <trkpt lat="45.91571" lon="4.68185">
        <ele>378.77249145508</ele>
        <time>2014-06-07T09:23:18Z</time>
      </trkpt>
      <trkpt lat="45.91573" lon="4.68174">
        <ele>378.59155273438</ele>
        <time>2014-06-07T09:23:20Z</time>
      </trkpt>
      <trkpt lat="45.91579" lon="4.68149">
        <ele>377.21841430664</ele>
        <time>2014-06-07T09:23:25Z</time>
      </trkpt>
      <trkpt lat="45.9158" lon="4.68146">
        <ele>376.98123168945</ele>
        <time>2014-06-07T09:23:26Z</time>
      </trkpt>
      <trkpt lat="45.91582" lon="4.6813">
        <ele>375.92895507812</ele>
        <time>2014-06-07T09:23:29Z</time>
      </trkpt>
      <trkpt lat="45.91582" lon="4.68122">
        <ele>375.47720336914</ele>
        <time>2014-06-07T09:23:30Z</time>
      </trkpt>
      <trkpt lat="45.91581" lon="4.68117">
        <ele>375.23934936523</ele>
        <time>2014-06-07T09:23:31Z</time>
      </trkpt>
      <trkpt lat="45.91579" lon="4.68102">
        <ele>374.57824707031</ele>
        <time>2014-06-07T09:23:34Z</time>
      </trkpt>
      <trkpt lat="45.91578" lon="4.68097">
        <ele>374.361328125</ele>
        <time>2014-06-07T09:23:35Z</time>
      </trkpt>
      <trkpt lat="45.91576" lon="4.68087">
        <ele>373.9873046875</ele>
        <time>2014-06-07T09:23:37Z</time>
      </trkpt>
      <trkpt lat="45.91573" lon="4.68072">
        <ele>374.3186340332</ele>
        <time>2014-06-07T09:23:40Z</time>
      </trkpt>
      <trkpt lat="45.91569" lon="4.68053">
        <ele>375.13412475586</ele>
        <time>2014-06-07T09:23:44Z</time>
      </trkpt>
      <trkpt lat="45.91569" lon="4.68048">
        <ele>375.28060913086</ele>
        <time>2014-06-07T09:23:45Z</time>
      </trkpt>
      <trkpt lat="45.91569" lon="4.68024">
        <ele>375.74703979492</ele>
        <time>2014-06-07T09:23:50Z</time>
      </trkpt>
      <trkpt lat="45.9157" lon="4.67996">
        <ele>376.35638427734</ele>
        <time>2014-06-07T09:23:56Z</time>
      </trkpt>
      <trkpt lat="45.91571" lon="4.67986">
        <ele>376.67199707031</ele>
        <time>2014-06-07T09:23:58Z</time>
      </trkpt>
      <trkpt lat="45.91573" lon="4.67977">
        <ele>376.91751098633</ele>
        <time>2014-06-07T09:24:00Z</time>
      </trkpt>
      <trkpt lat="45.91575" lon="4.67973">
        <ele>376.92263793945</ele>
        <time>2014-06-07T09:24:01Z</time>
      </trkpt>
      <trkpt lat="45.91582" lon="4.67966">
        <ele>376.72143554688</ele>
        <time>2014-06-07T09:24:04Z</time>
      </trkpt>
      <trkpt lat="45.91597" lon="4.67953">
        <ele>375.85238647461</ele>
        <time>2014-06-07T09:24:09Z</time>
      </trkpt>
      <trkpt lat="45.91611" lon="4.67944">
        <ele>374.79846191406</ele>
        <time>2014-06-07T09:24:13Z</time>
      </trkpt>
      <trkpt lat="45.91617" lon="4.67932">
        <ele>374.73419189453</ele>
        <time>2014-06-07T09:24:16Z</time>
      </trkpt>
      <trkpt lat="45.91619" lon="4.67927">
        <ele>374.67788696289</ele>
        <time>2014-06-07T09:24:17Z</time>
      </trkpt>
      <trkpt lat="45.91619" lon="4.67909">
        <ele>375.12237548828</ele>
        <time>2014-06-07T09:24:21Z</time>
      </trkpt>
      <trkpt lat="45.91616" lon="4.67894">
        <ele>375.44482421875</ele>
        <time>2014-06-07T09:24:24Z</time>
      </trkpt>
      <trkpt lat="45.91614" lon="4.67884">
        <ele>375.56909179688</ele>
        <time>2014-06-07T09:24:26Z</time>
      </trkpt>
      <trkpt lat="45.9161" lon="4.67868">
        <ele>375.87692260742</ele>
        <time>2014-06-07T09:24:29Z</time>
      </trkpt>
      <trkpt lat="45.91607" lon="4.67847">
        <ele>376.12347412109</ele>
        <time>2014-06-07T09:24:33Z</time>
      </trkpt>
      <trkpt lat="45.91597" lon="4.67831">
        <ele>376.76733398438</ele>
        <time>2014-06-07T09:24:37Z</time>
      </trkpt>
      <trkpt lat="45.91589" lon="4.67833">
        <ele>377.54095458984</ele>
        <time>2014-06-07T09:24:40Z</time>
      </trkpt>
      <trkpt lat="45.91583" lon="4.67834">
        <ele>378.01586914062</ele>
        <time>2014-06-07T09:24:42Z</time>
      </trkpt>
      <trkpt lat="45.9158" lon="4.67835">
        <ele>378.17111206055</ele>
        <time>2014-06-07T09:24:43Z</time>
      </trkpt>
      <trkpt lat="45.91576" lon="4.67838">
        <ele>378.41647338867</ele>
        <time>2014-06-07T09:24:45Z</time>
      </trkpt>
      <trkpt lat="45.91571" lon="4.67844">
        <ele>378.71664428711</ele>
        <time>2014-06-07T09:24:48Z</time>
      </trkpt>
      <trkpt lat="45.91571" lon="4.67847">
        <ele>378.7919921875</ele>
        <time>2014-06-07T09:24:49Z</time>
      </trkpt>
      <trkpt lat="45.91562" lon="4.67856">
        <ele>379.34567260742</ele>
        <time>2014-06-07T09:24:52Z</time>
      </trkpt>
      <trkpt lat="45.91555" lon="4.6787">
        <ele>379.94448852539</ele>
        <time>2014-06-07T09:24:56Z</time>
      </trkpt>
      <trkpt lat="45.91552" lon="4.67871">
        <ele>380.12744140625</ele>
        <time>2014-06-07T09:24:57Z</time>
      </trkpt>
      <trkpt lat="45.91549" lon="4.67873">
        <ele>380.33843994141</ele>
        <time>2014-06-07T09:24:58Z</time>
      </trkpt>
      <trkpt lat="45.91542" lon="4.6787">
        <ele>380.64535522461</ele>
        <time>2014-06-07T09:25:00Z</time>
      </trkpt>
      <trkpt lat="45.91532" lon="4.67873">
        <ele>381.24185180664</ele>
        <time>2014-06-07T09:25:03Z</time>
      </trkpt>
      <trkpt lat="45.91525" lon="4.67877">
        <ele>381.67245483398</ele>
        <time>2014-06-07T09:25:05Z</time>
      </trkpt>
      <trkpt lat="45.91518" lon="4.67887">
        <ele>382.25375366211</ele>
        <time>2014-06-07T09:25:08Z</time>
      </trkpt>
      <trkpt lat="45.9151" lon="4.67899">
        <ele>382.98837280273</ele>
        <time>2014-06-07T09:25:11Z</time>
      </trkpt>
      <trkpt lat="45.91504" lon="4.67904">
        <ele>383.45745849609</ele>
        <time>2014-06-07T09:25:13Z</time>
      </trkpt>
      <trkpt lat="45.91486" lon="4.67903">
        <ele>383.04708862305</ele>
        <time>2014-06-07T09:25:18Z</time>
      </trkpt>
      <trkpt lat="45.91468" lon="4.67901">
        <ele>382.18151855469</ele>
        <time>2014-06-07T09:25:23Z</time>
      </trkpt>
      <trkpt lat="45.91451" lon="4.67901">
        <ele>381.39932250977</ele>
        <time>2014-06-07T09:25:28Z</time>
      </trkpt>
      <trkpt lat="45.91438" lon="4.67918">
        <ele>381.04470825195</ele>
        <time>2014-06-07T09:25:33Z</time>
      </trkpt>
      <trkpt lat="45.91425" lon="4.67939">
        <ele>381.55551147461</ele>
        <time>2014-06-07T09:25:38Z</time>
      </trkpt>
      <trkpt lat="45.9142" lon="4.67946">
        <ele>381.79977416992</ele>
        <time>2014-06-07T09:25:40Z</time>
      </trkpt>
      <trkpt lat="45.91407" lon="4.67952">
        <ele>381.70654296875</ele>
        <time>2014-06-07T09:25:44Z</time>
      </trkpt>
      <trkpt lat="45.91394" lon="4.67943">
        <ele>380.58895874023</ele>
        <time>2014-06-07T09:25:48Z</time>
      </trkpt>
      <trkpt lat="45.91384" lon="4.67937">
        <ele>379.7219543457</ele>
        <time>2014-06-07T09:25:51Z</time>
      </trkpt>
      <trkpt lat="45.91376" lon="4.67931">
        <ele>378.95349121094</ele>
        <time>2014-06-07T09:25:54Z</time>
      </trkpt>
      <trkpt lat="45.91372" lon="4.67929">
        <ele>378.64178466797</ele>
        <time>2014-06-07T09:25:55Z</time>
      </trkpt>
      <trkpt lat="45.91356" lon="4.67917">
        <ele>377.08853149414</ele>
        <time>2014-06-07T09:26:00Z</time>
      </trkpt>
      <trkpt lat="45.91352" lon="4.67914">
        <ele>376.72940063477</ele>
        <time>2014-06-07T09:26:01Z</time>
      </trkpt>
      <trkpt lat="45.91346" lon="4.67908">
        <ele>375.98791503906</ele>
        <time>2014-06-07T09:26:03Z</time>
      </trkpt>
      <trkpt lat="45.91336" lon="4.67893">
        <ele>374.1513671875</ele>
        <time>2014-06-07T09:26:07Z</time>
      </trkpt>
      <trkpt lat="45.91325" lon="4.6787">
        <ele>372.00381469727</ele>
        <time>2014-06-07T09:26:12Z</time>
      </trkpt>
      <trkpt lat="45.9132" lon="4.67861">
        <ele>371.11981201172</ele>
        <time>2014-06-07T09:26:14Z</time>
      </trkpt>
      <trkpt lat="45.91312" lon="4.67844">
        <ele>369.44665527344</ele>
        <time>2014-06-07T09:26:18Z</time>
      </trkpt>
      <trkpt lat="45.91305" lon="4.67829">
        <ele>368.21270751953</ele>
        <time>2014-06-07T09:26:21Z</time>
      </trkpt>
      <trkpt lat="45.913" lon="4.67821">
        <ele>367.90374755859</ele>
        <time>2014-06-07T09:26:23Z</time>
      </trkpt>
      <trkpt lat="45.91295" lon="4.67812">
        <ele>367.5661315918</ele>
        <time>2014-06-07T09:26:25Z</time>
      </trkpt>
      <trkpt lat="45.9129" lon="4.67805">
        <ele>367.27545166016</ele>
        <time>2014-06-07T09:26:27Z</time>
      </trkpt>
      <trkpt lat="45.91282" lon="4.67793">
        <ele>366.8108215332</ele>
        <time>2014-06-07T09:26:30Z</time>
      </trkpt>
      <trkpt lat="45.9127" lon="4.67776">
        <ele>366.10699462891</ele>
        <time>2014-06-07T09:26:35Z</time>
      </trkpt>
      <trkpt lat="45.91267" lon="4.67772">
        <ele>365.93649291992</ele>
        <time>2014-06-07T09:26:36Z</time>
      </trkpt>
      <trkpt lat="45.91251" lon="4.67758">
        <ele>365.22009277344</ele>
        <time>2014-06-07T09:26:41Z</time>
      </trkpt>
      <trkpt lat="45.91248" lon="4.67755">
        <ele>365.07238769531</ele>
        <time>2014-06-07T09:26:42Z</time>
      </trkpt>
      <trkpt lat="45.91231" lon="4.67737">
        <ele>364.91635131836</ele>
        <time>2014-06-07T09:26:48Z</time>
      </trkpt>
      <trkpt lat="45.91228" lon="4.67734">
        <ele>364.9091796875</ele>
        <time>2014-06-07T09:26:49Z</time>
      </trkpt>
      <trkpt lat="45.91225" lon="4.6773">
        <ele>364.92303466797</ele>
        <time>2014-06-07T09:26:50Z</time>
      </trkpt>
      <trkpt lat="45.91214" lon="4.67709">
        <ele>364.97064208984</ele>
        <time>2014-06-07T09:26:55Z</time>
      </trkpt>
      <trkpt lat="45.91212" lon="4.67705">
        <ele>364.97354125977</ele>
        <time>2014-06-07T09:26:56Z</time>
      </trkpt>
      <trkpt lat="45.91203" lon="4.67682">
        <ele>364.96212768555</ele>
        <time>2014-06-07T09:27:01Z</time>
      </trkpt>
      <trkpt lat="45.91202" lon="4.67677">
        <ele>364.95059204102</ele>
        <time>2014-06-07T09:27:02Z</time>
      </trkpt>
      <trkpt lat="45.91193" lon="4.67655">
        <ele>364.193359375</ele>
        <time>2014-06-07T09:27:07Z</time>
      </trkpt>
      <trkpt lat="45.91191" lon="4.67651">
        <ele>363.93988037109</ele>
        <time>2014-06-07T09:27:08Z</time>
      </trkpt>
      <trkpt lat="45.91186" lon="4.67633">
        <ele>362.93566894531</ele>
        <time>2014-06-07T09:27:12Z</time>
      </trkpt>
      <trkpt lat="45.91183" lon="4.67629">
        <ele>362.64385986328</ele>
        <time>2014-06-07T09:27:13Z</time>
      </trkpt>
      <trkpt lat="45.91174" lon="4.67602">
        <ele>361.0771484375</ele>
        <time>2014-06-07T09:27:19Z</time>
      </trkpt>
      <trkpt lat="45.91167" lon="4.67587">
        <ele>360.18222045898</ele>
        <time>2014-06-07T09:27:22Z</time>
      </trkpt>
      <trkpt lat="45.91158" lon="4.6757">
        <ele>359.51794433594</ele>
        <time>2014-06-07T09:27:26Z</time>
      </trkpt>
      <trkpt lat="45.9115" lon="4.67546">
        <ele>358.97659301758</ele>
        <time>2014-06-07T09:27:31Z</time>
      </trkpt>
      <trkpt lat="45.91148" lon="4.67542">
        <ele>358.8991394043</ele>
        <time>2014-06-07T09:27:32Z</time>
      </trkpt>
      <trkpt lat="45.91147" lon="4.67538">
        <ele>358.82336425781</ele>
        <time>2014-06-07T09:27:33Z</time>
      </trkpt>
      <trkpt lat="45.91144" lon="4.67528">
        <ele>358.67599487305</ele>
        <time>2014-06-07T09:27:35Z</time>
      </trkpt>
      <trkpt lat="45.91139" lon="4.67509">
        <ele>358.43960571289</ele>
        <time>2014-06-07T09:27:39Z</time>
      </trkpt>
      <trkpt lat="45.91136" lon="4.67479">
        <ele>358.96786499023</ele>
        <time>2014-06-07T09:27:45Z</time>
      </trkpt>
      <trkpt lat="45.91135" lon="4.67469">
        <ele>359.24844360352</ele>
        <time>2014-06-07T09:27:47Z</time>
      </trkpt>
      <trkpt lat="45.9113" lon="4.67457">
        <ele>359.71151733398</ele>
        <time>2014-06-07T09:27:51Z</time>
      </trkpt>
      <trkpt lat="45.91116" lon="4.67454">
        <ele>360.06744384766</ele>
        <time>2014-06-07T09:27:55Z</time>
      </trkpt>
      <trkpt lat="45.91096" lon="4.67456">
        <ele>360.34823608398</ele>
        <time>2014-06-07T09:28:01Z</time>
      </trkpt>
      <trkpt lat="45.91083" lon="4.67456">
        <ele>360.58032226562</ele>
        <time>2014-06-07T09:28:05Z</time>
      </trkpt>
      <trkpt lat="45.91069" lon="4.67457">
        <ele>360.53051757812</ele>
        <time>2014-06-07T09:28:09Z</time>
      </trkpt>
      <trkpt lat="45.91066" lon="4.67457">
        <ele>360.54254150391</ele>
        <time>2014-06-07T09:28:10Z</time>
      </trkpt>
      <trkpt lat="45.91053" lon="4.67457">
        <ele>360.54083251953</ele>
        <time>2014-06-07T09:28:14Z</time>
      </trkpt>
      <trkpt lat="45.91043" lon="4.67455">
        <ele>360.63180541992</ele>
        <time>2014-06-07T09:28:18Z</time>
      </trkpt>
      <trkpt lat="45.9104" lon="4.67454">
        <ele>360.66784667969</ele>
        <time>2014-06-07T09:28:19Z</time>
      </trkpt>
      <trkpt lat="45.91026" lon="4.67448">
        <ele>360.87213134766</ele>
        <time>2014-06-07T09:28:24Z</time>
      </trkpt>
      <trkpt lat="45.91011" lon="4.67443">
        <ele>361.04208374023</ele>
        <time>2014-06-07T09:28:29Z</time>
      </trkpt>
      <trkpt lat="45.90993" lon="4.67436">
        <ele>361.68841552734</ele>
        <time>2014-06-07T09:28:35Z</time>
      </trkpt>
      <trkpt lat="45.9099" lon="4.67435">
        <ele>361.87091064453</ele>
        <time>2014-06-07T09:28:36Z</time>
      </trkpt>
      <trkpt lat="45.90973" lon="4.67428">
        <ele>363.13577270508</ele>
        <time>2014-06-07T09:28:42Z</time>
      </trkpt>
      <trkpt lat="45.9096" lon="4.67424">
        <ele>364.03970336914</ele>
        <time>2014-06-07T09:28:46Z</time>
      </trkpt>
      <trkpt lat="45.90958" lon="4.67423">
        <ele>364.2311706543</ele>
        <time>2014-06-07T09:28:47Z</time>
      </trkpt>
      <trkpt lat="45.9094" lon="4.67418">
        <ele>365.51049804688</ele>
        <time>2014-06-07T09:28:53Z</time>
      </trkpt>
      <trkpt lat="45.90937" lon="4.67417">
        <ele>365.71072387695</ele>
        <time>2014-06-07T09:28:54Z</time>
      </trkpt>
      <trkpt lat="45.90925" lon="4.67414">
        <ele>366.78512573242</ele>
        <time>2014-06-07T09:28:58Z</time>
      </trkpt>
      <trkpt lat="45.90919" lon="4.67412">
        <ele>367.28146362305</ele>
        <time>2014-06-07T09:29:00Z</time>
      </trkpt>
      <trkpt lat="45.90902" lon="4.67405">
        <ele>368.53918457031</ele>
        <time>2014-06-07T09:29:06Z</time>
      </trkpt>
      <trkpt lat="45.90899" lon="4.67404">
        <ele>368.73648071289</ele>
        <time>2014-06-07T09:29:07Z</time>
      </trkpt>
      <trkpt lat="45.90885" lon="4.674">
        <ele>369.61813354492</ele>
        <time>2014-06-07T09:29:12Z</time>
      </trkpt>
      <trkpt lat="45.90871" lon="4.67397">
        <ele>370.38577270508</ele>
        <time>2014-06-07T09:29:17Z</time>
      </trkpt>
      <trkpt lat="45.90859" lon="4.67388">
        <ele>371.79702758789</ele>
        <time>2014-06-07T09:29:22Z</time>
      </trkpt>
      <trkpt lat="45.90854" lon="4.67372">
        <ele>373.99603271484</ele>
        <time>2014-06-07T09:29:27Z</time>
      </trkpt>
      <trkpt lat="45.90852" lon="4.67362">
        <ele>375.31378173828</ele>
        <time>2014-06-07T09:29:30Z</time>
      </trkpt>
      <trkpt lat="45.90851" lon="4.67352">
        <ele>376.59652709961</ele>
        <time>2014-06-07T09:29:33Z</time>
      </trkpt>
      <trkpt lat="45.9085" lon="4.67345">
        <ele>377.53753662109</ele>
        <time>2014-06-07T09:29:35Z</time>
      </trkpt>
      <trkpt lat="45.90849" lon="4.67339">
        <ele>378.38385009766</ele>
        <time>2014-06-07T09:29:37Z</time>
      </trkpt>
      <trkpt lat="45.90847" lon="4.67327">
        <ele>379.548828125</ele>
        <time>2014-06-07T09:29:41Z</time>
      </trkpt>
      <trkpt lat="45.90845" lon="4.67318">
        <ele>380.12420654297</ele>
        <time>2014-06-07T09:29:44Z</time>
      </trkpt>
      <trkpt lat="45.90843" lon="4.67308">
        <ele>380.67672729492</ele>
        <time>2014-06-07T09:29:47Z</time>
      </trkpt>
      <trkpt lat="45.90842" lon="4.67298">
        <ele>381.23815917969</ele>
        <time>2014-06-07T09:29:50Z</time>
      </trkpt>
      <trkpt lat="45.90841" lon="4.6729">
        <ele>381.74655151367</ele>
        <time>2014-06-07T09:29:53Z</time>
      </trkpt>
      <trkpt lat="45.9084" lon="4.67286">
        <ele>381.93380737305</ele>
        <time>2014-06-07T09:29:54Z</time>
      </trkpt>
      <trkpt lat="45.90839" lon="4.67274">
        <ele>382.63525390625</ele>
        <time>2014-06-07T09:29:58Z</time>
      </trkpt>
      <trkpt lat="45.90836" lon="4.67256">
        <ele>383.63580322266</ele>
        <time>2014-06-07T09:30:04Z</time>
      </trkpt>
      <trkpt lat="45.90835" lon="4.67253">
        <ele>383.80291748047</ele>
        <time>2014-06-07T09:30:05Z</time>
      </trkpt>
      <trkpt lat="45.90833" lon="4.67242">
        <ele>384.63845825195</ele>
        <time>2014-06-07T09:30:08Z</time>
      </trkpt>
      <trkpt lat="45.90833" lon="4.67236">
        <ele>385.25601196289</ele>
        <time>2014-06-07T09:30:10Z</time>
      </trkpt>
      <trkpt lat="45.90832" lon="4.67232">
        <ele>385.54534912109</ele>
        <time>2014-06-07T09:30:11Z</time>
      </trkpt>
      <trkpt lat="45.90831" lon="4.67223">
        <ele>386.46173095703</ele>
        <time>2014-06-07T09:30:14Z</time>
      </trkpt>
      <trkpt lat="45.90829" lon="4.6721">
        <ele>387.7063293457</ele>
        <time>2014-06-07T09:30:18Z</time>
      </trkpt>
      <trkpt lat="45.90827" lon="4.672">
        <ele>388.78768920898</ele>
        <time>2014-06-07T09:30:21Z</time>
      </trkpt>
      <trkpt lat="45.90823" lon="4.67193">
        <ele>389.73727416992</ele>
        <time>2014-06-07T09:30:24Z</time>
      </trkpt>
      <trkpt lat="45.90812" lon="4.67191">
        <ele>390.86083984375</ele>
        <time>2014-06-07T09:30:28Z</time>
      </trkpt>
      <trkpt lat="45.9081" lon="4.67191">
        <ele>391.14105224609</ele>
        <time>2014-06-07T09:30:29Z</time>
      </trkpt>
      <trkpt lat="45.90804" lon="4.67191">
        <ele>391.59020996094</ele>
        <time>2014-06-07T09:30:31Z</time>
      </trkpt>
      <trkpt lat="45.90799" lon="4.67192">
        <ele>392.04119873047</ele>
        <time>2014-06-07T09:30:33Z</time>
      </trkpt>
      <trkpt lat="45.90786" lon="4.67192">
        <ele>393.17568969727</ele>
        <time>2014-06-07T09:30:38Z</time>
      </trkpt>
      <trkpt lat="45.90772" lon="4.6719">
        <ele>394.58731079102</ele>
        <time>2014-06-07T09:30:43Z</time>
      </trkpt>
      <trkpt lat="45.90756" lon="4.67188">
        <ele>396.42102050781</ele>
        <time>2014-06-07T09:30:49Z</time>
      </trkpt>
      <trkpt lat="45.90737" lon="4.6718">
        <ele>398.12121582031</ele>
        <time>2014-06-07T09:30:56Z</time>
      </trkpt>
      <trkpt lat="45.90723" lon="4.67175">
        <ele>398.89791870117</ele>
        <time>2014-06-07T09:31:01Z</time>
      </trkpt>
      <trkpt lat="45.90715" lon="4.67171">
        <ele>399.4690246582</ele>
        <time>2014-06-07T09:31:04Z</time>
      </trkpt>
      <trkpt lat="45.9071" lon="4.67168">
        <ele>399.87915039062</ele>
        <time>2014-06-07T09:31:06Z</time>
      </trkpt>
      <trkpt lat="45.90697" lon="4.6716">
        <ele>400.65609741211</ele>
        <time>2014-06-07T09:31:11Z</time>
      </trkpt>
      <trkpt lat="45.90691" lon="4.67156">
        <ele>400.96136474609</ele>
        <time>2014-06-07T09:31:13Z</time>
      </trkpt>
      <trkpt lat="45.90682" lon="4.67147">
        <ele>401.8200378418</ele>
        <time>2014-06-07T09:31:17Z</time>
      </trkpt>
      <trkpt lat="45.9068" lon="4.67145">
        <ele>402.02267456055</ele>
        <time>2014-06-07T09:31:18Z</time>
      </trkpt>
      <trkpt lat="45.90671" lon="4.67133">
        <ele>403.18774414062</ele>
        <time>2014-06-07T09:31:22Z</time>
      </trkpt>
      <trkpt lat="45.90665" lon="4.67125">
        <ele>403.98022460938</ele>
        <time>2014-06-07T09:31:25Z</time>
      </trkpt>
      <trkpt lat="45.90658" lon="4.67117">
        <ele>404.68566894531</ele>
        <time>2014-06-07T09:31:28Z</time>
      </trkpt>
      <trkpt lat="45.90656" lon="4.67115">
        <ele>404.84219360352</ele>
        <time>2014-06-07T09:31:29Z</time>
      </trkpt>
      <trkpt lat="45.90642" lon="4.67099">
        <ele>406.05758666992</ele>
        <time>2014-06-07T09:31:35Z</time>
      </trkpt>
      <trkpt lat="45.90641" lon="4.67097">
        <ele>406.24157714844</ele>
        <time>2014-06-07T09:31:36Z</time>
      </trkpt>
      <trkpt lat="45.90631" lon="4.67088">
        <ele>406.74771118164</ele>
        <time>2014-06-07T09:31:40Z</time>
      </trkpt>
      <trkpt lat="45.90628" lon="4.67086">
        <ele>406.87832641602</ele>
        <time>2014-06-07T09:31:41Z</time>
      </trkpt>
      <trkpt lat="45.90617" lon="4.67072">
        <ele>406.91397094727</ele>
        <time>2014-06-07T09:31:46Z</time>
      </trkpt>
      <trkpt lat="45.90615" lon="4.6707">
        <ele>406.89306640625</ele>
        <time>2014-06-07T09:31:47Z</time>
      </trkpt>
      <trkpt lat="45.906" lon="4.67053">
        <ele>406.91766357422</ele>
        <time>2014-06-07T09:31:53Z</time>
      </trkpt>
      <trkpt lat="45.90591" lon="4.67041">
        <ele>407.05657958984</ele>
        <time>2014-06-07T09:31:57Z</time>
      </trkpt>
      <trkpt lat="45.90583" lon="4.67032">
        <ele>407.23550415039</ele>
        <time>2014-06-07T09:32:00Z</time>
      </trkpt>
      <trkpt lat="45.90572" lon="4.6702">
        <ele>407.99044799805</ele>
        <time>2014-06-07T09:32:05Z</time>
      </trkpt>
      <trkpt lat="45.90568" lon="4.67018">
        <ele>408.23574829102</ele>
        <time>2014-06-07T09:32:07Z</time>
      </trkpt>
      <trkpt lat="45.90562" lon="4.6702">
        <ele>408.41156005859</ele>
        <time>2014-06-07T09:32:09Z</time>
      </trkpt>
      <trkpt lat="45.90546" lon="4.67027">
        <ele>408.85110473633</ele>
        <time>2014-06-07T09:32:15Z</time>
      </trkpt>
      <trkpt lat="45.90537" lon="4.67029">
        <ele>409.13775634766</ele>
        <time>2014-06-07T09:32:18Z</time>
      </trkpt>
      <trkpt lat="45.90535" lon="4.67029">
        <ele>409.25466918945</ele>
        <time>2014-06-07T09:32:19Z</time>
      </trkpt>
      <trkpt lat="45.9052" lon="4.6703">
        <ele>409.74594116211</ele>
        <time>2014-06-07T09:32:24Z</time>
      </trkpt>
      <trkpt lat="45.90506" lon="4.67031">
        <ele>410.25888061523</ele>
        <time>2014-06-07T09:32:29Z</time>
      </trkpt>
      <trkpt lat="45.90497" lon="4.6703">
        <ele>410.69021606445</ele>
        <time>2014-06-07T09:32:33Z</time>
      </trkpt>
      <trkpt lat="45.90494" lon="4.67029">
        <ele>410.83157348633</ele>
        <time>2014-06-07T09:32:34Z</time>
      </trkpt>
      <trkpt lat="45.90482" lon="4.67027">
        <ele>411.40463256836</ele>
        <time>2014-06-07T09:32:39Z</time>
      </trkpt>
      <trkpt lat="45.90475" lon="4.67024">
        <ele>411.83358764648</ele>
        <time>2014-06-07T09:32:42Z</time>
      </trkpt>
      <trkpt lat="45.90472" lon="4.67023">
        <ele>411.98092651367</ele>
        <time>2014-06-07T09:32:43Z</time>
      </trkpt>
      <trkpt lat="45.90459" lon="4.67018">
        <ele>412.70388793945</ele>
        <time>2014-06-07T09:32:48Z</time>
      </trkpt>
      <trkpt lat="45.90455" lon="4.67016">
        <ele>412.97152709961</ele>
        <time>2014-06-07T09:32:50Z</time>
      </trkpt>
      <trkpt lat="45.90448" lon="4.6701">
        <ele>413.43826293945</ele>
        <time>2014-06-07T09:32:52Z</time>
      </trkpt>
      <trkpt lat="45.9044" lon="4.67004">
        <ele>414.00170898438</ele>
        <time>2014-06-07T09:32:55Z</time>
      </trkpt>
      <trkpt lat="45.90434" lon="4.67">
        <ele>414.37725830078</ele>
        <time>2014-06-07T09:32:57Z</time>
      </trkpt>
      <trkpt lat="45.90434" lon="4.67">
        <ele>414.37725830078</ele>
        <time>2014-06-07T09:32:57Z</time>
      </trkpt>
      <trkpt lat="45.90431" lon="4.66998">
        <ele>414.42877197266</ele>
        <time>2014-06-07T09:32:58Z</time>
      </trkpt>
      <trkpt lat="45.90413" lon="4.66992">
        <ele>414.7370300293</ele>
        <time>2014-06-07T09:33:03Z</time>
      </trkpt>
      <trkpt lat="45.90395" lon="4.66988">
        <ele>414.783203125</ele>
        <time>2014-06-07T09:33:08Z</time>
      </trkpt>
      <trkpt lat="45.90391" lon="4.66987">
        <ele>414.78427124023</ele>
        <time>2014-06-07T09:33:09Z</time>
      </trkpt>
      <trkpt lat="45.90388" lon="4.66987">
        <ele>414.81896972656</ele>
        <time>2014-06-07T09:33:10Z</time>
      </trkpt>
      <trkpt lat="45.90373" lon="4.66985">
        <ele>414.89291381836</ele>
        <time>2014-06-07T09:33:14Z</time>
      </trkpt>
      <trkpt lat="45.90359" lon="4.66984">
        <ele>414.99035644531</ele>
        <time>2014-06-07T09:33:18Z</time>
      </trkpt>
      <trkpt lat="45.90356" lon="4.66984">
        <ele>414.98965454102</ele>
        <time>2014-06-07T09:33:19Z</time>
      </trkpt>
      <trkpt lat="45.9034" lon="4.66985">
        <ele>415.19467163086</ele>
        <time>2014-06-07T09:33:24Z</time>
      </trkpt>
      <trkpt lat="45.90333" lon="4.66986">
        <ele>415.33862304688</ele>
        <time>2014-06-07T09:33:26Z</time>
      </trkpt>
      <trkpt lat="45.90328" lon="4.66988">
        <ele>415.92379760742</ele>
        <time>2014-06-07T09:33:28Z</time>
      </trkpt>
      <trkpt lat="45.90318" lon="4.66996">
        <ele>417.48608398438</ele>
        <time>2014-06-07T09:33:33Z</time>
      </trkpt>
      <trkpt lat="45.90309" lon="4.67004">
        <ele>418.68890380859</ele>
        <time>2014-06-07T09:33:37Z</time>
      </trkpt>
      <trkpt lat="45.90306" lon="4.67006">
        <ele>418.94946289062</ele>
        <time>2014-06-07T09:33:38Z</time>
      </trkpt>
      <trkpt lat="45.90299" lon="4.67011">
        <ele>419.76354980469</ele>
        <time>2014-06-07T09:33:41Z</time>
      </trkpt>
      <trkpt lat="45.9029" lon="4.67015">
        <ele>420.72021484375</ele>
        <time>2014-06-07T09:33:44Z</time>
      </trkpt>
      <trkpt lat="45.90279" lon="4.67021">
        <ele>421.91690063477</ele>
        <time>2014-06-07T09:33:48Z</time>
      </trkpt>
      <trkpt lat="45.90274" lon="4.67024">
        <ele>422.52709960938</ele>
        <time>2014-06-07T09:33:50Z</time>
      </trkpt>
      <trkpt lat="45.90265" lon="4.67028">
        <ele>423.41229248047</ele>
        <time>2014-06-07T09:33:53Z</time>
      </trkpt>
      <trkpt lat="45.90253" lon="4.67031">
        <ele>424.7219543457</ele>
        <time>2014-06-07T09:33:57Z</time>
      </trkpt>
      <trkpt lat="45.90242" lon="4.67032">
        <ele>425.13223266602</ele>
        <time>2014-06-07T09:34:00Z</time>
      </trkpt>
      <trkpt lat="45.90238" lon="4.67031">
        <ele>425.20123291016</ele>
        <time>2014-06-07T09:34:02Z</time>
      </trkpt>
      <trkpt lat="45.9023" lon="4.67029">
        <ele>425.32666015625</ele>
        <time>2014-06-07T09:34:05Z</time>
      </trkpt>
      <trkpt lat="45.90219" lon="4.67026">
        <ele>425.49200439453</ele>
        <time>2014-06-07T09:34:10Z</time>
      </trkpt>
      <trkpt lat="45.90218" lon="4.67025">
        <ele>425.50534057617</ele>
        <time>2014-06-07T09:34:11Z</time>
      </trkpt>
      <trkpt lat="45.90211" lon="4.67021">
        <ele>425.57723999023</ele>
        <time>2014-06-07T09:34:13Z</time>
      </trkpt>
      <trkpt lat="45.90209" lon="4.67018">
        <ele>425.59725952148</ele>
        <time>2014-06-07T09:34:14Z</time>
      </trkpt>
      <trkpt lat="45.90208" lon="4.67017">
        <ele>425.61349487305</ele>
        <time>2014-06-07T09:34:15Z</time>
      </trkpt>
      <trkpt lat="45.90197" lon="4.67009">
        <ele>425.70095825195</ele>
        <time>2014-06-07T09:34:19Z</time>
      </trkpt>
      <trkpt lat="45.90185" lon="4.67001">
        <ele>425.78921508789</ele>
        <time>2014-06-07T09:34:23Z</time>
      </trkpt>
      <trkpt lat="45.90182" lon="4.67001">
        <ele>425.81893920898</ele>
        <time>2014-06-07T09:34:24Z</time>
      </trkpt>
      <trkpt lat="45.90172" lon="4.66997">
        <ele>425.67218017578</ele>
        <time>2014-06-07T09:34:28Z</time>
      </trkpt>
      <trkpt lat="45.90156" lon="4.66991">
        <ele>425.66217041016</ele>
        <time>2014-06-07T09:34:33Z</time>
      </trkpt>
      <trkpt lat="45.90144" lon="4.66986">
        <ele>425.75994873047</ele>
        <time>2014-06-07T09:34:37Z</time>
      </trkpt>
      <trkpt lat="45.90134" lon="4.66982">
        <ele>425.92477416992</ele>
        <time>2014-06-07T09:34:40Z</time>
      </trkpt>
      <trkpt lat="45.90119" lon="4.66978">
        <ele>426.32012939453</ele>
        <time>2014-06-07T09:34:43Z</time>
      </trkpt>
      <trkpt lat="45.90099" lon="4.66974">
        <ele>427.02056884766</ele>
        <time>2014-06-07T09:34:48Z</time>
      </trkpt>
      <trkpt lat="45.90088" lon="4.66973">
        <ele>427.52014160156</ele>
        <time>2014-06-07T09:34:51Z</time>
      </trkpt>
      <trkpt lat="45.90081" lon="4.66973">
        <ele>427.87194824219</ele>
        <time>2014-06-07T09:34:53Z</time>
      </trkpt>
      <trkpt lat="45.90064" lon="4.66973">
        <ele>429.13803100586</ele>
        <time>2014-06-07T09:34:58Z</time>
      </trkpt>
      <trkpt lat="45.90061" lon="4.66973">
        <ele>429.33184814453</ele>
        <time>2014-06-07T09:34:59Z</time>
      </trkpt>
      <trkpt lat="45.90058" lon="4.66975">
        <ele>429.6510925293</ele>
        <time>2014-06-07T09:35:00Z</time>
      </trkpt>
      <trkpt lat="45.90051" lon="4.66975">
        <ele>430.16903686523</ele>
        <time>2014-06-07T09:35:02Z</time>
      </trkpt>
      <trkpt lat="45.90039" lon="4.66976">
        <ele>431.11566162109</ele>
        <time>2014-06-07T09:35:06Z</time>
      </trkpt>
      <trkpt lat="45.90032" lon="4.66978">
        <ele>431.73526000977</ele>
        <time>2014-06-07T09:35:08Z</time>
      </trkpt>
      <trkpt lat="45.9002" lon="4.66977">
        <ele>432.59652709961</ele>
        <time>2014-06-07T09:35:12Z</time>
      </trkpt>
      <trkpt lat="45.90013" lon="4.66977">
        <ele>433.08880615234</ele>
        <time>2014-06-07T09:35:15Z</time>
      </trkpt>
      <trkpt lat="45.90007" lon="4.66975">
        <ele>433.34072875977</ele>
        <time>2014-06-07T09:35:17Z</time>
      </trkpt>
      <trkpt lat="45.89999" lon="4.66974">
        <ele>433.85641479492</ele>
        <time>2014-06-07T09:35:20Z</time>
      </trkpt>
      <trkpt lat="45.89988" lon="4.66971">
        <ele>434.12805175781</ele>
        <time>2014-06-07T09:35:23Z</time>
      </trkpt>
      <trkpt lat="45.89976" lon="4.66972">
        <ele>434.77130126953</ele>
        <time>2014-06-07T09:35:27Z</time>
      </trkpt>
      <trkpt lat="45.89967" lon="4.66975">
        <ele>435.49462890625</ele>
        <time>2014-06-07T09:35:30Z</time>
      </trkpt>
      <trkpt lat="45.89963" lon="4.66978">
        <ele>435.99639892578</ele>
        <time>2014-06-07T09:35:32Z</time>
      </trkpt>
      <trkpt lat="45.89956" lon="4.6698">
        <ele>436.56326293945</ele>
        <time>2014-06-07T09:35:35Z</time>
      </trkpt>
      <trkpt lat="45.89952" lon="4.66983">
        <ele>437.12835693359</ele>
        <time>2014-06-07T09:35:37Z</time>
      </trkpt>
      <trkpt lat="45.89939" lon="4.6699">
        <ele>438.59158325195</ele>
        <time>2014-06-07T09:35:42Z</time>
      </trkpt>
      <trkpt lat="45.89935" lon="4.66992">
        <ele>439.00744628906</ele>
        <time>2014-06-07T09:35:43Z</time>
      </trkpt>
      <trkpt lat="45.8992" lon="4.66995">
        <ele>440.24432373047</ele>
        <time>2014-06-07T09:35:48Z</time>
      </trkpt>
      <trkpt lat="45.89917" lon="4.66995">
        <ele>440.45947265625</ele>
        <time>2014-06-07T09:35:49Z</time>
      </trkpt>
      <trkpt lat="45.89902" lon="4.66995">
        <ele>440.98303222656</ele>
        <time>2014-06-07T09:35:54Z</time>
      </trkpt>
      <trkpt lat="45.89896" lon="4.66994">
        <ele>441.1614074707</ele>
        <time>2014-06-07T09:35:56Z</time>
      </trkpt>
      <trkpt lat="45.89884" lon="4.66991">
        <ele>441.27777099609</ele>
        <time>2014-06-07T09:36:00Z</time>
      </trkpt>
      <trkpt lat="45.89864" lon="4.66988">
        <ele>441.82998657227</ele>
        <time>2014-06-07T09:36:06Z</time>
      </trkpt>
      <trkpt lat="45.89861" lon="4.66988">
        <ele>441.92645263672</ele>
        <time>2014-06-07T09:36:07Z</time>
      </trkpt>
      <trkpt lat="45.89844" lon="4.66987">
        <ele>442.56005859375</ele>
        <time>2014-06-07T09:36:12Z</time>
      </trkpt>
      <trkpt lat="45.89834" lon="4.66983">
        <ele>442.73114013672</ele>
        <time>2014-06-07T09:36:15Z</time>
      </trkpt>
      <trkpt lat="45.8983" lon="4.66983">
        <ele>442.90209960938</ele>
        <time>2014-06-07T09:36:16Z</time>
      </trkpt>
      <trkpt lat="45.89827" lon="4.66983">
        <ele>443.00131225586</ele>
        <time>2014-06-07T09:36:17Z</time>
      </trkpt>
      <trkpt lat="45.89811" lon="4.66985">
        <ele>443.88220214844</ele>
        <time>2014-06-07T09:36:22Z</time>
      </trkpt>
      <trkpt lat="45.898" lon="4.66984">
        <ele>444.27734375</ele>
        <time>2014-06-07T09:36:25Z</time>
      </trkpt>
      <trkpt lat="45.89793" lon="4.66983">
        <ele>444.5305480957</ele>
        <time>2014-06-07T09:36:27Z</time>
      </trkpt>
      <trkpt lat="45.89774" lon="4.66981">
        <ele>445.29565429688</ele>
        <time>2014-06-07T09:36:33Z</time>
      </trkpt>
      <trkpt lat="45.89771" lon="4.66981">
        <ele>445.40856933594</ele>
        <time>2014-06-07T09:36:34Z</time>
      </trkpt>
      <trkpt lat="45.89756" lon="4.66979">
        <ele>445.97958374023</ele>
        <time>2014-06-07T09:36:38Z</time>
      </trkpt>
      <trkpt lat="45.8974" lon="4.66977">
        <ele>446.37356567383</ele>
        <time>2014-06-07T09:36:43Z</time>
      </trkpt>
      <trkpt lat="45.89733" lon="4.66975">
        <ele>446.46755981445</ele>
        <time>2014-06-07T09:36:45Z</time>
      </trkpt>
      <trkpt lat="45.89722" lon="4.66975">
        <ele>446.67446899414</ele>
        <time>2014-06-07T09:36:48Z</time>
      </trkpt>
      <trkpt lat="45.89706" lon="4.66972">
        <ele>446.88220214844</ele>
        <time>2014-06-07T09:36:53Z</time>
      </trkpt>
      <trkpt lat="45.89692" lon="4.66969">
        <ele>447.03295898438</ele>
        <time>2014-06-07T09:36:57Z</time>
      </trkpt>
      <trkpt lat="45.89674" lon="4.66966">
        <ele>447.21664428711</ele>
        <time>2014-06-07T09:37:02Z</time>
      </trkpt>
      <trkpt lat="45.89671" lon="4.66965">
        <ele>447.23654174805</ele>
        <time>2014-06-07T09:37:03Z</time>
      </trkpt>
      <trkpt lat="45.89653" lon="4.66961">
        <ele>447.14413452148</ele>
        <time>2014-06-07T09:37:08Z</time>
      </trkpt>
      <trkpt lat="45.89647" lon="4.66957">
        <ele>446.9518737793</ele>
        <time>2014-06-07T09:37:10Z</time>
      </trkpt>
      <trkpt lat="45.89635" lon="4.66954">
        <ele>446.81454467773</ele>
        <time>2014-06-07T09:37:13Z</time>
      </trkpt>
      <trkpt lat="45.8962" lon="4.66953">
        <ele>446.76647949219</ele>
        <time>2014-06-07T09:37:18Z</time>
      </trkpt>
      <trkpt lat="45.89606" lon="4.66952">
        <ele>446.68408203125</ele>
        <time>2014-06-07T09:37:22Z</time>
      </trkpt>
      <trkpt lat="45.89592" lon="4.6695">
        <ele>446.59252929688</ele>
        <time>2014-06-07T09:37:27Z</time>
      </trkpt>
      <trkpt lat="45.89581" lon="4.66949">
        <ele>446.51956176758</ele>
        <time>2014-06-07T09:37:31Z</time>
      </trkpt>
      <trkpt lat="45.89563" lon="4.66949">
        <ele>446.42446899414</ele>
        <time>2014-06-07T09:37:36Z</time>
      </trkpt>
      <trkpt lat="45.89545" lon="4.66947">
        <ele>446.23376464844</ele>
        <time>2014-06-07T09:37:41Z</time>
      </trkpt>
      <trkpt lat="45.89528" lon="4.66945">
        <ele>446.11703491211</ele>
        <time>2014-06-07T09:37:46Z</time>
      </trkpt>
      <trkpt lat="45.89511" lon="4.66944">
        <ele>446.0426940918</ele>
        <time>2014-06-07T09:37:51Z</time>
      </trkpt>
      <trkpt lat="45.8949" lon="4.66944">
        <ele>445.52932739258</ele>
        <time>2014-06-07T09:37:57Z</time>
      </trkpt>
      <trkpt lat="45.89486" lon="4.66944">
        <ele>445.34689331055</ele>
        <time>2014-06-07T09:37:58Z</time>
      </trkpt>
      <trkpt lat="45.89465" lon="4.66944">
        <ele>444.31890869141</ele>
        <time>2014-06-07T09:38:04Z</time>
      </trkpt>
      <trkpt lat="45.89452" lon="4.66948">
        <ele>443.62658691406</ele>
        <time>2014-06-07T09:38:08Z</time>
      </trkpt>
      <trkpt lat="45.89434" lon="4.66949">
        <ele>442.68328857422</ele>
        <time>2014-06-07T09:38:13Z</time>
      </trkpt>
      <trkpt lat="45.8942" lon="4.66949">
        <ele>442.03045654297</ele>
        <time>2014-06-07T09:38:17Z</time>
      </trkpt>
      <trkpt lat="45.89417" lon="4.66949">
        <ele>441.8576965332</ele>
        <time>2014-06-07T09:38:18Z</time>
      </trkpt>
      <trkpt lat="45.89399" lon="4.66949">
        <ele>439.3317565918</ele>
        <time>2014-06-07T09:38:23Z</time>
      </trkpt>
      <trkpt lat="45.89396" lon="4.66949">
        <ele>438.84613037109</ele>
        <time>2014-06-07T09:38:24Z</time>
      </trkpt>
      <trkpt lat="45.89381" lon="4.66948">
        <ele>436.79693603516</ele>
        <time>2014-06-07T09:38:28Z</time>
      </trkpt>
      <trkpt lat="45.89366" lon="4.66947">
        <ele>434.68960571289</ele>
        <time>2014-06-07T09:38:32Z</time>
      </trkpt>
      <trkpt lat="45.89359" lon="4.66946">
        <ele>433.71636962891</ele>
        <time>2014-06-07T09:38:34Z</time>
      </trkpt>
      <trkpt lat="45.89339" lon="4.6694">
        <ele>430.83709716797</ele>
        <time>2014-06-07T09:38:40Z</time>
      </trkpt>
      <trkpt lat="45.89329" lon="4.66934">
        <ele>429.45819091797</ele>
        <time>2014-06-07T09:38:43Z</time>
      </trkpt>
      <trkpt lat="45.89322" lon="4.66933">
        <ele>428.56640625</ele>
        <time>2014-06-07T09:38:45Z</time>
      </trkpt>
      <trkpt lat="45.89316" lon="4.6693">
        <ele>427.71755981445</ele>
        <time>2014-06-07T09:38:47Z</time>
      </trkpt>
      <trkpt lat="45.89314" lon="4.66928">
        <ele>427.41625976562</ele>
        <time>2014-06-07T09:38:48Z</time>
      </trkpt>
      <trkpt lat="45.89303" lon="4.66924">
        <ele>426.05395507812</ele>
        <time>2014-06-07T09:38:51Z</time>
      </trkpt>
      <trkpt lat="45.893" lon="4.66922">
        <ele>425.64691162109</ele>
        <time>2014-06-07T09:38:52Z</time>
      </trkpt>
      <trkpt lat="45.89294" lon="4.6692">
        <ele>424.78189086914</ele>
        <time>2014-06-07T09:38:54Z</time>
      </trkpt>
      <trkpt lat="45.89284" lon="4.66914">
        <ele>423.36730957031</ele>
        <time>2014-06-07T09:38:57Z</time>
      </trkpt>
      <trkpt lat="45.8928" lon="4.66913">
        <ele>422.87442016602</ele>
        <time>2014-06-07T09:38:58Z</time>
      </trkpt>
      <trkpt lat="45.89274" lon="4.6691">
        <ele>421.91632080078</ele>
        <time>2014-06-07T09:39:00Z</time>
      </trkpt>
      <trkpt lat="45.89265" lon="4.66906">
        <ele>420.45083618164</ele>
        <time>2014-06-07T09:39:03Z</time>
      </trkpt>
      <trkpt lat="45.89262" lon="4.66904">
        <ele>419.98715209961</ele>
        <time>2014-06-07T09:39:04Z</time>
      </trkpt>
      <trkpt lat="45.89255" lon="4.66901">
        <ele>418.93740844727</ele>
        <time>2014-06-07T09:39:06Z</time>
      </trkpt>
      <trkpt lat="45.89246" lon="4.66896">
        <ele>417.82574462891</ele>
        <time>2014-06-07T09:39:09Z</time>
      </trkpt>
      <trkpt lat="45.89239" lon="4.66893">
        <ele>417.43258666992</ele>
        <time>2014-06-07T09:39:11Z</time>
      </trkpt>
      <trkpt lat="45.89225" lon="4.66886">
        <ele>416.65484619141</ele>
        <time>2014-06-07T09:39:15Z</time>
      </trkpt>
      <trkpt lat="45.89217" lon="4.66883">
        <ele>416.30682373047</ele>
        <time>2014-06-07T09:39:17Z</time>
      </trkpt>
      <trkpt lat="45.89211" lon="4.6688">
        <ele>415.97552490234</ele>
        <time>2014-06-07T09:39:19Z</time>
      </trkpt>
      <trkpt lat="45.89207" lon="4.66878">
        <ele>415.79946899414</ele>
        <time>2014-06-07T09:39:20Z</time>
      </trkpt>
      <trkpt lat="45.89197" lon="4.66874">
        <ele>415.38256835938</ele>
        <time>2014-06-07T09:39:23Z</time>
      </trkpt>
      <trkpt lat="45.89193" lon="4.66873">
        <ele>415.25726318359</ele>
        <time>2014-06-07T09:39:24Z</time>
      </trkpt>
      <trkpt lat="45.89184" lon="4.6687">
        <ele>414.92041015625</ele>
        <time>2014-06-07T09:39:27Z</time>
      </trkpt>
      <trkpt lat="45.89178" lon="4.66869">
        <ele>414.74291992188</ele>
        <time>2014-06-07T09:39:29Z</time>
      </trkpt>
      <trkpt lat="45.89173" lon="4.66866">
        <ele>414.55456542969</ele>
        <time>2014-06-07T09:39:31Z</time>
      </trkpt>
      <trkpt lat="45.8917" lon="4.66863">
        <ele>414.4362487793</ele>
        <time>2014-06-07T09:39:33Z</time>
      </trkpt>
      <trkpt lat="45.89164" lon="4.6686">
        <ele>414.31857299805</ele>
        <time>2014-06-07T09:39:35Z</time>
      </trkpt>
      <trkpt lat="45.89159" lon="4.66854">
        <ele>414.26986694336</ele>
        <time>2014-06-07T09:39:37Z</time>
      </trkpt>
      <trkpt lat="45.89158" lon="4.66849">
        <ele>414.23672485352</ele>
        <time>2014-06-07T09:39:38Z</time>
      </trkpt>
      <trkpt lat="45.89155" lon="4.6683">
        <ele>413.62301635742</ele>
        <time>2014-06-07T09:39:42Z</time>
      </trkpt>
      <trkpt lat="45.89154" lon="4.66825">
        <ele>412.93905639648</ele>
        <time>2014-06-07T09:39:43Z</time>
      </trkpt>
      <trkpt lat="45.89149" lon="4.66816">
        <ele>411.87066650391</ele>
        <time>2014-06-07T09:39:46Z</time>
      </trkpt>
      <trkpt lat="45.89144" lon="4.66814">
        <ele>411.62905883789</ele>
        <time>2014-06-07T09:39:48Z</time>
      </trkpt>
      <trkpt lat="45.89137" lon="4.66812">
        <ele>411.62051391602</ele>
        <time>2014-06-07T09:39:50Z</time>
      </trkpt>
      <trkpt lat="45.89122" lon="4.66805">
        <ele>411.38394165039</ele>
        <time>2014-06-07T09:39:54Z</time>
      </trkpt>
      <trkpt lat="45.89105" lon="4.66796">
        <ele>411.25045776367</ele>
        <time>2014-06-07T09:39:58Z</time>
      </trkpt>
      <trkpt lat="45.89098" lon="4.66791">
        <ele>411.16076660156</ele>
        <time>2014-06-07T09:40:00Z</time>
      </trkpt>
      <trkpt lat="45.89095" lon="4.66787">
        <ele>411.00628662109</ele>
        <time>2014-06-07T09:40:01Z</time>
      </trkpt>
      <trkpt lat="45.89086" lon="4.66779">
        <ele>410.91421508789</ele>
        <time>2014-06-07T09:40:04Z</time>
      </trkpt>
      <trkpt lat="45.89083" lon="4.66777">
        <ele>410.94808959961</ele>
        <time>2014-06-07T09:40:05Z</time>
      </trkpt>
      <trkpt lat="45.89073" lon="4.66778">
        <ele>411.54281616211</ele>
        <time>2014-06-07T09:40:09Z</time>
      </trkpt>
      <trkpt lat="45.89072" lon="4.6678">
        <ele>411.75952148438</ele>
        <time>2014-06-07T09:40:10Z</time>
      </trkpt>
      <trkpt lat="45.89066" lon="4.66782">
        <ele>412.17471313477</ele>
        <time>2014-06-07T09:40:12Z</time>
      </trkpt>
      <trkpt lat="45.89062" lon="4.66792">
        <ele>413.07183837891</ele>
        <time>2014-06-07T09:40:15Z</time>
      </trkpt>
      <trkpt lat="45.8906" lon="4.66795">
        <ele>413.30996704102</ele>
        <time>2014-06-07T09:40:16Z</time>
      </trkpt>
      <trkpt lat="45.89056" lon="4.66797">
        <ele>413.65142822266</ele>
        <time>2014-06-07T09:40:18Z</time>
      </trkpt>
      <trkpt lat="45.89047" lon="4.66803">
        <ele>414.43222045898</ele>
        <time>2014-06-07T09:40:21Z</time>
      </trkpt>
      <trkpt lat="45.89033" lon="4.66803">
        <ele>415.04983520508</ele>
        <time>2014-06-07T09:40:25Z</time>
      </trkpt>
      <trkpt lat="45.89015" lon="4.66805">
        <ele>415.94290161133</ele>
        <time>2014-06-07T09:40:31Z</time>
      </trkpt>
      <trkpt lat="45.89007" lon="4.66814">
        <ele>416.78726196289</ele>
        <time>2014-06-07T09:40:35Z</time>
      </trkpt>
      <trkpt lat="45.89003" lon="4.6682">
        <ele>417.24450683594</ele>
        <time>2014-06-07T09:40:37Z</time>
      </trkpt>
      <trkpt lat="45.89" lon="4.66821">
        <ele>417.42562866211</ele>
        <time>2014-06-07T09:40:38Z</time>
      </trkpt>
      <trkpt lat="45.88997" lon="4.66829">
        <ele>417.86279296875</ele>
        <time>2014-06-07T09:40:40Z</time>
      </trkpt>
      <trkpt lat="45.88986" lon="4.66841">
        <ele>417.88412475586</ele>
        <time>2014-06-07T09:40:44Z</time>
      </trkpt>
      <trkpt lat="45.88972" lon="4.66855">
        <ele>417.37887573242</ele>
        <time>2014-06-07T09:40:49Z</time>
      </trkpt>
      <trkpt lat="45.88961" lon="4.66868">
        <ele>416.86560058594</ele>
        <time>2014-06-07T09:40:53Z</time>
      </trkpt>
      <trkpt lat="45.88958" lon="4.6687">
        <ele>416.82153320312</ele>
        <time>2014-06-07T09:40:54Z</time>
      </trkpt>
      <trkpt lat="45.88945" lon="4.66879">
        <ele>416.59780883789</ele>
        <time>2014-06-07T09:40:58Z</time>
      </trkpt>
      <trkpt lat="45.88932" lon="4.66885">
        <ele>416.52801513672</ele>
        <time>2014-06-07T09:41:02Z</time>
      </trkpt>
      <trkpt lat="45.88918" lon="4.66896">
        <ele>416.20928955078</ele>
        <time>2014-06-07T09:41:07Z</time>
      </trkpt>
      <trkpt lat="45.88911" lon="4.66899">
        <ele>416.01141357422</ele>
        <time>2014-06-07T09:41:09Z</time>
      </trkpt>
      <trkpt lat="45.88903" lon="4.66902">
        <ele>415.68414306641</ele>
        <time>2014-06-07T09:41:12Z</time>
      </trkpt>
      <trkpt lat="45.88889" lon="4.66908">
        <ele>415.17489624023</ele>
        <time>2014-06-07T09:41:16Z</time>
      </trkpt>
      <trkpt lat="45.88886" lon="4.66909">
        <ele>415.03121948242</ele>
        <time>2014-06-07T09:41:17Z</time>
      </trkpt>
      <trkpt lat="45.88869" lon="4.66919">
        <ele>414.12759399414</ele>
        <time>2014-06-07T09:41:22Z</time>
      </trkpt>
      <trkpt lat="45.88863" lon="4.66923">
        <ele>413.52926635742</ele>
        <time>2014-06-07T09:41:24Z</time>
      </trkpt>
      <trkpt lat="45.88856" lon="4.66927">
        <ele>413.0068359375</ele>
        <time>2014-06-07T09:41:26Z</time>
      </trkpt>
      <trkpt lat="45.88846" lon="4.66933">
        <ele>412.20922851562</ele>
        <time>2014-06-07T09:41:29Z</time>
      </trkpt>
      <trkpt lat="45.88842" lon="4.66934">
        <ele>411.95819091797</ele>
        <time>2014-06-07T09:41:30Z</time>
      </trkpt>
      <trkpt lat="45.88826" lon="4.66944">
        <ele>410.51644897461</ele>
        <time>2014-06-07T09:41:35Z</time>
      </trkpt>
      <trkpt lat="45.88821" lon="4.66947">
        <ele>409.94989013672</ele>
        <time>2014-06-07T09:41:37Z</time>
      </trkpt>
      <trkpt lat="45.88811" lon="4.66949">
        <ele>409.52102661133</ele>
        <time>2014-06-07T09:41:40Z</time>
      </trkpt>
      <trkpt lat="45.88804" lon="4.66948">
        <ele>409.41845703125</ele>
        <time>2014-06-07T09:41:42Z</time>
      </trkpt>
      <trkpt lat="45.88793" lon="4.66948">
        <ele>409.08514404297</ele>
        <time>2014-06-07T09:41:45Z</time>
      </trkpt>
      <trkpt lat="45.88779" lon="4.66949">
        <ele>408.59722900391</ele>
        <time>2014-06-07T09:41:49Z</time>
      </trkpt>
      <trkpt lat="45.88769" lon="4.6695">
        <ele>408.15447998047</ele>
        <time>2014-06-07T09:41:52Z</time>
      </trkpt>
      <trkpt lat="45.88755" lon="4.6695">
        <ele>407.77017211914</ele>
        <time>2014-06-07T09:41:56Z</time>
      </trkpt>
      <trkpt lat="45.88753" lon="4.66951">
        <ele>407.59289550781</ele>
        <time>2014-06-07T09:41:57Z</time>
      </trkpt>
      <trkpt lat="45.88738" lon="4.66954">
        <ele>406.38110351562</ele>
        <time>2014-06-07T09:42:01Z</time>
      </trkpt>
      <trkpt lat="45.88732" lon="4.66955">
        <ele>405.736328125</ele>
        <time>2014-06-07T09:42:03Z</time>
      </trkpt>
      <trkpt lat="45.88728" lon="4.66957">
        <ele>405.33053588867</ele>
        <time>2014-06-07T09:42:04Z</time>
      </trkpt>
      <trkpt lat="45.88728" lon="4.66957">
        <ele>405.33053588867</ele>
        <time>2014-06-07T09:42:04Z</time>
      </trkpt>
      <trkpt lat="45.88717" lon="4.66959">
        <ele>404.22872924805</ele>
        <time>2014-06-07T09:42:07Z</time>
      </trkpt>
      <trkpt lat="45.8871" lon="4.6696">
        <ele>403.55999755859</ele>
        <time>2014-06-07T09:42:09Z</time>
      </trkpt>
      <trkpt lat="45.88699" lon="4.6696">
        <ele>402.90621948242</ele>
        <time>2014-06-07T09:42:12Z</time>
      </trkpt>
      <trkpt lat="45.88692" lon="4.66959">
        <ele>402.61999511719</ele>
        <time>2014-06-07T09:42:14Z</time>
      </trkpt>
      <trkpt lat="45.88688" lon="4.66959">
        <ele>402.3508605957</ele>
        <time>2014-06-07T09:42:15Z</time>
      </trkpt>
      <trkpt lat="45.8867" lon="4.66959">
        <ele>401.01919555664</ele>
        <time>2014-06-07T09:42:20Z</time>
      </trkpt>
      <trkpt lat="45.88649" lon="4.6696">
        <ele>400.93139648438</ele>
        <time>2014-06-07T09:42:26Z</time>
      </trkpt>
      <trkpt lat="45.8863" lon="4.66962">
        <ele>400.94955444336</ele>
        <time>2014-06-07T09:42:32Z</time>
      </trkpt>
      <trkpt lat="45.88614" lon="4.66965">
        <ele>400.68435668945</ele>
        <time>2014-06-07T09:42:37Z</time>
      </trkpt>
      <trkpt lat="45.88607" lon="4.66965">
        <ele>400.83038330078</ele>
        <time>2014-06-07T09:42:39Z</time>
      </trkpt>
      <trkpt lat="45.88586" lon="4.66966">
        <ele>400.95953369141</ele>
        <time>2014-06-07T09:42:45Z</time>
      </trkpt>
      <trkpt lat="45.88567" lon="4.66975">
        <ele>398.79904174805</ele>
        <time>2014-06-07T09:42:51Z</time>
      </trkpt>
      <trkpt lat="45.88556" lon="4.66987">
        <ele>396.39358520508</ele>
        <time>2014-06-07T09:42:55Z</time>
      </trkpt>
      <trkpt lat="45.88548" lon="4.66996">
        <ele>394.64447021484</ele>
        <time>2014-06-07T09:42:58Z</time>
      </trkpt>
      <trkpt lat="45.88539" lon="4.67004">
        <ele>393.29580688477</ele>
        <time>2014-06-07T09:43:01Z</time>
      </trkpt>
      <trkpt lat="45.88528" lon="4.67017">
        <ele>391.23645019531</ele>
        <time>2014-06-07T09:43:05Z</time>
      </trkpt>
      <trkpt lat="45.88522" lon="4.67024">
        <ele>390.19805908203</ele>
        <time>2014-06-07T09:43:07Z</time>
      </trkpt>
      <trkpt lat="45.88511" lon="4.67036">
        <ele>388.05166625977</ele>
        <time>2014-06-07T09:43:11Z</time>
      </trkpt>
      <trkpt lat="45.88499" lon="4.67049">
        <ele>385.7366027832</ele>
        <time>2014-06-07T09:43:15Z</time>
      </trkpt>
      <trkpt lat="45.88494" lon="4.67055">
        <ele>384.88223266602</ele>
        <time>2014-06-07T09:43:17Z</time>
      </trkpt>
      <trkpt lat="45.88488" lon="4.67061">
        <ele>383.94046020508</ele>
        <time>2014-06-07T09:43:19Z</time>
      </trkpt>
      <trkpt lat="45.8848" lon="4.6707">
        <ele>382.52828979492</ele>
        <time>2014-06-07T09:43:22Z</time>
      </trkpt>
      <trkpt lat="45.88477" lon="4.67073">
        <ele>382.24490356445</ele>
        <time>2014-06-07T09:43:23Z</time>
      </trkpt>
      <trkpt lat="45.88471" lon="4.67078">
        <ele>381.46560668945</ele>
        <time>2014-06-07T09:43:25Z</time>
      </trkpt>
      <trkpt lat="45.88466" lon="4.67084">
        <ele>380.65823364258</ele>
        <time>2014-06-07T09:43:27Z</time>
      </trkpt>
      <trkpt lat="45.88463" lon="4.67087">
        <ele>380.26385498047</ele>
        <time>2014-06-07T09:43:28Z</time>
      </trkpt>
      <trkpt lat="45.88452" lon="4.67101">
        <ele>378.32852172852</ele>
        <time>2014-06-07T09:43:32Z</time>
      </trkpt>
      <trkpt lat="45.88447" lon="4.67106">
        <ele>377.45809936523</ele>
        <time>2014-06-07T09:43:34Z</time>
      </trkpt>
      <trkpt lat="45.88441" lon="4.67112">
        <ele>376.49560546875</ele>
        <time>2014-06-07T09:43:36Z</time>
      </trkpt>
      <trkpt lat="45.88435" lon="4.67119">
        <ele>375.36462402344</ele>
        <time>2014-06-07T09:43:38Z</time>
      </trkpt>
      <trkpt lat="45.88426" lon="4.67128">
        <ele>373.64379882812</ele>
        <time>2014-06-07T09:43:41Z</time>
      </trkpt>
      <trkpt lat="45.8842" lon="4.67134">
        <ele>372.42297363281</ele>
        <time>2014-06-07T09:43:43Z</time>
      </trkpt>
      <trkpt lat="45.88413" lon="4.6714">
        <ele>371.39337158203</ele>
        <time>2014-06-07T09:43:45Z</time>
      </trkpt>
      <trkpt lat="45.88407" lon="4.67145">
        <ele>370.71771240234</ele>
        <time>2014-06-07T09:43:47Z</time>
      </trkpt>
      <trkpt lat="45.884" lon="4.6715">
        <ele>370.15356445312</ele>
        <time>2014-06-07T09:43:49Z</time>
      </trkpt>
      <trkpt lat="45.8839" lon="4.67157">
        <ele>369.42401123047</ele>
        <time>2014-06-07T09:43:52Z</time>
      </trkpt>
      <trkpt lat="45.8838" lon="4.67163">
        <ele>368.95059204102</ele>
        <time>2014-06-07T09:43:55Z</time>
      </trkpt>
      <trkpt lat="45.88369" lon="4.67168">
        <ele>368.66235351562</ele>
        <time>2014-06-07T09:43:58Z</time>
      </trkpt>
      <trkpt lat="45.88366" lon="4.67168">
        <ele>368.82073974609</ele>
        <time>2014-06-07T09:43:59Z</time>
      </trkpt>
      <trkpt lat="45.88353" lon="4.67171">
        <ele>368.94268798828</ele>
        <time>2014-06-07T09:44:03Z</time>
      </trkpt>
      <trkpt lat="45.88338" lon="4.67171">
        <ele>369.72653198242</ele>
        <time>2014-06-07T09:44:07Z</time>
      </trkpt>
      <trkpt lat="45.88319" lon="4.6717">
        <ele>369.93966674805</ele>
        <time>2014-06-07T09:44:13Z</time>
      </trkpt>
      <trkpt lat="45.88313" lon="4.67169">
        <ele>370.02127075195</ele>
        <time>2014-06-07T09:44:15Z</time>
      </trkpt>
      <trkpt lat="45.88293" lon="4.67166">
        <ele>370.09860229492</ele>
        <time>2014-06-07T09:44:21Z</time>
      </trkpt>
      <trkpt lat="45.88291" lon="4.67166">
        <ele>370.0989074707</ele>
        <time>2014-06-07T09:44:22Z</time>
      </trkpt>
      <trkpt lat="45.88274" lon="4.67164">
        <ele>370.04632568359</ele>
        <time>2014-06-07T09:44:27Z</time>
      </trkpt>
      <trkpt lat="45.88271" lon="4.67164">
        <ele>370.04174804688</ele>
        <time>2014-06-07T09:44:28Z</time>
      </trkpt>
      <trkpt lat="45.88252" lon="4.67161">
        <ele>370.15194702148</ele>
        <time>2014-06-07T09:44:34Z</time>
      </trkpt>
      <trkpt lat="45.88234" lon="4.6716">
        <ele>370.8020324707</ele>
        <time>2014-06-07T09:44:39Z</time>
      </trkpt>
      <trkpt lat="45.88217" lon="4.6716">
        <ele>371.44714355469</ele>
        <time>2014-06-07T09:44:44Z</time>
      </trkpt>
      <trkpt lat="45.88214" lon="4.6716">
        <ele>371.45162963867</ele>
        <time>2014-06-07T09:44:45Z</time>
      </trkpt>
      <trkpt lat="45.88197" lon="4.6716">
        <ele>372.03735351562</ele>
        <time>2014-06-07T09:44:50Z</time>
      </trkpt>
      <trkpt lat="45.88176" lon="4.6716">
        <ele>372.70324707031</ele>
        <time>2014-06-07T09:44:56Z</time>
      </trkpt>
      <trkpt lat="45.88159" lon="4.67158">
        <ele>373.06845092773</ele>
        <time>2014-06-07T09:45:01Z</time>
      </trkpt>
      <trkpt lat="45.88139" lon="4.67157">
        <ele>372.79879760742</ele>
        <time>2014-06-07T09:45:07Z</time>
      </trkpt>
      <trkpt lat="45.88119" lon="4.67154">
        <ele>372.8147277832</ele>
        <time>2014-06-07T09:45:13Z</time>
      </trkpt>
      <trkpt lat="45.88106" lon="4.6716">
        <ele>371.57144165039</ele>
        <time>2014-06-07T09:45:18Z</time>
      </trkpt>
      <trkpt lat="45.88096" lon="4.6717">
        <ele>369.85131835938</ele>
        <time>2014-06-07T09:45:22Z</time>
      </trkpt>
      <trkpt lat="45.88094" lon="4.67181">
        <ele>368.17910766602</ele>
        <time>2014-06-07T09:45:24Z</time>
      </trkpt>
      <trkpt lat="45.88092" lon="4.67191">
        <ele>366.61404418945</ele>
        <time>2014-06-07T09:45:26Z</time>
      </trkpt>
      <trkpt lat="45.88088" lon="4.67201">
        <ele>365.08795166016</ele>
        <time>2014-06-07T09:45:28Z</time>
      </trkpt>
      <trkpt lat="45.88087" lon="4.6721">
        <ele>363.81881713867</ele>
        <time>2014-06-07T09:45:30Z</time>
      </trkpt>
      <trkpt lat="45.88083" lon="4.67224">
        <ele>361.75085449219</ele>
        <time>2014-06-07T09:45:33Z</time>
      </trkpt>
      <trkpt lat="45.88081" lon="4.67229">
        <ele>361.064453125</ele>
        <time>2014-06-07T09:45:34Z</time>
      </trkpt>
      <trkpt lat="45.88078" lon="4.67245">
        <ele>358.82531738281</ele>
        <time>2014-06-07T09:45:37Z</time>
      </trkpt>
      <trkpt lat="45.88074" lon="4.6726">
        <ele>357.19372558594</ele>
        <time>2014-06-07T09:45:40Z</time>
      </trkpt>
      <trkpt lat="45.88072" lon="4.67269">
        <ele>356.36904907227</ele>
        <time>2014-06-07T09:45:42Z</time>
      </trkpt>
      <trkpt lat="45.88068" lon="4.67281">
        <ele>355.31274414062</ele>
        <time>2014-06-07T09:45:45Z</time>
      </trkpt>
      <trkpt lat="45.88063" lon="4.67292">
        <ele>354.47994995117</ele>
        <time>2014-06-07T09:45:47Z</time>
      </trkpt>
      <trkpt lat="45.88057" lon="4.67306">
        <ele>353.40048217773</ele>
        <time>2014-06-07T09:45:50Z</time>
      </trkpt>
      <trkpt lat="45.88055" lon="4.6731">
        <ele>353.06155395508</ele>
        <time>2014-06-07T09:45:51Z</time>
      </trkpt>
      <trkpt lat="45.88051" lon="4.67318">
        <ele>352.45629882812</ele>
        <time>2014-06-07T09:45:53Z</time>
      </trkpt>
      <trkpt lat="45.88044" lon="4.67335">
        <ele>351.42736816406</ele>
        <time>2014-06-07T09:45:57Z</time>
      </trkpt>
      <trkpt lat="45.88033" lon="4.67358">
        <ele>352.00323486328</ele>
        <time>2014-06-07T09:46:03Z</time>
      </trkpt>
      <trkpt lat="45.88031" lon="4.67363">
        <ele>352.15420532227</ele>
        <time>2014-06-07T09:46:04Z</time>
      </trkpt>
      <trkpt lat="45.8802" lon="4.67387">
        <ele>353.26245117188</ele>
        <time>2014-06-07T09:46:10Z</time>
      </trkpt>
      <trkpt lat="45.88019" lon="4.67391">
        <ele>353.45440673828</ele>
        <time>2014-06-07T09:46:11Z</time>
      </trkpt>
      <trkpt lat="45.88011" lon="4.67406">
        <ele>354.56268310547</ele>
        <time>2014-06-07T09:46:16Z</time>
      </trkpt>
      <trkpt lat="45.8801" lon="4.67409">
        <ele>354.73687744141</ele>
        <time>2014-06-07T09:46:17Z</time>
      </trkpt>
      <trkpt lat="45.88005" lon="4.67417">
        <ele>355.462890625</ele>
        <time>2014-06-07T09:46:20Z</time>
      </trkpt>
      <trkpt lat="45.88002" lon="4.67422">
        <ele>355.87664794922</ele>
        <time>2014-06-07T09:46:22Z</time>
      </trkpt>
      <trkpt lat="45.88001" lon="4.67425">
        <ele>356.06365966797</ele>
        <time>2014-06-07T09:46:23Z</time>
      </trkpt>
      <trkpt lat="45.87997" lon="4.67433">
        <ele>356.69934082031</ele>
        <time>2014-06-07T09:46:26Z</time>
      </trkpt>
      <trkpt lat="45.87997" lon="4.67433">
        <ele>356.69934082031</ele>
        <time>2014-06-07T09:46:26Z</time>
      </trkpt>
      <trkpt lat="45.87993" lon="4.6744">
        <ele>357.31265258789</ele>
        <time>2014-06-07T09:46:29Z</time>
      </trkpt>
      <trkpt lat="45.87991" lon="4.67445">
        <ele>357.75155639648</ele>
        <time>2014-06-07T09:46:31Z</time>
      </trkpt>
      <trkpt lat="45.87986" lon="4.67454">
        <ele>358.49877929688</ele>
        <time>2014-06-07T09:46:34Z</time>
      </trkpt>
      <trkpt lat="45.87984" lon="4.67457">
        <ele>358.83450317383</ele>
        <time>2014-06-07T09:46:35Z</time>
      </trkpt>
      <trkpt lat="45.87982" lon="4.67464">
        <ele>359.36404418945</ele>
        <time>2014-06-07T09:46:37Z</time>
      </trkpt>
      <trkpt lat="45.87978" lon="4.67472">
        <ele>360.20040893555</ele>
        <time>2014-06-07T09:46:40Z</time>
      </trkpt>
      <trkpt lat="45.87975" lon="4.67478">
        <ele>360.70114135742</ele>
        <time>2014-06-07T09:46:42Z</time>
      </trkpt>
      <trkpt lat="45.87973" lon="4.67481">
        <ele>361.14456176758</ele>
        <time>2014-06-07T09:46:43Z</time>
      </trkpt>
      <trkpt lat="45.87968" lon="4.67489">
        <ele>362.13067626953</ele>
        <time>2014-06-07T09:46:46Z</time>
      </trkpt>
      <trkpt lat="45.87967" lon="4.67492">
        <ele>362.42984008789</ele>
        <time>2014-06-07T09:46:47Z</time>
      </trkpt>
      <trkpt lat="45.87957" lon="4.67509">
        <ele>364.25073242188</ele>
        <time>2014-06-07T09:46:52Z</time>
      </trkpt>
      <trkpt lat="45.8795" lon="4.67523">
        <ele>365.50622558594</ele>
        <time>2014-06-07T09:46:56Z</time>
      </trkpt>
      <trkpt lat="45.87947" lon="4.67529">
        <ele>366.1181640625</ele>
        <time>2014-06-07T09:46:58Z</time>
      </trkpt>
      <trkpt lat="45.87943" lon="4.67536">
        <ele>366.75717163086</ele>
        <time>2014-06-07T09:47:00Z</time>
      </trkpt>
      <trkpt lat="45.87933" lon="4.67559">
        <ele>368.72476196289</ele>
        <time>2014-06-07T09:47:06Z</time>
      </trkpt>
      <trkpt lat="45.87932" lon="4.67562">
        <ele>369.04144287109</ele>
        <time>2014-06-07T09:47:07Z</time>
      </trkpt>
      <trkpt lat="45.87925" lon="4.67582">
        <ele>370.52233886719</ele>
        <time>2014-06-07T09:47:12Z</time>
      </trkpt>
      <trkpt lat="45.8792" lon="4.6761">
        <ele>371.12460327148</ele>
        <time>2014-06-07T09:47:18Z</time>
      </trkpt>
      <trkpt lat="45.87914" lon="4.67631">
        <ele>371.55130004883</ele>
        <time>2014-06-07T09:47:23Z</time>
      </trkpt>
      <trkpt lat="45.87911" lon="4.67634">
        <ele>371.64093017578</ele>
        <time>2014-06-07T09:47:24Z</time>
      </trkpt>
      <trkpt lat="45.87905" lon="4.67641">
        <ele>371.80648803711</ele>
        <time>2014-06-07T09:47:27Z</time>
      </trkpt>
      <trkpt lat="45.87899" lon="4.67651">
        <ele>371.91952514648</ele>
        <time>2014-06-07T09:47:31Z</time>
      </trkpt>
      <trkpt lat="45.87895" lon="4.67658">
        <ele>371.95291137695</ele>
        <time>2014-06-07T09:47:33Z</time>
      </trkpt>
      <trkpt lat="45.87892" lon="4.67678">
        <ele>371.54364013672</ele>
        <time>2014-06-07T09:47:38Z</time>
      </trkpt>
      <trkpt lat="45.87891" lon="4.67687">
        <ele>371.3092956543</ele>
        <time>2014-06-07T09:47:40Z</time>
      </trkpt>
      <trkpt lat="45.87889" lon="4.67702">
        <ele>370.85473632812</ele>
        <time>2014-06-07T09:47:44Z</time>
      </trkpt>
      <trkpt lat="45.87888" lon="4.67706">
        <ele>370.72970581055</ele>
        <time>2014-06-07T09:47:45Z</time>
      </trkpt>
      <trkpt lat="45.87883" lon="4.67723">
        <ele>370.18127441406</ele>
        <time>2014-06-07T09:47:49Z</time>
      </trkpt>
      <trkpt lat="45.87881" lon="4.6774">
        <ele>369.54431152344</ele>
        <time>2014-06-07T09:47:53Z</time>
      </trkpt>
      <trkpt lat="45.87884" lon="4.67743">
        <ele>369.46633911133</ele>
        <time>2014-06-07T09:47:54Z</time>
      </trkpt>
      <trkpt lat="45.87888" lon="4.67747">
        <ele>369.42739868164</ele>
        <time>2014-06-07T09:47:56Z</time>
      </trkpt>
      <trkpt lat="45.87891" lon="4.67748">
        <ele>369.45449829102</ele>
        <time>2014-06-07T09:47:57Z</time>
      </trkpt>
      <trkpt lat="45.87894" lon="4.67749">
        <ele>369.48455810547</ele>
        <time>2014-06-07T09:47:58Z</time>
      </trkpt>
      <trkpt lat="45.8791" lon="4.67761">
        <ele>369.04769897461</ele>
        <time>2014-06-07T09:48:03Z</time>
      </trkpt>
      <trkpt lat="45.87922" lon="4.67779">
        <ele>367.81021118164</ele>
        <time>2014-06-07T09:48:08Z</time>
      </trkpt>
      <trkpt lat="45.87924" lon="4.67781">
        <ele>367.55319213867</ele>
        <time>2014-06-07T09:48:09Z</time>
      </trkpt>
      <trkpt lat="45.8793" lon="4.67793">
        <ele>366.55044555664</ele>
        <time>2014-06-07T09:48:12Z</time>
      </trkpt>
      <trkpt lat="45.87937" lon="4.67807">
        <ele>365.51617431641</ele>
        <time>2014-06-07T09:48:15Z</time>
      </trkpt>
      <trkpt lat="45.87943" lon="4.67812">
        <ele>365.0478515625</ele>
        <time>2014-06-07T09:48:17Z</time>
      </trkpt>
      <trkpt lat="45.87952" lon="4.67818">
        <ele>364.50979614258</ele>
        <time>2014-06-07T09:48:20Z</time>
      </trkpt>
      <trkpt lat="45.87973" lon="4.67826">
        <ele>363.74160766602</ele>
        <time>2014-06-07T09:48:26Z</time>
      </trkpt>
      <trkpt lat="45.87993" lon="4.67833">
        <ele>363.10504150391</ele>
        <time>2014-06-07T09:48:32Z</time>
      </trkpt>
      <trkpt lat="45.8801" lon="4.67837">
        <ele>363.02453613281</ele>
        <time>2014-06-07T09:48:37Z</time>
      </trkpt>
      <trkpt lat="45.88028" lon="4.6784">
        <ele>363.10159301758</ele>
        <time>2014-06-07T09:48:42Z</time>
      </trkpt>
      <trkpt lat="45.88039" lon="4.67842">
        <ele>363.12817382812</ele>
        <time>2014-06-07T09:48:45Z</time>
      </trkpt>
      <trkpt lat="45.88049" lon="4.67844">
        <ele>363.08319091797</ele>
        <time>2014-06-07T09:48:48Z</time>
      </trkpt>
      <trkpt lat="45.88065" lon="4.67852">
        <ele>362.80908203125</ele>
        <time>2014-06-07T09:48:53Z</time>
      </trkpt>
      <trkpt lat="45.88078" lon="4.67859">
        <ele>362.45645141602</ele>
        <time>2014-06-07T09:48:57Z</time>
      </trkpt>
      <trkpt lat="45.88082" lon="4.67861">
        <ele>362.3606262207</ele>
        <time>2014-06-07T09:48:58Z</time>
      </trkpt>
      <trkpt lat="45.88099" lon="4.67869">
        <ele>361.37481689453</ele>
        <time>2014-06-07T09:49:03Z</time>
      </trkpt>
      <trkpt lat="45.88101" lon="4.67871">
        <ele>361.18295288086</ele>
        <time>2014-06-07T09:49:04Z</time>
      </trkpt>
      <trkpt lat="45.88108" lon="4.67875">
        <ele>360.74444580078</ele>
        <time>2014-06-07T09:49:06Z</time>
      </trkpt>
      <trkpt lat="45.8812" lon="4.67884">
        <ele>359.90512084961</ele>
        <time>2014-06-07T09:49:10Z</time>
      </trkpt>
      <trkpt lat="45.88132" lon="4.67894">
        <ele>359.04443359375</ele>
        <time>2014-06-07T09:49:14Z</time>
      </trkpt>
      <trkpt lat="45.88138" lon="4.67899">
        <ele>358.61169433594</ele>
        <time>2014-06-07T09:49:16Z</time>
      </trkpt>
      <trkpt lat="45.88147" lon="4.67905">
        <ele>358.03189086914</ele>
        <time>2014-06-07T09:49:19Z</time>
      </trkpt>
      <trkpt lat="45.88157" lon="4.67912">
        <ele>357.46252441406</ele>
        <time>2014-06-07T09:49:22Z</time>
      </trkpt>
      <trkpt lat="45.8816" lon="4.67915">
        <ele>357.26116943359</ele>
        <time>2014-06-07T09:49:23Z</time>
      </trkpt>
      <trkpt lat="45.88173" lon="4.67924">
        <ele>356.10104370117</ele>
        <time>2014-06-07T09:49:27Z</time>
      </trkpt>
      <trkpt lat="45.88177" lon="4.67926">
        <ele>355.72760009766</ele>
        <time>2014-06-07T09:49:28Z</time>
      </trkpt>
      <trkpt lat="45.88189" lon="4.67934">
        <ele>354.45062255859</ele>
        <time>2014-06-07T09:49:32Z</time>
      </trkpt>
      <trkpt lat="45.88192" lon="4.67936">
        <ele>354.13833618164</ele>
        <time>2014-06-07T09:49:33Z</time>
      </trkpt>
      <trkpt lat="45.88206" lon="4.67945">
        <ele>352.82998657227</ele>
        <time>2014-06-07T09:49:37Z</time>
      </trkpt>
      <trkpt lat="45.88213" lon="4.67947">
        <ele>352.25057983398</ele>
        <time>2014-06-07T09:49:39Z</time>
      </trkpt>
      <trkpt lat="45.88224" lon="4.6795">
        <ele>351.43560791016</ele>
        <time>2014-06-07T09:49:42Z</time>
      </trkpt>
      <trkpt lat="45.88234" lon="4.67954">
        <ele>350.63464355469</ele>
        <time>2014-06-07T09:49:45Z</time>
      </trkpt>
      <trkpt lat="45.88237" lon="4.67956">
        <ele>350.36590576172</ele>
        <time>2014-06-07T09:49:46Z</time>
      </trkpt>
      <trkpt lat="45.88257" lon="4.67963">
        <ele>348.77014160156</ele>
        <time>2014-06-07T09:49:52Z</time>
      </trkpt>
      <trkpt lat="45.88274" lon="4.67972">
        <ele>347.24295043945</ele>
        <time>2014-06-07T09:49:57Z</time>
      </trkpt>
      <trkpt lat="45.8828" lon="4.67978">
        <ele>346.68280029297</ele>
        <time>2014-06-07T09:49:59Z</time>
      </trkpt>
      <trkpt lat="45.88286" lon="4.67985">
        <ele>346.12680053711</ele>
        <time>2014-06-07T09:50:01Z</time>
      </trkpt>
      <trkpt lat="45.88289" lon="4.67989">
        <ele>345.88366699219</ele>
        <time>2014-06-07T09:50:02Z</time>
      </trkpt>
      <trkpt lat="45.88294" lon="4.67996">
        <ele>345.43182373047</ele>
        <time>2014-06-07T09:50:04Z</time>
      </trkpt>
      <trkpt lat="45.88302" lon="4.68008">
        <ele>344.88903808594</ele>
        <time>2014-06-07T09:50:07Z</time>
      </trkpt>
      <trkpt lat="45.88304" lon="4.68012">
        <ele>344.75170898438</ele>
        <time>2014-06-07T09:50:08Z</time>
      </trkpt>
      <trkpt lat="45.88313" lon="4.68023">
        <ele>344.20239257812</ele>
        <time>2014-06-07T09:50:11Z</time>
      </trkpt>
      <trkpt lat="45.8833" lon="4.68042">
        <ele>343.21820068359</ele>
        <time>2014-06-07T09:50:17Z</time>
      </trkpt>
      <trkpt lat="45.88332" lon="4.68044">
        <ele>343.08087158203</ele>
        <time>2014-06-07T09:50:18Z</time>
      </trkpt>
      <trkpt lat="45.88344" lon="4.68059">
        <ele>342.23547363281</ele>
        <time>2014-06-07T09:50:23Z</time>
      </trkpt>
      <trkpt lat="45.88353" lon="4.68068">
        <ele>341.71444702148</ele>
        <time>2014-06-07T09:50:26Z</time>
      </trkpt>
      <trkpt lat="45.88356" lon="4.68071">
        <ele>341.53915405273</ele>
        <time>2014-06-07T09:50:27Z</time>
      </trkpt>
      <trkpt lat="45.88372" lon="4.68083">
        <ele>340.6989440918</ele>
        <time>2014-06-07T09:50:32Z</time>
      </trkpt>
      <trkpt lat="45.88385" lon="4.68096">
        <ele>340.62042236328</ele>
        <time>2014-06-07T09:50:37Z</time>
      </trkpt>
      <trkpt lat="45.88397" lon="4.68104">
        <ele>340.44018554688</ele>
        <time>2014-06-07T09:50:41Z</time>
      </trkpt>
      <trkpt lat="45.884" lon="4.68107">
        <ele>340.45449829102</ele>
        <time>2014-06-07T09:50:42Z</time>
      </trkpt>
      <trkpt lat="45.88417" lon="4.6812">
        <ele>340.21975708008</ele>
        <time>2014-06-07T09:50:48Z</time>
      </trkpt>
      <trkpt lat="45.8842" lon="4.68123">
        <ele>340.05670166016</ele>
        <time>2014-06-07T09:50:49Z</time>
      </trkpt>
      <trkpt lat="45.88432" lon="4.68131">
        <ele>339.63381958008</ele>
        <time>2014-06-07T09:50:53Z</time>
      </trkpt>
      <trkpt lat="45.88438" lon="4.68136">
        <ele>339.37805175781</ele>
        <time>2014-06-07T09:50:55Z</time>
      </trkpt>
      <trkpt lat="45.88456" lon="4.68151">
        <ele>338.79669189453</ele>
        <time>2014-06-07T09:51:01Z</time>
      </trkpt>
      <trkpt lat="45.88458" lon="4.68154">
        <ele>338.74118041992</ele>
        <time>2014-06-07T09:51:02Z</time>
      </trkpt>
      <trkpt lat="45.88458" lon="4.68154">
        <ele>338.74118041992</ele>
        <time>2014-06-07T09:51:02Z</time>
      </trkpt>
      <trkpt lat="45.88461" lon="4.68156">
        <ele>338.63131713867</ele>
        <time>2014-06-07T09:51:03Z</time>
      </trkpt>
      <trkpt lat="45.88478" lon="4.6817">
        <ele>338.08453369141</ele>
        <time>2014-06-07T09:51:09Z</time>
      </trkpt>
      <trkpt lat="45.88497" lon="4.68186">
        <ele>337.62789916992</ele>
        <time>2014-06-07T09:51:15Z</time>
      </trkpt>
      <trkpt lat="45.88509" lon="4.68197">
        <ele>337.39065551758</ele>
        <time>2014-06-07T09:51:19Z</time>
      </trkpt>
      <trkpt lat="45.88515" lon="4.68203">
        <ele>337.30816650391</ele>
        <time>2014-06-07T09:51:21Z</time>
      </trkpt>
      <trkpt lat="45.8853" lon="4.6822">
        <ele>337.12396240234</ele>
        <time>2014-06-07T09:51:27Z</time>
      </trkpt>
      <trkpt lat="45.88543" lon="4.68234">
        <ele>336.84585571289</ele>
        <time>2014-06-07T09:51:32Z</time>
      </trkpt>
      <trkpt lat="45.88559" lon="4.68251">
        <ele>336.41320800781</ele>
        <time>2014-06-07T09:51:38Z</time>
      </trkpt>
      <trkpt lat="45.88573" lon="4.68265">
        <ele>335.55197143555</ele>
        <time>2014-06-07T09:51:43Z</time>
      </trkpt>
      <trkpt lat="45.88575" lon="4.68273">
        <ele>335.6530456543</ele>
        <time>2014-06-07T09:51:45Z</time>
      </trkpt>
      <trkpt lat="45.88574" lon="4.68277">
        <ele>335.82235717773</ele>
        <time>2014-06-07T09:51:46Z</time>
      </trkpt>
      <trkpt lat="45.8857" lon="4.68286">
        <ele>336.53427124023</ele>
        <time>2014-06-07T09:51:49Z</time>
      </trkpt>
      <trkpt lat="45.88567" lon="4.68292">
        <ele>337.01168823242</ele>
        <time>2014-06-07T09:51:51Z</time>
      </trkpt>
      <trkpt lat="45.88563" lon="4.68296">
        <ele>337.49197387695</ele>
        <time>2014-06-07T09:51:53Z</time>
      </trkpt>
      <trkpt lat="45.8856" lon="4.68296">
        <ele>337.77563476562</ele>
        <time>2014-06-07T09:51:54Z</time>
      </trkpt>
      <trkpt lat="45.88557" lon="4.68296">
        <ele>337.99423217773</ele>
        <time>2014-06-07T09:51:55Z</time>
      </trkpt>
      <trkpt lat="45.88544" lon="4.68289">
        <ele>338.92422485352</ele>
        <time>2014-06-07T09:52:00Z</time>
      </trkpt>
      <trkpt lat="45.8854" lon="4.68287">
        <ele>339.3014831543</ele>
        <time>2014-06-07T09:52:02Z</time>
      </trkpt>
      <trkpt lat="45.88524" lon="4.68279">
        <ele>340.47299194336</ele>
        <time>2014-06-07T09:52:08Z</time>
      </trkpt>
      <trkpt lat="45.88519" lon="4.68276">
        <ele>340.90930175781</ele>
        <time>2014-06-07T09:52:10Z</time>
      </trkpt>
      <trkpt lat="45.88509" lon="4.6827">
        <ele>341.64831542969</ele>
        <time>2014-06-07T09:52:14Z</time>
      </trkpt>
      <trkpt lat="45.88506" lon="4.68269">
        <ele>341.86245727539</ele>
        <time>2014-06-07T09:52:15Z</time>
      </trkpt>
      <trkpt lat="45.88499" lon="4.68264">
        <ele>342.43124389648</ele>
        <time>2014-06-07T09:52:18Z</time>
      </trkpt>
      <trkpt lat="45.88492" lon="4.68259">
        <ele>342.91955566406</ele>
        <time>2014-06-07T09:52:21Z</time>
      </trkpt>
      <trkpt lat="45.88481" lon="4.68252">
        <ele>343.68612670898</ele>
        <time>2014-06-07T09:52:26Z</time>
      </trkpt>
      <trkpt lat="45.88478" lon="4.68252">
        <ele>343.86538696289</ele>
        <time>2014-06-07T09:52:27Z</time>
      </trkpt>
      <trkpt lat="45.8847" lon="4.68252">
        <ele>344.62808227539</ele>
        <time>2014-06-07T09:52:31Z</time>
      </trkpt>
      <trkpt lat="45.88466" lon="4.68253">
        <ele>345.00076293945</ele>
        <time>2014-06-07T09:52:33Z</time>
      </trkpt>
      <trkpt lat="45.88464" lon="4.68253">
        <ele>345.20352172852</ele>
        <time>2014-06-07T09:52:34Z</time>
      </trkpt>
      <trkpt lat="45.88455" lon="4.68254">
        <ele>345.95498657227</ele>
        <time>2014-06-07T09:52:38Z</time>
      </trkpt>
      <trkpt lat="45.88445" lon="4.68253">
        <ele>346.79516601562</ele>
        <time>2014-06-07T09:52:42Z</time>
      </trkpt>
      <trkpt lat="45.88441" lon="4.68254">
        <ele>347.20477294922</ele>
        <time>2014-06-07T09:52:44Z</time>
      </trkpt>
      <trkpt lat="45.88436" lon="4.68255">
        <ele>347.64874267578</ele>
        <time>2014-06-07T09:52:46Z</time>
      </trkpt>
      <trkpt lat="45.8843" lon="4.68255">
        <ele>348.22012329102</ele>
        <time>2014-06-07T09:52:49Z</time>
      </trkpt>
      <trkpt lat="45.88428" lon="4.68255">
        <ele>348.36996459961</ele>
        <time>2014-06-07T09:52:50Z</time>
      </trkpt>
      <trkpt lat="45.88421" lon="4.68255">
        <ele>348.96481323242</ele>
        <time>2014-06-07T09:52:53Z</time>
      </trkpt>
      <trkpt lat="45.88413" lon="4.68255">
        <ele>349.64532470703</ele>
        <time>2014-06-07T09:52:56Z</time>
      </trkpt>
      <trkpt lat="45.88403" lon="4.68254">
        <ele>350.47503662109</ele>
        <time>2014-06-07T09:53:00Z</time>
      </trkpt>
      <trkpt lat="45.884" lon="4.68255">
        <ele>350.71307373047</ele>
        <time>2014-06-07T09:53:01Z</time>
      </trkpt>
      <trkpt lat="45.8839" lon="4.68257">
        <ele>351.75448608398</ele>
        <time>2014-06-07T09:53:05Z</time>
      </trkpt>
      <trkpt lat="45.88385" lon="4.68258">
        <ele>352.21112060547</ele>
        <time>2014-06-07T09:53:07Z</time>
      </trkpt>
      <trkpt lat="45.88371" lon="4.6826">
        <ele>353.5397644043</ele>
        <time>2014-06-07T09:53:13Z</time>
      </trkpt>
      <trkpt lat="45.88367" lon="4.68261">
        <ele>353.98266601562</ele>
        <time>2014-06-07T09:53:15Z</time>
      </trkpt>
      <trkpt lat="45.88357" lon="4.68261">
        <ele>354.82952880859</ele>
        <time>2014-06-07T09:53:19Z</time>
      </trkpt>
      <trkpt lat="45.88355" lon="4.68261">
        <ele>354.98284912109</ele>
        <time>2014-06-07T09:53:20Z</time>
      </trkpt>
      <trkpt lat="45.88346" lon="4.68263">
        <ele>355.85604858398</ele>
        <time>2014-06-07T09:53:24Z</time>
      </trkpt>
      <trkpt lat="45.88344" lon="4.68264">
        <ele>356.08264160156</ele>
        <time>2014-06-07T09:53:25Z</time>
      </trkpt>
      <trkpt lat="45.88342" lon="4.68265">
        <ele>356.34014892578</ele>
        <time>2014-06-07T09:53:26Z</time>
      </trkpt>
      <trkpt lat="45.88335" lon="4.68268">
        <ele>357.15609741211</ele>
        <time>2014-06-07T09:53:29Z</time>
      </trkpt>
      <trkpt lat="45.88333" lon="4.6827">
        <ele>357.49057006836</ele>
        <time>2014-06-07T09:53:30Z</time>
      </trkpt>
      <trkpt lat="45.8833" lon="4.68271">
        <ele>357.76345825195</ele>
        <time>2014-06-07T09:53:31Z</time>
      </trkpt>
      <trkpt lat="45.88321" lon="4.68275">
        <ele>358.71304321289</ele>
        <time>2014-06-07T09:53:35Z</time>
      </trkpt>
      <trkpt lat="45.88311" lon="4.68279">
        <ele>359.68063354492</ele>
        <time>2014-06-07T09:53:39Z</time>
      </trkpt>
      <trkpt lat="45.88305" lon="4.6828">
        <ele>360.12719726562</ele>
        <time>2014-06-07T09:53:41Z</time>
      </trkpt>
      <trkpt lat="45.88292" lon="4.68282">
        <ele>361.10205078125</ele>
        <time>2014-06-07T09:53:46Z</time>
      </trkpt>
      <trkpt lat="45.8829" lon="4.68282">
        <ele>361.30615234375</ele>
        <time>2014-06-07T09:53:47Z</time>
      </trkpt>
      <trkpt lat="45.88281" lon="4.68285">
        <ele>361.94470214844</ele>
        <time>2014-06-07T09:53:50Z</time>
      </trkpt>
      <trkpt lat="45.88278" lon="4.68285">
        <ele>362.15353393555</ele>
        <time>2014-06-07T09:53:51Z</time>
      </trkpt>
      <trkpt lat="45.88261" lon="4.68289">
        <ele>363.33242797852</ele>
        <time>2014-06-07T09:53:57Z</time>
      </trkpt>
      <trkpt lat="45.88254" lon="4.68287">
        <ele>363.73306274414</ele>
        <time>2014-06-07T09:53:59Z</time>
      </trkpt>
      <trkpt lat="45.88245" lon="4.68285">
        <ele>364.08535766602</ele>
        <time>2014-06-07T09:54:02Z</time>
      </trkpt>
      <trkpt lat="45.88232" lon="4.68286">
        <ele>364.30908203125</ele>
        <time>2014-06-07T09:54:06Z</time>
      </trkpt>
      <trkpt lat="45.88214" lon="4.68291">
        <ele>364.64254760742</ele>
        <time>2014-06-07T09:54:12Z</time>
      </trkpt>
      <trkpt lat="45.88208" lon="4.68293">
        <ele>364.76248168945</ele>
        <time>2014-06-07T09:54:14Z</time>
      </trkpt>
      <trkpt lat="45.88192" lon="4.68295">
        <ele>365.07675170898</ele>
        <time>2014-06-07T09:54:19Z</time>
      </trkpt>
      <trkpt lat="45.88174" lon="4.68294">
        <ele>365.40472412109</ele>
        <time>2014-06-07T09:54:24Z</time>
      </trkpt>
      <trkpt lat="45.88155" lon="4.68292">
        <ele>365.86096191406</ele>
        <time>2014-06-07T09:54:30Z</time>
      </trkpt>
      <trkpt lat="45.88142" lon="4.68289">
        <ele>366.22439575195</ele>
        <time>2014-06-07T09:54:34Z</time>
      </trkpt>
      <trkpt lat="45.88126" lon="4.68286">
        <ele>366.73974609375</ele>
        <time>2014-06-07T09:54:39Z</time>
      </trkpt>
      <trkpt lat="45.88113" lon="4.68281">
        <ele>367.21026611328</ele>
        <time>2014-06-07T09:54:43Z</time>
      </trkpt>
      <trkpt lat="45.88107" lon="4.6828">
        <ele>367.45318603516</ele>
        <time>2014-06-07T09:54:45Z</time>
      </trkpt>
      <trkpt lat="45.88094" lon="4.68277">
        <ele>367.96578979492</ele>
        <time>2014-06-07T09:54:49Z</time>
      </trkpt>
      <trkpt lat="45.88091" lon="4.68276">
        <ele>368.10345458984</ele>
        <time>2014-06-07T09:54:50Z</time>
      </trkpt>
      <trkpt lat="45.88078" lon="4.68274">
        <ele>368.61126708984</ele>
        <time>2014-06-07T09:54:54Z</time>
      </trkpt>
      <trkpt lat="45.88065" lon="4.68271">
        <ele>369.14801025391</ele>
        <time>2014-06-07T09:54:58Z</time>
      </trkpt>
      <trkpt lat="45.88055" lon="4.68269">
        <ele>369.56683349609</ele>
        <time>2014-06-07T09:55:01Z</time>
      </trkpt>
      <trkpt lat="45.88035" lon="4.68265">
        <ele>370.39080810547</ele>
        <time>2014-06-07T09:55:07Z</time>
      </trkpt>
      <trkpt lat="45.88015" lon="4.6826">
        <ele>371.19647216797</ele>
        <time>2014-06-07T09:55:13Z</time>
      </trkpt>
      <trkpt lat="45.88003" lon="4.68258">
        <ele>371.68515014648</ele>
        <time>2014-06-07T09:55:17Z</time>
      </trkpt>
      <trkpt lat="45.87994" lon="4.68256">
        <ele>372.24978637695</ele>
        <time>2014-06-07T09:55:20Z</time>
      </trkpt>
      <trkpt lat="45.8798" lon="4.6825">
        <ele>373.45742797852</ele>
        <time>2014-06-07T09:55:25Z</time>
      </trkpt>
      <trkpt lat="45.87976" lon="4.6825">
        <ele>373.68743896484</ele>
        <time>2014-06-07T09:55:26Z</time>
      </trkpt>
      <trkpt lat="45.87964" lon="4.68248">
        <ele>374.53643798828</ele>
        <time>2014-06-07T09:55:30Z</time>
      </trkpt>
      <trkpt lat="45.87961" lon="4.68247">
        <ele>374.78463745117</ele>
        <time>2014-06-07T09:55:31Z</time>
      </trkpt>
      <trkpt lat="45.87946" lon="4.68248">
        <ele>375.85330200195</ele>
        <time>2014-06-07T09:55:36Z</time>
      </trkpt>
      <trkpt lat="45.87938" lon="4.68251">
        <ele>376.43829345703</ele>
        <time>2014-06-07T09:55:39Z</time>
      </trkpt>
      <trkpt lat="45.87932" lon="4.68254">
        <ele>376.55917358398</ele>
        <time>2014-06-07T09:55:41Z</time>
      </trkpt>
      <trkpt lat="45.87916" lon="4.68272">
        <ele>376.12554931641</ele>
        <time>2014-06-07T09:55:47Z</time>
      </trkpt>
      <trkpt lat="45.87899" lon="4.68284">
        <ele>375.38836669922</ele>
        <time>2014-06-07T09:55:53Z</time>
      </trkpt>
      <trkpt lat="45.8788" lon="4.68292">
        <ele>374.91537475586</ele>
        <time>2014-06-07T09:55:59Z</time>
      </trkpt>
      <trkpt lat="45.87863" lon="4.683">
        <ele>374.21160888672</ele>
        <time>2014-06-07T09:56:04Z</time>
      </trkpt>
      <trkpt lat="45.87843" lon="4.6831">
        <ele>373.03872680664</ele>
        <time>2014-06-07T09:56:10Z</time>
      </trkpt>
      <trkpt lat="45.87835" lon="4.68314">
        <ele>372.52435302734</ele>
        <time>2014-06-07T09:56:13Z</time>
      </trkpt>
      <trkpt lat="45.87828" lon="4.68318">
        <ele>372.27911376953</ele>
        <time>2014-06-07T09:56:15Z</time>
      </trkpt>
      <trkpt lat="45.87812" lon="4.68327">
        <ele>372.1286315918</ele>
        <time>2014-06-07T09:56:20Z</time>
      </trkpt>
      <trkpt lat="45.87806" lon="4.6833">
        <ele>372.04165649414</ele>
        <time>2014-06-07T09:56:22Z</time>
      </trkpt>
      <trkpt lat="45.87796" lon="4.68335">
        <ele>372.00616455078</ele>
        <time>2014-06-07T09:56:25Z</time>
      </trkpt>
      <trkpt lat="45.87782" lon="4.6834">
        <ele>371.95989990234</ele>
        <time>2014-06-07T09:56:29Z</time>
      </trkpt>
      <trkpt lat="45.87773" lon="4.68345">
        <ele>371.78610229492</ele>
        <time>2014-06-07T09:56:32Z</time>
      </trkpt>
      <trkpt lat="45.8777" lon="4.68348">
        <ele>371.38821411133</ele>
        <time>2014-06-07T09:56:33Z</time>
      </trkpt>
      <trkpt lat="45.87761" lon="4.68355">
        <ele>370.83984375</ele>
        <time>2014-06-07T09:56:36Z</time>
      </trkpt>
      <trkpt lat="45.87757" lon="4.68357">
        <ele>370.70758056641</ele>
        <time>2014-06-07T09:56:37Z</time>
      </trkpt>
      <trkpt lat="45.87754" lon="4.68358">
        <ele>370.59359741211</ele>
        <time>2014-06-07T09:56:38Z</time>
      </trkpt>
      <trkpt lat="45.87751" lon="4.6836">
        <ele>370.43453979492</ele>
        <time>2014-06-07T09:56:39Z</time>
      </trkpt>
      <trkpt lat="45.8774" lon="4.68365">
        <ele>369.85418701172</ele>
        <time>2014-06-07T09:56:42Z</time>
      </trkpt>
      <trkpt lat="45.87737" lon="4.68366">
        <ele>369.71304321289</ele>
        <time>2014-06-07T09:56:43Z</time>
      </trkpt>
      <trkpt lat="45.87718" lon="4.6837">
        <ele>369.37133789062</ele>
        <time>2014-06-07T09:56:48Z</time>
      </trkpt>
      <trkpt lat="45.87714" lon="4.6837">
        <ele>369.40628051758</ele>
        <time>2014-06-07T09:56:49Z</time>
      </trkpt>
      <trkpt lat="45.87696" lon="4.68374">
        <ele>369.14477539062</ele>
        <time>2014-06-07T09:56:54Z</time>
      </trkpt>
      <trkpt lat="45.87675" lon="4.68379">
        <ele>368.79116821289</ele>
        <time>2014-06-07T09:57:00Z</time>
      </trkpt>
      <trkpt lat="45.87672" lon="4.68379">
        <ele>368.72018432617</ele>
        <time>2014-06-07T09:57:01Z</time>
      </trkpt>
      <trkpt lat="45.87654" lon="4.68382">
        <ele>366.98220825195</ele>
        <time>2014-06-07T09:57:06Z</time>
      </trkpt>
      <trkpt lat="45.87638" lon="4.68385">
        <ele>364.89199829102</ele>
        <time>2014-06-07T09:57:11Z</time>
      </trkpt>
      <trkpt lat="45.87628" lon="4.68387">
        <ele>363.76611328125</ele>
        <time>2014-06-07T09:57:14Z</time>
      </trkpt>
      <trkpt lat="45.87618" lon="4.68389">
        <ele>362.65396118164</ele>
        <time>2014-06-07T09:57:17Z</time>
      </trkpt>
      <trkpt lat="45.87611" lon="4.6839">
        <ele>361.92004394531</ele>
        <time>2014-06-07T09:57:19Z</time>
      </trkpt>
      <trkpt lat="45.87601" lon="4.68391">
        <ele>361.00094604492</ele>
        <time>2014-06-07T09:57:22Z</time>
      </trkpt>
      <trkpt lat="45.87598" lon="4.68392">
        <ele>360.6858215332</ele>
        <time>2014-06-07T09:57:23Z</time>
      </trkpt>
      <trkpt lat="45.87587" lon="4.68392">
        <ele>359.73760986328</ele>
        <time>2014-06-07T09:57:26Z</time>
      </trkpt>
      <trkpt lat="45.8758" lon="4.68393">
        <ele>359.06838989258</ele>
        <time>2014-06-07T09:57:28Z</time>
      </trkpt>
      <trkpt lat="45.87566" lon="4.68395">
        <ele>357.43310546875</ele>
        <time>2014-06-07T09:57:32Z</time>
      </trkpt>
      <trkpt lat="45.87556" lon="4.68398">
        <ele>356.36614990234</ele>
        <time>2014-06-07T09:57:35Z</time>
      </trkpt>
      <trkpt lat="45.8755" lon="4.684">
        <ele>355.76260375977</ele>
        <time>2014-06-07T09:57:37Z</time>
      </trkpt>
      <trkpt lat="45.8754" lon="4.68402">
        <ele>354.87844848633</ele>
        <time>2014-06-07T09:57:40Z</time>
      </trkpt>
      <trkpt lat="45.87537" lon="4.68403">
        <ele>354.63702392578</ele>
        <time>2014-06-07T09:57:41Z</time>
      </trkpt>
      <trkpt lat="45.87523" lon="4.68402">
        <ele>353.11749267578</ele>
        <time>2014-06-07T09:57:45Z</time>
      </trkpt>
      <trkpt lat="45.87522" lon="4.68399">
        <ele>352.54122924805</ele>
        <time>2014-06-07T09:57:46Z</time>
      </trkpt>
      <trkpt lat="45.87523" lon="4.68394">
        <ele>352.06536865234</ele>
        <time>2014-06-07T09:57:47Z</time>
      </trkpt>
      <trkpt lat="45.87531" lon="4.68384">
        <ele>351.79580688477</ele>
        <time>2014-06-07T09:57:50Z</time>
      </trkpt>
      <trkpt lat="45.87533" lon="4.6838">
        <ele>351.70333862305</ele>
        <time>2014-06-07T09:57:51Z</time>
      </trkpt>
      <trkpt lat="45.87542" lon="4.68366">
        <ele>351.69143676758</ele>
        <time>2014-06-07T09:57:55Z</time>
      </trkpt>
      <trkpt lat="45.87544" lon="4.68362">
        <ele>351.6272277832</ele>
        <time>2014-06-07T09:57:56Z</time>
      </trkpt>
      <trkpt lat="45.87553" lon="4.68352">
        <ele>352.45397949219</ele>
        <time>2014-06-07T09:57:59Z</time>
      </trkpt>
      <trkpt lat="45.8756" lon="4.68336">
        <ele>352.7145690918</ele>
        <time>2014-06-07T09:58:03Z</time>
      </trkpt>
      <trkpt lat="45.87566" lon="4.68317">
        <ele>352.2135925293</ele>
        <time>2014-06-07T09:58:07Z</time>
      </trkpt>
      <trkpt lat="45.87568" lon="4.68314">
        <ele>352.2077331543</ele>
        <time>2014-06-07T09:58:08Z</time>
      </trkpt>
      <trkpt lat="45.87575" lon="4.68295">
        <ele>351.74951171875</ele>
        <time>2014-06-07T09:58:12Z</time>
      </trkpt>
      <trkpt lat="45.87575" lon="4.6829">
        <ele>351.33758544922</ele>
        <time>2014-06-07T09:58:13Z</time>
      </trkpt>
      <trkpt lat="45.87576" lon="4.68264">
        <ele>348.74465942383</ele>
        <time>2014-06-07T09:58:18Z</time>
      </trkpt>
      <trkpt lat="45.87578" lon="4.68244">
        <ele>347.05429077148</ele>
        <time>2014-06-07T09:58:22Z</time>
      </trkpt>
      <trkpt lat="45.87579" lon="4.68233">
        <ele>346.25598144531</ele>
        <time>2014-06-07T09:58:24Z</time>
      </trkpt>
      <trkpt lat="45.87579" lon="4.68222">
        <ele>345.37057495117</ele>
        <time>2014-06-07T09:58:26Z</time>
      </trkpt>
      <trkpt lat="45.87581" lon="4.68207">
        <ele>344.33666992188</ele>
        <time>2014-06-07T09:58:29Z</time>
      </trkpt>
      <trkpt lat="45.87582" lon="4.68202">
        <ele>344.12777709961</ele>
        <time>2014-06-07T09:58:30Z</time>
      </trkpt>
      <trkpt lat="45.87585" lon="4.68182">
        <ele>342.8727722168</ele>
        <time>2014-06-07T09:58:34Z</time>
      </trkpt>
      <trkpt lat="45.87587" lon="4.68161">
        <ele>341.99066162109</ele>
        <time>2014-06-07T09:58:38Z</time>
      </trkpt>
      <trkpt lat="45.87589" lon="4.68151">
        <ele>342.09896850586</ele>
        <time>2014-06-07T09:58:40Z</time>
      </trkpt>
      <trkpt lat="45.87591" lon="4.68135">
        <ele>342.18783569336</ele>
        <time>2014-06-07T09:58:43Z</time>
      </trkpt>
      <trkpt lat="45.87596" lon="4.68111">
        <ele>342.32638549805</ele>
        <time>2014-06-07T09:58:48Z</time>
      </trkpt>
      <trkpt lat="45.87601" lon="4.68087">
        <ele>342.27828979492</ele>
        <time>2014-06-07T09:58:53Z</time>
      </trkpt>
      <trkpt lat="45.87606" lon="4.68062">
        <ele>342.56085205078</ele>
        <time>2014-06-07T09:58:58Z</time>
      </trkpt>
      <trkpt lat="45.87609" lon="4.68033">
        <ele>342.14419555664</ele>
        <time>2014-06-07T09:59:04Z</time>
      </trkpt>
      <trkpt lat="45.8761" lon="4.68027">
        <ele>342.08163452148</ele>
        <time>2014-06-07T09:59:05Z</time>
      </trkpt>
      <trkpt lat="45.87611" lon="4.68016">
        <ele>341.89739990234</ele>
        <time>2014-06-07T09:59:07Z</time>
      </trkpt>
      <trkpt lat="45.87612" lon="4.68002">
        <ele>341.51858520508</ele>
        <time>2014-06-07T09:59:10Z</time>
      </trkpt>
      <trkpt lat="45.87611" lon="4.67991">
        <ele>341.32131958008</ele>
        <time>2014-06-07T09:59:12Z</time>
      </trkpt>
      <trkpt lat="45.87608" lon="4.67983">
        <ele>340.93502807617</ele>
        <time>2014-06-07T09:59:14Z</time>
      </trkpt>
      <trkpt lat="45.87603" lon="4.67976">
        <ele>340.40350341797</ele>
        <time>2014-06-07T09:59:16Z</time>
      </trkpt>
      <trkpt lat="45.87592" lon="4.6797">
        <ele>339.32543945312</ele>
        <time>2014-06-07T09:59:19Z</time>
      </trkpt>
      <trkpt lat="45.87585" lon="4.67969">
        <ele>338.56240844727</ele>
        <time>2014-06-07T09:59:21Z</time>
      </trkpt>
      <trkpt lat="45.87576" lon="4.67972">
        <ele>337.09741210938</ele>
        <time>2014-06-07T09:59:24Z</time>
      </trkpt>
      <trkpt lat="45.87572" lon="4.67973">
        <ele>336.51248168945</ele>
        <time>2014-06-07T09:59:25Z</time>
      </trkpt>
      <trkpt lat="45.87566" lon="4.67978">
        <ele>335.36206054688</ele>
        <time>2014-06-07T09:59:27Z</time>
      </trkpt>
      <trkpt lat="45.8756" lon="4.67984">
        <ele>334.25177001953</ele>
        <time>2014-06-07T09:59:29Z</time>
      </trkpt>
      <trkpt lat="45.87545" lon="4.67994">
        <ele>331.42483520508</ele>
        <time>2014-06-07T09:59:34Z</time>
      </trkpt>
      <trkpt lat="45.87539" lon="4.67991">
        <ele>330.33264160156</ele>
        <time>2014-06-07T09:59:36Z</time>
      </trkpt>
      <trkpt lat="45.87531" lon="4.67981">
        <ele>329.51162719727</ele>
        <time>2014-06-07T09:59:39Z</time>
      </trkpt>
      <trkpt lat="45.87529" lon="4.67977">
        <ele>329.32473754883</ele>
        <time>2014-06-07T09:59:40Z</time>
      </trkpt>
      <trkpt lat="45.87523" lon="4.67963">
        <ele>329.25216674805</ele>
        <time>2014-06-07T09:59:43Z</time>
      </trkpt>
      <trkpt lat="45.87522" lon="4.67958">
        <ele>329.36303710938</ele>
        <time>2014-06-07T09:59:44Z</time>
      </trkpt>
      <trkpt lat="45.87521" lon="4.67953">
        <ele>329.41305541992</ele>
        <time>2014-06-07T09:59:45Z</time>
      </trkpt>
      <trkpt lat="45.87516" lon="4.67934">
        <ele>329.79574584961</ele>
        <time>2014-06-07T09:59:49Z</time>
      </trkpt>
      <trkpt lat="45.87509" lon="4.67915">
        <ele>330.31286621094</ele>
        <time>2014-06-07T09:59:54Z</time>
      </trkpt>
      <trkpt lat="45.87505" lon="4.67905">
        <ele>330.87530517578</ele>
        <time>2014-06-07T09:59:57Z</time>
      </trkpt>
      <trkpt lat="45.87501" lon="4.67896">
        <ele>331.34689331055</ele>
        <time>2014-06-07T10:00:00Z</time>
      </trkpt>
      <trkpt lat="45.87498" lon="4.6789">
        <ele>331.7197265625</ele>
        <time>2014-06-07T10:00:02Z</time>
      </trkpt>
      <trkpt lat="45.87491" lon="4.67877">
        <ele>332.55612182617</ele>
        <time>2014-06-07T10:00:06Z</time>
      </trkpt>
      <trkpt lat="45.87485" lon="4.67865">
        <ele>333.38134765625</ele>
        <time>2014-06-07T10:00:10Z</time>
      </trkpt>
      <trkpt lat="45.87482" lon="4.67859">
        <ele>333.80172729492</ele>
        <time>2014-06-07T10:00:12Z</time>
      </trkpt>
      <trkpt lat="45.87477" lon="4.6785">
        <ele>334.41900634766</ele>
        <time>2014-06-07T10:00:15Z</time>
      </trkpt>
      <trkpt lat="45.87473" lon="4.67845">
        <ele>334.80865478516</ele>
        <time>2014-06-07T10:00:17Z</time>
      </trkpt>
      <trkpt lat="45.8747" lon="4.67839">
        <ele>335.21038818359</ele>
        <time>2014-06-07T10:00:19Z</time>
      </trkpt>
      <trkpt lat="45.87465" lon="4.67828">
        <ele>336.25775146484</ele>
        <time>2014-06-07T10:00:23Z</time>
      </trkpt>
      <trkpt lat="45.87463" lon="4.67826">
        <ele>336.57263183594</ele>
        <time>2014-06-07T10:00:24Z</time>
      </trkpt>
      <trkpt lat="45.87457" lon="4.67814">
        <ele>337.90289306641</ele>
        <time>2014-06-07T10:00:28Z</time>
      </trkpt>
      <trkpt lat="45.87452" lon="4.67806">
        <ele>338.81518554688</ele>
        <time>2014-06-07T10:00:31Z</time>
      </trkpt>
      <trkpt lat="45.87446" lon="4.67801">
        <ele>339.24526977539</ele>
        <time>2014-06-07T10:00:34Z</time>
      </trkpt>
      <trkpt lat="45.87439" lon="4.67795">
        <ele>339.79327392578</ele>
        <time>2014-06-07T10:00:37Z</time>
      </trkpt>
      <trkpt lat="45.87432" lon="4.6779">
        <ele>340.2004699707</ele>
        <time>2014-06-07T10:00:40Z</time>
      </trkpt>
      <trkpt lat="45.87421" lon="4.67784">
        <ele>340.48715209961</ele>
        <time>2014-06-07T10:00:44Z</time>
      </trkpt>
      <trkpt lat="45.87419" lon="4.67783">
        <ele>340.5400390625</ele>
        <time>2014-06-07T10:00:45Z</time>
      </trkpt>
      <trkpt lat="45.87401" lon="4.67777">
        <ele>341.33871459961</ele>
        <time>2014-06-07T10:00:51Z</time>
      </trkpt>
      <trkpt lat="45.87389" lon="4.67772">
        <ele>341.95318603516</ele>
        <time>2014-06-07T10:00:55Z</time>
      </trkpt>
      <trkpt lat="45.87383" lon="4.6777">
        <ele>342.26031494141</ele>
        <time>2014-06-07T10:00:57Z</time>
      </trkpt>
      <trkpt lat="45.87368" lon="4.67765">
        <ele>342.73217773438</ele>
        <time>2014-06-07T10:01:02Z</time>
      </trkpt>
      <trkpt lat="45.87352" lon="4.6776">
        <ele>343.17813110352</ele>
        <time>2014-06-07T10:01:07Z</time>
      </trkpt>
      <trkpt lat="45.87337" lon="4.67755">
        <ele>343.47817993164</ele>
        <time>2014-06-07T10:01:11Z</time>
      </trkpt>
      <trkpt lat="45.87331" lon="4.67752">
        <ele>343.55044555664</ele>
        <time>2014-06-07T10:01:13Z</time>
      </trkpt>
      <trkpt lat="45.87324" lon="4.6775">
        <ele>343.45989990234</ele>
        <time>2014-06-07T10:01:15Z</time>
      </trkpt>
      <trkpt lat="45.87303" lon="4.67744">
        <ele>342.80529785156</ele>
        <time>2014-06-07T10:01:21Z</time>
      </trkpt>
      <trkpt lat="45.87289" lon="4.67741">
        <ele>342.17816162109</ele>
        <time>2014-06-07T10:01:25Z</time>
      </trkpt>
      <trkpt lat="45.87273" lon="4.67733">
        <ele>342.01794433594</ele>
        <time>2014-06-07T10:01:31Z</time>
      </trkpt>
      <trkpt lat="45.8726" lon="4.67723">
        <ele>342.21020507812</ele>
        <time>2014-06-07T10:01:36Z</time>
      </trkpt>
      <trkpt lat="45.87248" lon="4.67708">
        <ele>342.91491699219</ele>
        <time>2014-06-07T10:01:41Z</time>
      </trkpt>
      <trkpt lat="45.87237" lon="4.67684">
        <ele>344.14642333984</ele>
        <time>2014-06-07T10:01:47Z</time>
      </trkpt>
      <trkpt lat="45.87235" lon="4.6768">
        <ele>344.34893798828</ele>
        <time>2014-06-07T10:01:48Z</time>
      </trkpt>
      <trkpt lat="45.87226" lon="4.6766">
        <ele>344.96908569336</ele>
        <time>2014-06-07T10:01:53Z</time>
      </trkpt>
      <trkpt lat="45.87216" lon="4.67635">
        <ele>345.0671081543</ele>
        <time>2014-06-07T10:01:59Z</time>
      </trkpt>
      <trkpt lat="45.87209" lon="4.67618">
        <ele>345.06240844727</ele>
        <time>2014-06-07T10:02:03Z</time>
      </trkpt>
      <trkpt lat="45.87205" lon="4.67609">
        <ele>345.08984375</ele>
        <time>2014-06-07T10:02:05Z</time>
      </trkpt>
      <trkpt lat="45.87195" lon="4.67589">
        <ele>345.11004638672</ele>
        <time>2014-06-07T10:02:10Z</time>
      </trkpt>
      <trkpt lat="45.8719" lon="4.67581">
        <ele>345.05880737305</ele>
        <time>2014-06-07T10:02:12Z</time>
      </trkpt>
      <trkpt lat="45.87181" lon="4.67565">
        <ele>344.80862426758</ele>
        <time>2014-06-07T10:02:16Z</time>
      </trkpt>
      <trkpt lat="45.8717" lon="4.67543">
        <ele>344.67889404297</ele>
        <time>2014-06-07T10:02:21Z</time>
      </trkpt>
      <trkpt lat="45.87157" lon="4.6752">
        <ele>344.51019287109</ele>
        <time>2014-06-07T10:02:27Z</time>
      </trkpt>
      <trkpt lat="45.87153" lon="4.67512">
        <ele>344.42892456055</ele>
        <time>2014-06-07T10:02:29Z</time>
      </trkpt>
      <trkpt lat="45.87145" lon="4.67497">
        <ele>344.30096435547</ele>
        <time>2014-06-07T10:02:33Z</time>
      </trkpt>
      <trkpt lat="45.87133" lon="4.67475">
        <ele>343.97802734375</ele>
        <time>2014-06-07T10:02:39Z</time>
      </trkpt>
      <trkpt lat="45.87132" lon="4.67471">
        <ele>343.93347167969</ele>
        <time>2014-06-07T10:02:40Z</time>
      </trkpt>
      <trkpt lat="45.87128" lon="4.67463">
        <ele>343.84216308594</ele>
        <time>2014-06-07T10:02:42Z</time>
      </trkpt>
      <trkpt lat="45.87122" lon="4.67451">
        <ele>343.65173339844</ele>
        <time>2014-06-07T10:02:45Z</time>
      </trkpt>
      <trkpt lat="45.87112" lon="4.67431">
        <ele>343.33908081055</ele>
        <time>2014-06-07T10:02:50Z</time>
      </trkpt>
      <trkpt lat="45.87102" lon="4.67411">
        <ele>342.80419921875</ele>
        <time>2014-06-07T10:02:55Z</time>
      </trkpt>
      <trkpt lat="45.87091" lon="4.67385">
        <ele>341.7421875</ele>
        <time>2014-06-07T10:03:01Z</time>
      </trkpt>
      <trkpt lat="45.87081" lon="4.67359">
        <ele>340.77462768555</ele>
        <time>2014-06-07T10:03:07Z</time>
      </trkpt>
      <trkpt lat="45.87077" lon="4.6735">
        <ele>340.48132324219</ele>
        <time>2014-06-07T10:03:09Z</time>
      </trkpt>
      <trkpt lat="45.87071" lon="4.67332">
        <ele>339.90225219727</ele>
        <time>2014-06-07T10:03:13Z</time>
      </trkpt>
      <trkpt lat="45.87064" lon="4.67315">
        <ele>338.52896118164</ele>
        <time>2014-06-07T10:03:17Z</time>
      </trkpt>
      <trkpt lat="45.87063" lon="4.67311">
        <ele>338.19479370117</ele>
        <time>2014-06-07T10:03:18Z</time>
      </trkpt>
      <trkpt lat="45.87056" lon="4.67293">
        <ele>336.81692504883</ele>
        <time>2014-06-07T10:03:22Z</time>
      </trkpt>
      <trkpt lat="45.87053" lon="4.67284">
        <ele>336.09594726562</ele>
        <time>2014-06-07T10:03:24Z</time>
      </trkpt>
      <trkpt lat="45.87051" lon="4.6728">
        <ele>335.75262451172</ele>
        <time>2014-06-07T10:03:25Z</time>
      </trkpt>
      <trkpt lat="45.87048" lon="4.67271">
        <ele>335.03622436523</ele>
        <time>2014-06-07T10:03:27Z</time>
      </trkpt>
      <trkpt lat="45.87045" lon="4.67262">
        <ele>334.35415649414</ele>
        <time>2014-06-07T10:03:29Z</time>
      </trkpt>
      <trkpt lat="45.87043" lon="4.67257">
        <ele>333.99252319336</ele>
        <time>2014-06-07T10:03:30Z</time>
      </trkpt>
      <trkpt lat="45.87039" lon="4.67239">
        <ele>332.71078491211</ele>
        <time>2014-06-07T10:03:34Z</time>
      </trkpt>
      <trkpt lat="45.87036" lon="4.67223">
        <ele>331.74948120117</ele>
        <time>2014-06-07T10:03:37Z</time>
      </trkpt>
      <trkpt lat="45.87034" lon="4.67207">
        <ele>330.78817749023</ele>
        <time>2014-06-07T10:03:40Z</time>
      </trkpt>
      <trkpt lat="45.87032" lon="4.67191">
        <ele>329.86578369141</ele>
        <time>2014-06-07T10:03:43Z</time>
      </trkpt>
      <trkpt lat="45.87031" lon="4.67179">
        <ele>329.19744873047</ele>
        <time>2014-06-07T10:03:45Z</time>
      </trkpt>
      <trkpt lat="45.8703" lon="4.67174">
        <ele>328.88845825195</ele>
        <time>2014-06-07T10:03:46Z</time>
      </trkpt>
      <trkpt lat="45.87029" lon="4.67164">
        <ele>328.40509033203</ele>
        <time>2014-06-07T10:03:48Z</time>
      </trkpt>
      <trkpt lat="45.87025" lon="4.67147">
        <ele>328.21997070312</ele>
        <time>2014-06-07T10:03:51Z</time>
      </trkpt>
      <trkpt lat="45.87018" lon="4.67129">
        <ele>327.94366455078</ele>
        <time>2014-06-07T10:03:55Z</time>
      </trkpt>
      <trkpt lat="45.87016" lon="4.67124">
        <ele>327.86734008789</ele>
        <time>2014-06-07T10:03:56Z</time>
      </trkpt>
      <trkpt lat="45.87007" lon="4.67109">
        <ele>327.68081665039</ele>
        <time>2014-06-07T10:04:00Z</time>
      </trkpt>
      <trkpt lat="45.87004" lon="4.67101">
        <ele>327.70397949219</ele>
        <time>2014-06-07T10:04:02Z</time>
      </trkpt>
      <trkpt lat="45.86992" lon="4.67088">
        <ele>327.17568969727</ele>
        <time>2014-06-07T10:04:07Z</time>
      </trkpt>
      <trkpt lat="45.86977" lon="4.67078">
        <ele>326.08267211914</ele>
        <time>2014-06-07T10:04:12Z</time>
      </trkpt>
      <trkpt lat="45.86971" lon="4.67074">
        <ele>325.67568969727</ele>
        <time>2014-06-07T10:04:14Z</time>
      </trkpt>
      <trkpt lat="45.86953" lon="4.67064">
        <ele>324.63433837891</ele>
        <time>2014-06-07T10:04:20Z</time>
      </trkpt>
      <trkpt lat="45.86934" lon="4.67055">
        <ele>323.73400878906</ele>
        <time>2014-06-07T10:04:26Z</time>
      </trkpt>
      <trkpt lat="45.86931" lon="4.67056">
        <ele>323.54248046875</ele>
        <time>2014-06-07T10:04:27Z</time>
      </trkpt>
      <trkpt lat="45.86914" lon="4.67053">
        <ele>322.84918212891</ele>
        <time>2014-06-07T10:04:32Z</time>
      </trkpt>
      <trkpt lat="45.869" lon="4.67054">
        <ele>323.03784179688</ele>
        <time>2014-06-07T10:04:36Z</time>
      </trkpt>
      <trkpt lat="45.86897" lon="4.67054">
        <ele>323.06985473633</ele>
        <time>2014-06-07T10:04:37Z</time>
      </trkpt>
      <trkpt lat="45.86879" lon="4.67056">
        <ele>323.24761962891</ele>
        <time>2014-06-07T10:04:42Z</time>
      </trkpt>
      <trkpt lat="45.86862" lon="4.67058">
        <ele>323.40829467773</ele>
        <time>2014-06-07T10:04:47Z</time>
      </trkpt>
      <trkpt lat="45.86846" lon="4.67058">
        <ele>323.59045410156</ele>
        <time>2014-06-07T10:04:52Z</time>
      </trkpt>
      <trkpt lat="45.86843" lon="4.67058">
        <ele>323.65484619141</ele>
        <time>2014-06-07T10:04:53Z</time>
      </trkpt>
      <trkpt lat="45.86826" lon="4.67055">
        <ele>323.6318359375</ele>
        <time>2014-06-07T10:04:58Z</time>
      </trkpt>
      <trkpt lat="45.86813" lon="4.67046">
        <ele>323.43041992188</ele>
        <time>2014-06-07T10:05:02Z</time>
      </trkpt>
      <trkpt lat="45.86811" lon="4.67043">
        <ele>323.61352539062</ele>
        <time>2014-06-07T10:05:03Z</time>
      </trkpt>
      <trkpt lat="45.86811" lon="4.67043">
        <ele>323.61352539062</ele>
        <time>2014-06-07T10:05:03Z</time>
      </trkpt>
      <trkpt lat="45.86812" lon="4.67034">
        <ele>324.27044677734</ele>
        <time>2014-06-07T10:05:05Z</time>
      </trkpt>
      <trkpt lat="45.86815" lon="4.67028">
        <ele>324.93075561523</ele>
        <time>2014-06-07T10:05:07Z</time>
      </trkpt>
      <trkpt lat="45.86826" lon="4.67016">
        <ele>326.37957763672</ele>
        <time>2014-06-07T10:05:11Z</time>
      </trkpt>
      <trkpt lat="45.86832" lon="4.67003">
        <ele>327.7265625</ele>
        <time>2014-06-07T10:05:15Z</time>
      </trkpt>
      <trkpt lat="45.86836" lon="4.66998">
        <ele>327.85186767578</ele>
        <time>2014-06-07T10:05:18Z</time>
      </trkpt>
      <trkpt lat="45.86848" lon="4.66978">
        <ele>327.03155517578</ele>
        <time>2014-06-07T10:05:23Z</time>
      </trkpt>
      <trkpt lat="45.86849" lon="4.66973">
        <ele>326.90533447266</ele>
        <time>2014-06-07T10:05:24Z</time>
      </trkpt>
      <trkpt lat="45.8685" lon="4.6696">
        <ele>326.54153442383</ele>
        <time>2014-06-07T10:05:27Z</time>
      </trkpt>
      <trkpt lat="45.86841" lon="4.66953">
        <ele>326.33071899414</ele>
        <time>2014-06-07T10:05:30Z</time>
      </trkpt>
      <trkpt lat="45.86831" lon="4.66958">
        <ele>326.30041503906</ele>
        <time>2014-06-07T10:05:34Z</time>
      </trkpt>
      <trkpt lat="45.86819" lon="4.66963">
        <ele>325.65322875977</ele>
        <time>2014-06-07T10:05:38Z</time>
      </trkpt>
      <trkpt lat="45.86818" lon="4.66965">
        <ele>325.61685180664</ele>
        <time>2014-06-07T10:05:39Z</time>
      </trkpt>
      <trkpt lat="45.86814" lon="4.66971">
        <ele>325.64953613281</ele>
        <time>2014-06-07T10:05:42Z</time>
      </trkpt>
      <trkpt lat="45.8681" lon="4.66972">
        <ele>325.41348266602</ele>
        <time>2014-06-07T10:05:44Z</time>
      </trkpt>
      <trkpt lat="45.86806" lon="4.66972">
        <ele>325.16555786133</ele>
        <time>2014-06-07T10:05:45Z</time>
      </trkpt>
      <trkpt lat="45.86804" lon="4.66971">
        <ele>324.9541015625</ele>
        <time>2014-06-07T10:05:46Z</time>
      </trkpt>
      <trkpt lat="45.86794" lon="4.66972">
        <ele>324.28848266602</ele>
        <time>2014-06-07T10:05:49Z</time>
      </trkpt>
      <trkpt lat="45.86791" lon="4.66973">
        <ele>324.18212890625</ele>
        <time>2014-06-07T10:05:50Z</time>
      </trkpt>
      <trkpt lat="45.8678" lon="4.6699">
        <ele>324.30392456055</ele>
        <time>2014-06-07T10:05:55Z</time>
      </trkpt>
      <trkpt lat="45.86779" lon="4.66994">
        <ele>324.46728515625</ele>
        <time>2014-06-07T10:05:56Z</time>
      </trkpt>
      <trkpt lat="45.86782" lon="4.67008">
        <ele>324.33337402344</ele>
        <time>2014-06-07T10:05:59Z</time>
      </trkpt>
      <trkpt lat="45.86787" lon="4.67014">
        <ele>324.20635986328</ele>
        <time>2014-06-07T10:06:01Z</time>
      </trkpt>
      <trkpt lat="45.86795" lon="4.67021">
        <ele>324.177734375</ele>
        <time>2014-06-07T10:06:04Z</time>
      </trkpt>
      <trkpt lat="45.86808" lon="4.67033">
        <ele>324.15142822266</ele>
        <time>2014-06-07T10:06:08Z</time>
      </trkpt>
      <trkpt lat="45.8681" lon="4.67037">
        <ele>323.98776245117</ele>
        <time>2014-06-07T10:06:09Z</time>
      </trkpt>
      <trkpt lat="45.86811" lon="4.67042">
        <ele>323.63873291016</ele>
        <time>2014-06-07T10:06:10Z</time>
      </trkpt>
      <trkpt lat="45.86811" lon="4.67054">
        <ele>322.82046508789</ele>
        <time>2014-06-07T10:06:12Z</time>
      </trkpt>
      <trkpt lat="45.86813" lon="4.67064">
        <ele>322.14068603516</ele>
        <time>2014-06-07T10:06:14Z</time>
      </trkpt>
      <trkpt lat="45.86814" lon="4.67086">
        <ele>320.51220703125</ele>
        <time>2014-06-07T10:06:18Z</time>
      </trkpt>
      <trkpt lat="45.86819" lon="4.67111">
        <ele>317.34643554688</ele>
        <time>2014-06-07T10:06:23Z</time>
      </trkpt>
      <trkpt lat="45.86821" lon="4.67115">
        <ele>316.91845703125</ele>
        <time>2014-06-07T10:06:24Z</time>
      </trkpt>
      <trkpt lat="45.86829" lon="4.6713">
        <ele>315.53140258789</ele>
        <time>2014-06-07T10:06:28Z</time>
      </trkpt>
      <trkpt lat="45.86836" lon="4.67141">
        <ele>314.55804443359</ele>
        <time>2014-06-07T10:06:31Z</time>
      </trkpt>
      <trkpt lat="45.86842" lon="4.67151">
        <ele>313.54260253906</ele>
        <time>2014-06-07T10:06:34Z</time>
      </trkpt>
      <trkpt lat="45.86854" lon="4.67169">
        <ele>312.44332885742</ele>
        <time>2014-06-07T10:06:39Z</time>
      </trkpt>
      <trkpt lat="45.86863" lon="4.67183">
        <ele>312.97845458984</ele>
        <time>2014-06-07T10:06:43Z</time>
      </trkpt>
      <trkpt lat="45.86865" lon="4.67186">
        <ele>313.09567260742</ele>
        <time>2014-06-07T10:06:44Z</time>
      </trkpt>
      <trkpt lat="45.86873" lon="4.67196">
        <ele>313.64022827148</ele>
        <time>2014-06-07T10:06:47Z</time>
      </trkpt>
      <trkpt lat="45.86877" lon="4.67205">
        <ele>313.95315551758</ele>
        <time>2014-06-07T10:06:49Z</time>
      </trkpt>
      <trkpt lat="45.86879" lon="4.67225">
        <ele>314.07260131836</ele>
        <time>2014-06-07T10:06:53Z</time>
      </trkpt>
      <trkpt lat="45.86877" lon="4.6723">
        <ele>313.8264465332</ele>
        <time>2014-06-07T10:06:54Z</time>
      </trkpt>
      <trkpt lat="45.86869" lon="4.67235">
        <ele>313.02545166016</ele>
        <time>2014-06-07T10:06:56Z</time>
      </trkpt>
      <trkpt lat="45.86866" lon="4.67236">
        <ele>312.62301635742</ele>
        <time>2014-06-07T10:06:57Z</time>
      </trkpt>
      <trkpt lat="45.86861" lon="4.67238">
        <ele>312.17294311523</ele>
        <time>2014-06-07T10:06:58Z</time>
      </trkpt>
      <trkpt lat="45.86855" lon="4.67242">
        <ele>311.41180419922</ele>
        <time>2014-06-07T10:07:00Z</time>
      </trkpt>
      <trkpt lat="45.86851" lon="4.67243">
        <ele>311.03045654297</ele>
        <time>2014-06-07T10:07:01Z</time>
      </trkpt>
      <trkpt lat="45.86843" lon="4.67245">
        <ele>310.20147705078</ele>
        <time>2014-06-07T10:07:03Z</time>
      </trkpt>
      <trkpt lat="45.86832" lon="4.67247">
        <ele>308.98028564453</ele>
        <time>2014-06-07T10:07:06Z</time>
      </trkpt>
      <trkpt lat="45.86825" lon="4.67247">
        <ele>308.4499206543</ele>
        <time>2014-06-07T10:07:08Z</time>
      </trkpt>
      <trkpt lat="45.86814" lon="4.67246">
        <ele>307.65612792969</ele>
        <time>2014-06-07T10:07:11Z</time>
      </trkpt>
      <trkpt lat="45.86803" lon="4.67245">
        <ele>306.86605834961</ele>
        <time>2014-06-07T10:07:14Z</time>
      </trkpt>
      <trkpt lat="45.86784" lon="4.67243">
        <ele>305.51885986328</ele>
        <time>2014-06-07T10:07:19Z</time>
      </trkpt>
      <trkpt lat="45.8678" lon="4.67242">
        <ele>305.24066162109</ele>
        <time>2014-06-07T10:07:20Z</time>
      </trkpt>
      <trkpt lat="45.86769" lon="4.6724">
        <ele>304.43023681641</ele>
        <time>2014-06-07T10:07:23Z</time>
      </trkpt>
      <trkpt lat="45.86762" lon="4.67239">
        <ele>303.89184570312</ele>
        <time>2014-06-07T10:07:25Z</time>
      </trkpt>
      <trkpt lat="45.86758" lon="4.67238">
        <ele>303.63589477539</ele>
        <time>2014-06-07T10:07:26Z</time>
      </trkpt>
      <trkpt lat="45.8674" lon="4.67236">
        <ele>302.2190246582</ele>
        <time>2014-06-07T10:07:31Z</time>
      </trkpt>
      <trkpt lat="45.86737" lon="4.67235">
        <ele>301.89926147461</ele>
        <time>2014-06-07T10:07:32Z</time>
      </trkpt>
      <trkpt lat="45.86719" lon="4.67231">
        <ele>300.32006835938</ele>
        <time>2014-06-07T10:07:37Z</time>
      </trkpt>
      <trkpt lat="45.86708" lon="4.67227">
        <ele>299.33123779297</ele>
        <time>2014-06-07T10:07:40Z</time>
      </trkpt>
      <trkpt lat="45.867" lon="4.67225">
        <ele>298.537109375</ele>
        <time>2014-06-07T10:07:42Z</time>
      </trkpt>
      <trkpt lat="45.86694" lon="4.67222">
        <ele>297.81030273438</ele>
        <time>2014-06-07T10:07:44Z</time>
      </trkpt>
      <trkpt lat="45.86683" lon="4.6722">
        <ele>296.67932128906</ele>
        <time>2014-06-07T10:07:47Z</time>
      </trkpt>
      <trkpt lat="45.86679" lon="4.67221">
        <ele>296.43710327148</ele>
        <time>2014-06-07T10:07:48Z</time>
      </trkpt>
      <trkpt lat="45.86669" lon="4.67222">
        <ele>295.53817749023</ele>
        <time>2014-06-07T10:07:51Z</time>
      </trkpt>
      <trkpt lat="45.86649" lon="4.67227">
        <ele>295.26077270508</ele>
        <time>2014-06-07T10:07:57Z</time>
      </trkpt>
      <trkpt lat="45.86629" lon="4.6723">
        <ele>295.11166381836</ele>
        <time>2014-06-07T10:08:03Z</time>
      </trkpt>
      <trkpt lat="45.86611" lon="4.67237">
        <ele>295.30374145508</ele>
        <time>2014-06-07T10:08:09Z</time>
      </trkpt>
      <trkpt lat="45.86596" lon="4.6725">
        <ele>296.15768432617</ele>
        <time>2014-06-07T10:08:15Z</time>
      </trkpt>
      <trkpt lat="45.86593" lon="4.67253">
        <ele>296.26211547852</ele>
        <time>2014-06-07T10:08:16Z</time>
      </trkpt>
      <trkpt lat="45.86581" lon="4.67269">
        <ele>296.63409423828</ele>
        <time>2014-06-07T10:08:21Z</time>
      </trkpt>
      <trkpt lat="45.86573" lon="4.67279">
        <ele>296.7141418457</ele>
        <time>2014-06-07T10:08:25Z</time>
      </trkpt>
      <trkpt lat="45.86563" lon="4.67289">
        <ele>296.69540405273</ele>
        <time>2014-06-07T10:08:29Z</time>
      </trkpt>
      <trkpt lat="45.8656" lon="4.67291">
        <ele>296.65966796875</ele>
        <time>2014-06-07T10:08:30Z</time>
      </trkpt>
      <trkpt lat="45.86558" lon="4.67294">
        <ele>296.63497924805</ele>
        <time>2014-06-07T10:08:31Z</time>
      </trkpt>
      <trkpt lat="45.8654" lon="4.67308">
        <ele>296.32431030273</ele>
        <time>2014-06-07T10:08:37Z</time>
      </trkpt>
      <trkpt lat="45.86523" lon="4.67324">
        <ele>295.91931152344</ele>
        <time>2014-06-07T10:08:43Z</time>
      </trkpt>
      <trkpt lat="45.86518" lon="4.6733">
        <ele>295.79788208008</ele>
        <time>2014-06-07T10:08:45Z</time>
      </trkpt>
      <trkpt lat="45.86508" lon="4.67344">
        <ele>295.32681274414</ele>
        <time>2014-06-07T10:08:49Z</time>
      </trkpt>
      <trkpt lat="45.86501" lon="4.67355">
        <ele>294.822265625</ele>
        <time>2014-06-07T10:08:52Z</time>
      </trkpt>
      <trkpt lat="45.86494" lon="4.67366">
        <ele>294.18786621094</ele>
        <time>2014-06-07T10:08:55Z</time>
      </trkpt>
      <trkpt lat="45.86481" lon="4.67383">
        <ele>293.20404052734</ele>
        <time>2014-06-07T10:09:00Z</time>
      </trkpt>
      <trkpt lat="45.86477" lon="4.67389">
        <ele>292.87982177734</ele>
        <time>2014-06-07T10:09:02Z</time>
      </trkpt>
      <trkpt lat="45.86474" lon="4.67392">
        <ele>292.66076660156</ele>
        <time>2014-06-07T10:09:03Z</time>
      </trkpt>
      <trkpt lat="45.86472" lon="4.67394">
        <ele>292.4694519043</ele>
        <time>2014-06-07T10:09:04Z</time>
      </trkpt>
      <trkpt lat="45.86462" lon="4.67402">
        <ele>291.81591796875</ele>
        <time>2014-06-07T10:09:07Z</time>
      </trkpt>
      <trkpt lat="45.86452" lon="4.67409">
        <ele>291.16775512695</ele>
        <time>2014-06-07T10:09:10Z</time>
      </trkpt>
      <trkpt lat="45.86446" lon="4.67413">
        <ele>290.75415039062</ele>
        <time>2014-06-07T10:09:12Z</time>
      </trkpt>
      <trkpt lat="45.86433" lon="4.6742">
        <ele>289.9072265625</ele>
        <time>2014-06-07T10:09:16Z</time>
      </trkpt>
      <trkpt lat="45.86424" lon="4.67426">
        <ele>289.15570068359</ele>
        <time>2014-06-07T10:09:19Z</time>
      </trkpt>
      <trkpt lat="45.86421" lon="4.67428">
        <ele>288.86599731445</ele>
        <time>2014-06-07T10:09:20Z</time>
      </trkpt>
      <trkpt lat="45.86414" lon="4.67432">
        <ele>288.2092590332</ele>
        <time>2014-06-07T10:09:22Z</time>
      </trkpt>
      <trkpt lat="45.86408" lon="4.67435">
        <ele>287.39715576172</ele>
        <time>2014-06-07T10:09:24Z</time>
      </trkpt>
      <trkpt lat="45.86398" lon="4.6744">
        <ele>286.19235229492</ele>
        <time>2014-06-07T10:09:27Z</time>
      </trkpt>
      <trkpt lat="45.86382" lon="4.67447">
        <ele>284.27139282227</ele>
        <time>2014-06-07T10:09:32Z</time>
      </trkpt>
      <trkpt lat="45.86364" lon="4.67452">
        <ele>282.28045654297</ele>
        <time>2014-06-07T10:09:37Z</time>
      </trkpt>
      <trkpt lat="45.8636" lon="4.67452">
        <ele>281.87301635742</ele>
        <time>2014-06-07T10:09:38Z</time>
      </trkpt>
      <trkpt lat="45.86353" lon="4.67454">
        <ele>281.14544677734</ele>
        <time>2014-06-07T10:09:40Z</time>
      </trkpt>
      <trkpt lat="45.86343" lon="4.67458">
        <ele>279.94586181641</ele>
        <time>2014-06-07T10:09:43Z</time>
      </trkpt>
      <trkpt lat="45.8634" lon="4.6746">
        <ele>279.5930480957</ele>
        <time>2014-06-07T10:09:44Z</time>
      </trkpt>
      <trkpt lat="45.86324" lon="4.67469">
        <ele>278.04223632812</ele>
        <time>2014-06-07T10:09:49Z</time>
      </trkpt>
      <trkpt lat="45.86313" lon="4.67474">
        <ele>277.16677856445</ele>
        <time>2014-06-07T10:09:52Z</time>
      </trkpt>
      <trkpt lat="45.86307" lon="4.67478">
        <ele>276.64492797852</ele>
        <time>2014-06-07T10:09:54Z</time>
      </trkpt>
      <trkpt lat="45.86297" lon="4.67485">
        <ele>275.73968505859</ele>
        <time>2014-06-07T10:09:57Z</time>
      </trkpt>
      <trkpt lat="45.86291" lon="4.67489">
        <ele>275.23043823242</ele>
        <time>2014-06-07T10:09:59Z</time>
      </trkpt>
      <trkpt lat="45.86284" lon="4.67494">
        <ele>274.61245727539</ele>
        <time>2014-06-07T10:10:01Z</time>
      </trkpt>
      <trkpt lat="45.86276" lon="4.67502">
        <ele>273.82052612305</ele>
        <time>2014-06-07T10:10:04Z</time>
      </trkpt>
      <trkpt lat="45.86267" lon="4.6751">
        <ele>272.98052978516</ele>
        <time>2014-06-07T10:10:07Z</time>
      </trkpt>
      <trkpt lat="45.86258" lon="4.67519">
        <ele>272.12222290039</ele>
        <time>2014-06-07T10:10:10Z</time>
      </trkpt>
      <trkpt lat="45.86253" lon="4.67524">
        <ele>271.60150146484</ele>
        <time>2014-06-07T10:10:12Z</time>
      </trkpt>
      <trkpt lat="45.86243" lon="4.67531">
        <ele>271.00573730469</ele>
        <time>2014-06-07T10:10:15Z</time>
      </trkpt>
      <trkpt lat="45.8624" lon="4.67533">
        <ele>270.85809326172</ele>
        <time>2014-06-07T10:10:16Z</time>
      </trkpt>
      <trkpt lat="45.86224" lon="4.67542">
        <ele>270.03527832031</ele>
        <time>2014-06-07T10:10:21Z</time>
      </trkpt>
      <trkpt lat="45.86217" lon="4.67547">
        <ele>269.69311523438</ele>
        <time>2014-06-07T10:10:23Z</time>
      </trkpt>
      <trkpt lat="45.86208" lon="4.67555">
        <ele>269.17126464844</ele>
        <time>2014-06-07T10:10:26Z</time>
      </trkpt>
      <trkpt lat="45.86206" lon="4.67558">
        <ele>269.01104736328</ele>
        <time>2014-06-07T10:10:27Z</time>
      </trkpt>
      <trkpt lat="45.8619" lon="4.67571">
        <ele>268.15844726562</ele>
        <time>2014-06-07T10:10:32Z</time>
      </trkpt>
      <trkpt lat="45.86187" lon="4.67573">
        <ele>267.97763061523</ele>
        <time>2014-06-07T10:10:33Z</time>
      </trkpt>
      <trkpt lat="45.86177" lon="4.6758">
        <ele>267.46606445312</ele>
        <time>2014-06-07T10:10:36Z</time>
      </trkpt>
      <trkpt lat="45.86164" lon="4.67589">
        <ele>266.53332519531</ele>
        <time>2014-06-07T10:10:40Z</time>
      </trkpt>
      <trkpt lat="45.86145" lon="4.67603">
        <ele>264.49465942383</ele>
        <time>2014-06-07T10:10:46Z</time>
      </trkpt>
      <trkpt lat="45.86143" lon="4.67605">
        <ele>264.23114013672</ele>
        <time>2014-06-07T10:10:47Z</time>
      </trkpt>
      <trkpt lat="45.86124" lon="4.67618">
        <ele>262.62435913086</ele>
        <time>2014-06-07T10:10:53Z</time>
      </trkpt>
      <trkpt lat="45.86112" lon="4.67634">
        <ele>261.57498168945</ele>
        <time>2014-06-07T10:10:58Z</time>
      </trkpt>
      <trkpt lat="45.86111" lon="4.67638">
        <ele>261.43240356445</ele>
        <time>2014-06-07T10:10:59Z</time>
      </trkpt>
      <trkpt lat="45.86102" lon="4.67662">
        <ele>260.73669433594</ele>
        <time>2014-06-07T10:11:04Z</time>
      </trkpt>
      <trkpt lat="45.86101" lon="4.67667">
        <ele>260.62905883789</ele>
        <time>2014-06-07T10:11:05Z</time>
      </trkpt>
      <trkpt lat="45.86095" lon="4.67686">
        <ele>260.09780883789</ele>
        <time>2014-06-07T10:11:09Z</time>
      </trkpt>
      <trkpt lat="45.8609" lon="4.67701">
        <ele>259.72985839844</ele>
        <time>2014-06-07T10:11:12Z</time>
      </trkpt>
      <trkpt lat="45.86082" lon="4.67724">
        <ele>259.28088378906</ele>
        <time>2014-06-07T10:11:17Z</time>
      </trkpt>
      <trkpt lat="45.86079" lon="4.67734">
        <ele>259.09848022461</ele>
        <time>2014-06-07T10:11:19Z</time>
      </trkpt>
      <trkpt lat="45.86078" lon="4.67739">
        <ele>259.00964355469</ele>
        <time>2014-06-07T10:11:20Z</time>
      </trkpt>
      <trkpt lat="45.8607" lon="4.67763">
        <ele>258.70150756836</ele>
        <time>2014-06-07T10:11:25Z</time>
      </trkpt>
      <trkpt lat="45.86068" lon="4.67768">
        <ele>258.67031860352</ele>
        <time>2014-06-07T10:11:26Z</time>
      </trkpt>
      <trkpt lat="45.86061" lon="4.6779">
        <ele>258.60205078125</ele>
        <time>2014-06-07T10:11:31Z</time>
      </trkpt>
      <trkpt lat="45.86054" lon="4.67814">
        <ele>258.56799316406</ele>
        <time>2014-06-07T10:11:36Z</time>
      </trkpt>
      <trkpt lat="45.86053" lon="4.67818">
        <ele>258.56576538086</ele>
        <time>2014-06-07T10:11:37Z</time>
      </trkpt>
      <trkpt lat="45.86044" lon="4.67846">
        <ele>257.98556518555</ele>
        <time>2014-06-07T10:11:43Z</time>
      </trkpt>
      <trkpt lat="45.86036" lon="4.67867">
        <ele>257.16925048828</ele>
        <time>2014-06-07T10:11:48Z</time>
      </trkpt>
      <trkpt lat="45.86034" lon="4.6787">
        <ele>257.07186889648</ele>
        <time>2014-06-07T10:11:49Z</time>
      </trkpt>
      <trkpt lat="45.86025" lon="4.67893">
        <ele>256.52072143555</ele>
        <time>2014-06-07T10:11:55Z</time>
      </trkpt>
      <trkpt lat="45.86021" lon="4.67904">
        <ele>256.35781860352</ele>
        <time>2014-06-07T10:11:58Z</time>
      </trkpt>
      <trkpt lat="45.86018" lon="4.67912">
        <ele>256.24536132812</ele>
        <time>2014-06-07T10:12:00Z</time>
      </trkpt>
      <trkpt lat="45.86012" lon="4.67937">
        <ele>254.42472839356</ele>
        <time>2014-06-07T10:12:06Z</time>
      </trkpt>
      <trkpt lat="45.8601" lon="4.67942">
        <ele>254.07478332519</ele>
        <time>2014-06-07T10:12:07Z</time>
      </trkpt>
      <trkpt lat="45.86008" lon="4.67959">
        <ele>252.49926757812</ele>
        <time>2014-06-07T10:12:11Z</time>
      </trkpt>
      <trkpt lat="45.86007" lon="4.67965">
        <ele>252.02716064453</ele>
        <time>2014-06-07T10:12:12Z</time>
      </trkpt>
      <trkpt lat="45.86002" lon="4.67974">
        <ele>251.39642333984</ele>
        <time>2014-06-07T10:12:15Z</time>
      </trkpt>
      <trkpt lat="45.86001" lon="4.67978">
        <ele>251.05136108398</ele>
        <time>2014-06-07T10:12:16Z</time>
      </trkpt>
      <trkpt lat="45.86" lon="4.67982">
        <ele>250.73234558106</ele>
        <time>2014-06-07T10:12:17Z</time>
      </trkpt>
      <trkpt lat="45.85996" lon="4.67989">
        <ele>249.67817687988</ele>
        <time>2014-06-07T10:12:19Z</time>
      </trkpt>
      <trkpt lat="45.85993" lon="4.67997">
        <ele>248.64387512207</ele>
        <time>2014-06-07T10:12:21Z</time>
      </trkpt>
      <trkpt lat="45.85992" lon="4.68001">
        <ele>248.19599914551</ele>
        <time>2014-06-07T10:12:22Z</time>
      </trkpt>
      <trkpt lat="45.85989" lon="4.68014">
        <ele>246.86512756348</ele>
        <time>2014-06-07T10:12:25Z</time>
      </trkpt>
      <trkpt lat="45.85987" lon="4.68024">
        <ele>245.91979980469</ele>
        <time>2014-06-07T10:12:27Z</time>
      </trkpt>
      <trkpt lat="45.85987" lon="4.68029">
        <ele>245.37380981445</ele>
        <time>2014-06-07T10:12:28Z</time>
      </trkpt>
      <trkpt lat="45.85986" lon="4.68033">
        <ele>244.94964599609</ele>
        <time>2014-06-07T10:12:29Z</time>
      </trkpt>
      <trkpt lat="45.85984" lon="4.68044">
        <ele>243.85850524902</ele>
        <time>2014-06-07T10:12:31Z</time>
      </trkpt>
      <trkpt lat="45.85982" lon="4.68055">
        <ele>242.76974487305</ele>
        <time>2014-06-07T10:12:33Z</time>
      </trkpt>
      <trkpt lat="45.85982" lon="4.6806">
        <ele>242.31977844238</ele>
        <time>2014-06-07T10:12:34Z</time>
      </trkpt>
      <trkpt lat="45.85982" lon="4.68075">
        <ele>241.00392150879</ele>
        <time>2014-06-07T10:12:37Z</time>
      </trkpt>
      <trkpt lat="45.85983" lon="4.6808">
        <ele>240.61001586914</ele>
        <time>2014-06-07T10:12:38Z</time>
      </trkpt>
      <trkpt lat="45.85983" lon="4.68084">
        <ele>240.16879272461</ele>
        <time>2014-06-07T10:12:39Z</time>
      </trkpt>
      <trkpt lat="45.85984" lon="4.68095">
        <ele>238.83453369141</ele>
        <time>2014-06-07T10:12:41Z</time>
      </trkpt>
      <trkpt lat="45.85984" lon="4.68106">
        <ele>237.26370239258</ele>
        <time>2014-06-07T10:12:43Z</time>
      </trkpt>
      <trkpt lat="45.85981" lon="4.68121">
        <ele>235.00218200684</ele>
        <time>2014-06-07T10:12:46Z</time>
      </trkpt>
      <trkpt lat="45.85981" lon="4.68131">
        <ele>233.57595825195</ele>
        <time>2014-06-07T10:12:48Z</time>
      </trkpt>
      <trkpt lat="45.85981" lon="4.68135">
        <ele>232.95506286621</ele>
        <time>2014-06-07T10:12:49Z</time>
      </trkpt>
      <trkpt lat="45.85981" lon="4.68141">
        <ele>232.14535522461</ele>
        <time>2014-06-07T10:12:50Z</time>
      </trkpt>
      <trkpt lat="45.85981" lon="4.68156">
        <ele>230.1632232666</ele>
        <time>2014-06-07T10:12:53Z</time>
      </trkpt>
      <trkpt lat="45.85982" lon="4.68161">
        <ele>229.50546264648</ele>
        <time>2014-06-07T10:12:54Z</time>
      </trkpt>
      <trkpt lat="45.85983" lon="4.68172">
        <ele>228.21974182129</ele>
        <time>2014-06-07T10:12:56Z</time>
      </trkpt>
      <trkpt lat="45.85984" lon="4.68192">
        <ele>226.23052978516</ele>
        <time>2014-06-07T10:13:00Z</time>
      </trkpt>
      <trkpt lat="45.85984" lon="4.68197">
        <ele>225.60949707031</ele>
        <time>2014-06-07T10:13:01Z</time>
      </trkpt>
      <trkpt lat="45.85983" lon="4.68208">
        <ele>224.38920593262</ele>
        <time>2014-06-07T10:13:03Z</time>
      </trkpt>
      <trkpt lat="45.85978" lon="4.68214">
        <ele>223.27607727051</ele>
        <time>2014-06-07T10:13:05Z</time>
      </trkpt>
      <trkpt lat="45.85965" lon="4.68213">
        <ele>222.15592956543</ele>
        <time>2014-06-07T10:13:08Z</time>
      </trkpt>
      <trkpt lat="45.85958" lon="4.68212">
        <ele>221.53628540039</ele>
        <time>2014-06-07T10:13:10Z</time>
      </trkpt>
      <trkpt lat="45.8595" lon="4.68211">
        <ele>220.91360473633</ele>
        <time>2014-06-07T10:13:12Z</time>
      </trkpt>
      <trkpt lat="45.85946" lon="4.68209">
        <ele>220.74195861816</ele>
        <time>2014-06-07T10:13:13Z</time>
      </trkpt>
      <trkpt lat="45.85929" lon="4.682">
        <ele>220.25842285156</ele>
        <time>2014-06-07T10:13:18Z</time>
      </trkpt>
      <trkpt lat="45.85926" lon="4.68198">
        <ele>220.25094604492</ele>
        <time>2014-06-07T10:13:19Z</time>
      </trkpt>
      <trkpt lat="45.85919" lon="4.68194">
        <ele>220.20991516113</ele>
        <time>2014-06-07T10:13:21Z</time>
      </trkpt>
      <trkpt lat="45.85913" lon="4.68189">
        <ele>220.14213562012</ele>
        <time>2014-06-07T10:13:23Z</time>
      </trkpt>
      <trkpt lat="45.859" lon="4.6818">
        <ele>219.49566650391</ele>
        <time>2014-06-07T10:13:27Z</time>
      </trkpt>
      <trkpt lat="45.85898" lon="4.68177">
        <ele>219.40397644043</ele>
        <time>2014-06-07T10:13:28Z</time>
      </trkpt>
      <trkpt lat="45.85881" lon="4.6816">
        <ele>218.57398986816</ele>
        <time>2014-06-07T10:13:34Z</time>
      </trkpt>
      <trkpt lat="45.85875" lon="4.68154">
        <ele>218.26287841797</ele>
        <time>2014-06-07T10:13:36Z</time>
      </trkpt>
      <trkpt lat="45.85868" lon="4.68145">
        <ele>217.87022399902</ele>
        <time>2014-06-07T10:13:39Z</time>
      </trkpt>
      <trkpt lat="45.85858" lon="4.6813">
        <ele>217.2998046875</ele>
        <time>2014-06-07T10:13:43Z</time>
      </trkpt>
      <trkpt lat="45.85856" lon="4.68126">
        <ele>217.29296875</ele>
        <time>2014-06-07T10:13:44Z</time>
      </trkpt>
      <trkpt lat="45.85849" lon="4.68116">
        <ele>216.83958435059</ele>
        <time>2014-06-07T10:13:47Z</time>
      </trkpt>
      <trkpt lat="45.85842" lon="4.68104">
        <ele>216.2725982666</ele>
        <time>2014-06-07T10:13:50Z</time>
      </trkpt>
      <trkpt lat="45.8583" lon="4.68086">
        <ele>215.26655578613</ele>
        <time>2014-06-07T10:13:55Z</time>
      </trkpt>
      <trkpt lat="45.85827" lon="4.68082">
        <ele>215.10539245606</ele>
        <time>2014-06-07T10:13:56Z</time>
      </trkpt>
      <trkpt lat="45.85812" lon="4.68064">
        <ele>213.59927368164</ele>
        <time>2014-06-07T10:14:02Z</time>
      </trkpt>
      <trkpt lat="45.85809" lon="4.68062">
        <ele>213.24971008301</ele>
        <time>2014-06-07T10:14:03Z</time>
      </trkpt>
      <trkpt lat="45.85799" lon="4.68054">
        <ele>212.26858520508</ele>
        <time>2014-06-07T10:14:06Z</time>
      </trkpt>
      <trkpt lat="45.85796" lon="4.68051">
        <ele>211.91304016113</ele>
        <time>2014-06-07T10:14:07Z</time>
      </trkpt>
      <trkpt lat="45.85793" lon="4.68048">
        <ele>211.64231872559</ele>
        <time>2014-06-07T10:14:08Z</time>
      </trkpt>
      <trkpt lat="45.85785" lon="4.68041">
        <ele>210.7713470459</ele>
        <time>2014-06-07T10:14:11Z</time>
      </trkpt>
      <trkpt lat="45.85776" lon="4.68034">
        <ele>209.84757995606</ele>
        <time>2014-06-07T10:14:14Z</time>
      </trkpt>
      <trkpt lat="45.85764" lon="4.68024">
        <ele>208.57371520996</ele>
        <time>2014-06-07T10:14:18Z</time>
      </trkpt>
      <trkpt lat="45.85757" lon="4.6802">
        <ele>207.91560363769</ele>
        <time>2014-06-07T10:14:20Z</time>
      </trkpt>
      <trkpt lat="45.85751" lon="4.68017">
        <ele>207.08741760254</ele>
        <time>2014-06-07T10:14:22Z</time>
      </trkpt>
      <trkpt lat="45.85741" lon="4.68015">
        <ele>206.47462463379</ele>
        <time>2014-06-07T10:14:25Z</time>
      </trkpt>
      <trkpt lat="45.85733" lon="4.68016">
        <ele>205.9727935791</ele>
        <time>2014-06-07T10:14:27Z</time>
      </trkpt>
      <trkpt lat="45.85721" lon="4.68023">
        <ele>204.85270690918</ele>
        <time>2014-06-07T10:14:31Z</time>
      </trkpt>
      <trkpt lat="45.85709" lon="4.68033">
        <ele>203.69560241699</ele>
        <time>2014-06-07T10:14:35Z</time>
      </trkpt>
      <trkpt lat="45.85703" lon="4.68042">
        <ele>202.92669677734</ele>
        <time>2014-06-07T10:14:38Z</time>
      </trkpt>
      <trkpt lat="45.85695" lon="4.68054">
        <ele>202.08357238769</ele>
        <time>2014-06-07T10:14:41Z</time>
      </trkpt>
      <trkpt lat="45.85691" lon="4.68062">
        <ele>201.60409545898</ele>
        <time>2014-06-07T10:14:43Z</time>
      </trkpt>
      <trkpt lat="45.85689" lon="4.68065">
        <ele>201.40411376953</ele>
        <time>2014-06-07T10:14:44Z</time>
      </trkpt>
      <trkpt lat="45.85677" lon="4.68086">
        <ele>200.31329345703</ele>
        <time>2014-06-07T10:14:49Z</time>
      </trkpt>
      <trkpt lat="45.85675" lon="4.6809">
        <ele>200.12370300293</ele>
        <time>2014-06-07T10:14:50Z</time>
      </trkpt>
      <trkpt lat="45.85661" lon="4.68111">
        <ele>199.40911865234</ele>
        <time>2014-06-07T10:14:56Z</time>
      </trkpt>
      <trkpt lat="45.8566" lon="4.68114">
        <ele>199.35516357422</ele>
        <time>2014-06-07T10:14:57Z</time>
      </trkpt>
      <trkpt lat="45.85659" lon="4.68124">
        <ele>199.18501281738</ele>
        <time>2014-06-07T10:14:59Z</time>
      </trkpt>
      <trkpt lat="45.85661" lon="4.68131">
        <ele>199.01550292969</ele>
        <time>2014-06-07T10:15:00Z</time>
      </trkpt>
      <trkpt lat="45.85666" lon="4.68144">
        <ele>198.54997253418</ele>
        <time>2014-06-07T10:15:03Z</time>
      </trkpt>
      <trkpt lat="45.85669" lon="4.68147">
        <ele>198.51847839356</ele>
        <time>2014-06-07T10:15:04Z</time>
      </trkpt>
      <trkpt lat="45.85671" lon="4.68151">
        <ele>198.50187683106</ele>
        <time>2014-06-07T10:15:05Z</time>
      </trkpt>
      <trkpt lat="45.85672" lon="4.68156">
        <ele>198.40293884277</ele>
        <time>2014-06-07T10:15:06Z</time>
      </trkpt>
      <trkpt lat="45.85675" lon="4.68164">
        <ele>198.26231384277</ele>
        <time>2014-06-07T10:15:08Z</time>
      </trkpt>
      <trkpt lat="45.85683" lon="4.68178">
        <ele>198.58009338379</ele>
        <time>2014-06-07T10:15:12Z</time>
      </trkpt>
      <trkpt lat="45.85685" lon="4.68187">
        <ele>198.75830078125</ele>
        <time>2014-06-07T10:15:14Z</time>
      </trkpt>
      <trkpt lat="45.85688" lon="4.68196">
        <ele>198.94885253906</ele>
        <time>2014-06-07T10:15:16Z</time>
      </trkpt>
      <trkpt lat="45.85698" lon="4.68215">
        <ele>199.26159667969</ele>
        <time>2014-06-07T10:15:21Z</time>
      </trkpt>
      <trkpt lat="45.85712" lon="4.68235">
        <ele>199.39122009277</ele>
        <time>2014-06-07T10:15:27Z</time>
      </trkpt>
      <trkpt lat="45.85727" lon="4.68254">
        <ele>199.33155822754</ele>
        <time>2014-06-07T10:15:33Z</time>
      </trkpt>
      <trkpt lat="45.85742" lon="4.68268">
        <ele>199.45542907715</ele>
        <time>2014-06-07T10:15:38Z</time>
      </trkpt>
      <trkpt lat="45.85745" lon="4.6827">
        <ele>199.50262451172</ele>
        <time>2014-06-07T10:15:39Z</time>
      </trkpt>
      <trkpt lat="45.85761" lon="4.68286">
        <ele>200.02986145019</ele>
        <time>2014-06-07T10:15:44Z</time>
      </trkpt>
      <trkpt lat="45.85764" lon="4.68289">
        <ele>200.12663269043</ele>
        <time>2014-06-07T10:15:45Z</time>
      </trkpt>
      <trkpt lat="45.85775" lon="4.68301">
        <ele>200.38507080078</ele>
        <time>2014-06-07T10:15:49Z</time>
      </trkpt>
      <trkpt lat="45.85783" lon="4.68311">
        <ele>200.4912109375</ele>
        <time>2014-06-07T10:15:52Z</time>
      </trkpt>
      <trkpt lat="45.85791" lon="4.68319">
        <ele>200.50106811523</ele>
        <time>2014-06-07T10:15:55Z</time>
      </trkpt>
      <trkpt lat="45.85794" lon="4.68323">
        <ele>200.48829650879</ele>
        <time>2014-06-07T10:15:56Z</time>
      </trkpt>
      <trkpt lat="45.85808" lon="4.68333">
        <ele>200.30221557617</ele>
        <time>2014-06-07T10:16:01Z</time>
      </trkpt>
      <trkpt lat="45.85825" lon="4.68352">
        <ele>199.9041595459</ele>
        <time>2014-06-07T10:16:07Z</time>
      </trkpt>
      <trkpt lat="45.85839" lon="4.68372">
        <ele>199.80206298828</ele>
        <time>2014-06-07T10:16:13Z</time>
      </trkpt>
      <trkpt lat="45.85849" lon="4.68384">
        <ele>200.04956054688</ele>
        <time>2014-06-07T10:16:18Z</time>
      </trkpt>
      <trkpt lat="45.85859" lon="4.68401">
        <ele>200.14538574219</ele>
        <time>2014-06-07T10:16:23Z</time>
      </trkpt>
      <trkpt lat="45.8586" lon="4.68405">
        <ele>200.13943481445</ele>
        <time>2014-06-07T10:16:24Z</time>
      </trkpt>
      <trkpt lat="45.85865" lon="4.68424">
        <ele>200.17562866211</ele>
        <time>2014-06-07T10:16:28Z</time>
      </trkpt>
      <trkpt lat="45.85868" lon="4.68443">
        <ele>200.31410217285</ele>
        <time>2014-06-07T10:16:32Z</time>
      </trkpt>
      <trkpt lat="45.8587" lon="4.68452">
        <ele>200.38075256348</ele>
        <time>2014-06-07T10:16:34Z</time>
      </trkpt>
      <trkpt lat="45.85875" lon="4.68481">
        <ele>200.49893188477</ele>
        <time>2014-06-07T10:16:40Z</time>
      </trkpt>
      <trkpt lat="45.8588" lon="4.68505">
        <ele>200.47221374512</ele>
        <time>2014-06-07T10:16:45Z</time>
      </trkpt>
      <trkpt lat="45.85884" lon="4.68528">
        <ele>200.06903076172</ele>
        <time>2014-06-07T10:16:50Z</time>
      </trkpt>
      <trkpt lat="45.8589" lon="4.68559">
        <ele>199.49513244629</ele>
        <time>2014-06-07T10:16:56Z</time>
      </trkpt>
      <trkpt lat="45.85894" lon="4.68583">
        <ele>199.01553344727</ele>
        <time>2014-06-07T10:17:01Z</time>
      </trkpt>
      <trkpt lat="45.85896" lon="4.68611">
        <ele>198.66969299316</ele>
        <time>2014-06-07T10:17:07Z</time>
      </trkpt>
      <trkpt lat="45.85898" lon="4.6864">
        <ele>198.3240814209</ele>
        <time>2014-06-07T10:17:13Z</time>
      </trkpt>
      <trkpt lat="45.85899" lon="4.68665">
        <ele>198.02368164062</ele>
        <time>2014-06-07T10:17:18Z</time>
      </trkpt>
      <trkpt lat="45.85896" lon="4.68694">
        <ele>198.0809173584</ele>
        <time>2014-06-07T10:17:24Z</time>
      </trkpt>
      <trkpt lat="45.85896" lon="4.68699">
        <ele>198.09831237793</ele>
        <time>2014-06-07T10:17:25Z</time>
      </trkpt>
      <trkpt lat="45.85892" lon="4.68723">
        <ele>198.20408630371</ele>
        <time>2014-06-07T10:17:30Z</time>
      </trkpt>
      <trkpt lat="45.85886" lon="4.68751">
        <ele>198.36166381836</ele>
        <time>2014-06-07T10:17:36Z</time>
      </trkpt>
      <trkpt lat="45.85885" lon="4.68756">
        <ele>198.35102844238</ele>
        <time>2014-06-07T10:17:37Z</time>
      </trkpt>
      <trkpt lat="45.8588" lon="4.68784">
        <ele>198.25775146484</ele>
        <time>2014-06-07T10:17:43Z</time>
      </trkpt>
      <trkpt lat="45.85875" lon="4.68812">
        <ele>198.12481689453</ele>
        <time>2014-06-07T10:17:49Z</time>
      </trkpt>
      <trkpt lat="45.85873" lon="4.68836">
        <ele>197.97174072266</ele>
        <time>2014-06-07T10:17:54Z</time>
      </trkpt>
      <trkpt lat="45.8587" lon="4.6886">
        <ele>197.67535400391</ele>
        <time>2014-06-07T10:17:59Z</time>
      </trkpt>
      <trkpt lat="45.8587" lon="4.68865">
        <ele>197.61584472656</ele>
        <time>2014-06-07T10:18:00Z</time>
      </trkpt>
      <trkpt lat="45.85867" lon="4.68895">
        <ele>197.26049804688</ele>
        <time>2014-06-07T10:18:06Z</time>
      </trkpt>
      <trkpt lat="45.85864" lon="4.68924">
        <ele>197.03456115723</ele>
        <time>2014-06-07T10:18:12Z</time>
      </trkpt>
      <trkpt lat="45.85864" lon="4.68929">
        <ele>197.05494689941</ele>
        <time>2014-06-07T10:18:13Z</time>
      </trkpt>
      <trkpt lat="45.85863" lon="4.68957">
        <ele>197.16972351074</ele>
        <time>2014-06-07T10:18:19Z</time>
      </trkpt>
      <trkpt lat="45.85862" lon="4.6898">
        <ele>197.26245117188</ele>
        <time>2014-06-07T10:18:24Z</time>
      </trkpt>
      <trkpt lat="45.85864" lon="4.69003">
        <ele>197.36651611328</ele>
        <time>2014-06-07T10:18:29Z</time>
      </trkpt>
      <trkpt lat="45.85868" lon="4.6902">
        <ele>197.41229248047</ele>
        <time>2014-06-07T10:18:33Z</time>
      </trkpt>
      <trkpt lat="45.85869" lon="4.69042">
        <ele>197.43060302734</ele>
        <time>2014-06-07T10:18:38Z</time>
      </trkpt>
      <trkpt lat="45.85862" lon="4.69062">
        <ele>197.34820556641</ele>
        <time>2014-06-07T10:18:43Z</time>
      </trkpt>
      <trkpt lat="45.85861" lon="4.69076">
        <ele>197.32989501953</ele>
        <time>2014-06-07T10:18:46Z</time>
      </trkpt>
      <trkpt lat="45.8586" lon="4.69091">
        <ele>197.50691223144</ele>
        <time>2014-06-07T10:18:49Z</time>
      </trkpt>
      <trkpt lat="45.85858" lon="4.69115">
        <ele>198.09034729004</ele>
        <time>2014-06-07T10:18:54Z</time>
      </trkpt>
      <trkpt lat="45.85855" lon="4.69136">
        <ele>198.66348266602</ele>
        <time>2014-06-07T10:18:59Z</time>
      </trkpt>
      <trkpt lat="45.85853" lon="4.69158">
        <ele>199.29563903809</ele>
        <time>2014-06-07T10:19:04Z</time>
      </trkpt>
      <trkpt lat="45.85851" lon="4.69182">
        <ele>199.17163085938</ele>
        <time>2014-06-07T10:19:09Z</time>
      </trkpt>
      <trkpt lat="45.85846" lon="4.69208">
        <ele>198.51216125488</ele>
        <time>2014-06-07T10:19:15Z</time>
      </trkpt>
      <trkpt lat="45.85843" lon="4.69227">
        <ele>197.94706726074</ele>
        <time>2014-06-07T10:19:19Z</time>
      </trkpt>
      <trkpt lat="45.8584" lon="4.69243">
        <ele>197.37886047363</ele>
        <time>2014-06-07T10:19:23Z</time>
      </trkpt>
      <trkpt lat="45.85836" lon="4.69271">
        <ele>196.82426452637</ele>
        <time>2014-06-07T10:19:29Z</time>
      </trkpt>
      <trkpt lat="45.85838" lon="4.69294">
        <ele>196.6219329834</ele>
        <time>2014-06-07T10:19:34Z</time>
      </trkpt>
      <trkpt lat="45.85841" lon="4.69314">
        <ele>196.55258178711</ele>
        <time>2014-06-07T10:19:38Z</time>
      </trkpt>
      <trkpt lat="45.85847" lon="4.69335">
        <ele>196.7400970459</ele>
        <time>2014-06-07T10:19:43Z</time>
      </trkpt>
      <trkpt lat="45.85852" lon="4.69353">
        <ele>197.79844665527</ele>
        <time>2014-06-07T10:19:47Z</time>
      </trkpt>
      <trkpt lat="45.8585" lon="4.69373">
        <ele>198.60905456543</ele>
        <time>2014-06-07T10:19:51Z</time>
      </trkpt>
      <trkpt lat="45.85848" lon="4.69378">
        <ele>198.75885009766</ele>
        <time>2014-06-07T10:19:52Z</time>
      </trkpt>
      <trkpt lat="45.85839" lon="4.69399">
        <ele>199.38243103027</ele>
        <time>2014-06-07T10:19:57Z</time>
      </trkpt>
      <trkpt lat="45.85831" lon="4.69411">
        <ele>199.62998962402</ele>
        <time>2014-06-07T10:20:00Z</time>
      </trkpt>
      <trkpt lat="45.85827" lon="4.69418">
        <ele>199.76551818848</ele>
        <time>2014-06-07T10:20:02Z</time>
      </trkpt>
      <trkpt lat="45.85822" lon="4.69438">
        <ele>200.08488464356</ele>
        <time>2014-06-07T10:20:06Z</time>
      </trkpt>
      <trkpt lat="45.85824" lon="4.69462">
        <ele>201.00025939941</ele>
        <time>2014-06-07T10:20:11Z</time>
      </trkpt>
      <trkpt lat="45.85829" lon="4.69491">
        <ele>202.35508728027</ele>
        <time>2014-06-07T10:20:17Z</time>
      </trkpt>
      <trkpt lat="45.85832" lon="4.69511">
        <ele>202.50079345703</ele>
        <time>2014-06-07T10:20:21Z</time>
      </trkpt>
      <trkpt lat="45.85834" lon="4.69535">
        <ele>201.7649230957</ele>
        <time>2014-06-07T10:20:26Z</time>
      </trkpt>
      <trkpt lat="45.85836" lon="4.6956">
        <ele>200.91542053223</ele>
        <time>2014-06-07T10:20:31Z</time>
      </trkpt>
      <trkpt lat="45.85839" lon="4.69585">
        <ele>200.15313720703</ele>
        <time>2014-06-07T10:20:36Z</time>
      </trkpt>
      <trkpt lat="45.85847" lon="4.69613">
        <ele>199.93702697754</ele>
        <time>2014-06-07T10:20:42Z</time>
      </trkpt>
      <trkpt lat="45.85853" lon="4.69636">
        <ele>199.87811279297</ele>
        <time>2014-06-07T10:20:47Z</time>
      </trkpt>
      <trkpt lat="45.85859" lon="4.69658">
        <ele>199.92393493652</ele>
        <time>2014-06-07T10:20:52Z</time>
      </trkpt>
      <trkpt lat="45.85865" lon="4.6968">
        <ele>200.19798278809</ele>
        <time>2014-06-07T10:20:57Z</time>
      </trkpt>
      <trkpt lat="45.85871" lon="4.69694">
        <ele>200.43347167969</ele>
        <time>2014-06-07T10:21:01Z</time>
      </trkpt>
      <trkpt lat="45.85875" lon="4.69704">
        <ele>200.56634521484</ele>
        <time>2014-06-07T10:21:03Z</time>
      </trkpt>
      <trkpt lat="45.85876" lon="4.69705">
        <ele>200.5909576416</ele>
        <time>2014-06-07T10:21:04Z</time>
      </trkpt>
      <trkpt lat="45.85884" lon="4.69723">
        <ele>200.6907043457</ele>
        <time>2014-06-07T10:21:08Z</time>
      </trkpt>
      <trkpt lat="45.85891" lon="4.69735">
        <ele>200.69145202637</ele>
        <time>2014-06-07T10:21:11Z</time>
      </trkpt>
      <trkpt lat="45.85897" lon="4.69746">
        <ele>200.61325073242</ele>
        <time>2014-06-07T10:21:14Z</time>
      </trkpt>
      <trkpt lat="45.85906" lon="4.6976">
        <ele>200.49122619629</ele>
        <time>2014-06-07T10:21:18Z</time>
      </trkpt>
      <trkpt lat="45.85908" lon="4.69764">
        <ele>200.45918273926</ele>
        <time>2014-06-07T10:21:19Z</time>
      </trkpt>
      <trkpt lat="45.85921" lon="4.69784">
        <ele>200.46325683594</ele>
        <time>2014-06-07T10:21:25Z</time>
      </trkpt>
      <trkpt lat="45.85934" lon="4.69804">
        <ele>200.50451660156</ele>
        <time>2014-06-07T10:21:31Z</time>
      </trkpt>
      <trkpt lat="45.85947" lon="4.6982">
        <ele>200.33311462402</ele>
        <time>2014-06-07T10:21:36Z</time>
      </trkpt>
      <trkpt lat="45.8596" lon="4.69834">
        <ele>200.00942993164</ele>
        <time>2014-06-07T10:21:41Z</time>
      </trkpt>
      <trkpt lat="45.85973" lon="4.69848">
        <ele>200.0002746582</ele>
        <time>2014-06-07T10:21:46Z</time>
      </trkpt>
      <trkpt lat="45.85987" lon="4.69861">
        <ele>200.01972961426</ele>
        <time>2014-06-07T10:21:51Z</time>
      </trkpt>
      <trkpt lat="45.86004" lon="4.69877">
        <ele>199.98323059082</ele>
        <time>2014-06-07T10:21:57Z</time>
      </trkpt>
      <trkpt lat="45.86019" lon="4.69886">
        <ele>199.93130493164</ele>
        <time>2014-06-07T10:22:02Z</time>
      </trkpt>
      <trkpt lat="45.86024" lon="4.69889">
        <ele>199.95283508301</ele>
        <time>2014-06-07T10:22:04Z</time>
      </trkpt>
      <trkpt lat="45.86037" lon="4.6989">
        <ele>200.1082611084</ele>
        <time>2014-06-07T10:22:08Z</time>
      </trkpt>
      <trkpt lat="45.86055" lon="4.6989">
        <ele>200.32171630859</ele>
        <time>2014-06-07T10:22:13Z</time>
      </trkpt>
      <trkpt lat="45.86075" lon="4.69887">
        <ele>200.55023193359</ele>
        <time>2014-06-07T10:22:19Z</time>
      </trkpt>
      <trkpt lat="45.86078" lon="4.69886">
        <ele>200.57998657227</ele>
        <time>2014-06-07T10:22:20Z</time>
      </trkpt>
      <trkpt lat="45.86097" lon="4.69878">
        <ele>200.19830322266</ele>
        <time>2014-06-07T10:22:26Z</time>
      </trkpt>
      <trkpt lat="45.86104" lon="4.69875">
        <ele>200.00889587402</ele>
        <time>2014-06-07T10:22:28Z</time>
      </trkpt>
      <trkpt lat="45.86113" lon="4.6987">
        <ele>199.71536254883</ele>
        <time>2014-06-07T10:22:31Z</time>
      </trkpt>
      <trkpt lat="45.86127" lon="4.69858">
        <ele>199.23069763184</ele>
        <time>2014-06-07T10:22:36Z</time>
      </trkpt>
      <trkpt lat="45.86145" lon="4.69843">
        <ele>198.6350402832</ele>
        <time>2014-06-07T10:22:42Z</time>
      </trkpt>
      <trkpt lat="45.86148" lon="4.6984">
        <ele>198.53204345703</ele>
        <time>2014-06-07T10:22:43Z</time>
      </trkpt>
      <trkpt lat="45.86163" lon="4.69829">
        <ele>197.97605895996</ele>
        <time>2014-06-07T10:22:48Z</time>
      </trkpt>
      <trkpt lat="45.8618" lon="4.69815">
        <ele>197.09341430664</ele>
        <time>2014-06-07T10:22:54Z</time>
      </trkpt>
      <trkpt lat="45.86183" lon="4.69813">
        <ele>196.91831970215</ele>
        <time>2014-06-07T10:22:55Z</time>
      </trkpt>
      <trkpt lat="45.86198" lon="4.69801">
        <ele>196.09663391113</ele>
        <time>2014-06-07T10:23:00Z</time>
      </trkpt>
      <trkpt lat="45.8621" lon="4.69793">
        <ele>195.47178649902</ele>
        <time>2014-06-07T10:23:04Z</time>
      </trkpt>
      <trkpt lat="45.86227" lon="4.69778">
        <ele>194.48759460449</ele>
        <time>2014-06-07T10:23:10Z</time>
      </trkpt>
      <trkpt lat="45.86241" lon="4.69763">
        <ele>193.64073181152</ele>
        <time>2014-06-07T10:23:15Z</time>
      </trkpt>
      <trkpt lat="45.86261" lon="4.69752">
        <ele>193.18383789062</ele>
        <time>2014-06-07T10:23:21Z</time>
      </trkpt>
      <trkpt lat="45.86281" lon="4.69748">
        <ele>193.41999816894</ele>
        <time>2014-06-07T10:23:27Z</time>
      </trkpt>
      <trkpt lat="45.86285" lon="4.69748">
        <ele>193.47634887695</ele>
        <time>2014-06-07T10:23:28Z</time>
      </trkpt>
      <trkpt lat="45.86302" lon="4.69748">
        <ele>193.67192077637</ele>
        <time>2014-06-07T10:23:33Z</time>
      </trkpt>
      <trkpt lat="45.86321" lon="4.69749">
        <ele>193.88888549805</ele>
        <time>2014-06-07T10:23:39Z</time>
      </trkpt>
      <trkpt lat="45.8634" lon="4.69757">
        <ele>194.70222473144</ele>
        <time>2014-06-07T10:23:45Z</time>
      </trkpt>
      <trkpt lat="45.86352" lon="4.69771">
        <ele>195.76463317871</ele>
        <time>2014-06-07T10:23:50Z</time>
      </trkpt>
      <trkpt lat="45.86362" lon="4.69794">
        <ele>196.16897583008</ele>
        <time>2014-06-07T10:23:56Z</time>
      </trkpt>
      <trkpt lat="45.86367" lon="4.69804">
        <ele>196.15362548828</ele>
        <time>2014-06-07T10:23:59Z</time>
      </trkpt>
      <trkpt lat="45.86369" lon="4.69808">
        <ele>196.10971069336</ele>
        <time>2014-06-07T10:24:00Z</time>
      </trkpt>
      <trkpt lat="45.86377" lon="4.69823">
        <ele>195.70658874512</ele>
        <time>2014-06-07T10:24:04Z</time>
      </trkpt>
      <trkpt lat="45.86378" lon="4.69827">
        <ele>195.57054138184</ele>
        <time>2014-06-07T10:24:05Z</time>
      </trkpt>
      <trkpt lat="45.86388" lon="4.69845">
        <ele>194.92739868164</ele>
        <time>2014-06-07T10:24:10Z</time>
      </trkpt>
      <trkpt lat="45.86395" lon="4.69863">
        <ele>194.53553771973</ele>
        <time>2014-06-07T10:24:14Z</time>
      </trkpt>
      <trkpt lat="45.86396" lon="4.69868">
        <ele>194.44279479981</ele>
        <time>2014-06-07T10:24:15Z</time>
      </trkpt>
      <trkpt lat="45.864" lon="4.69892">
        <ele>194.03996276856</ele>
        <time>2014-06-07T10:24:20Z</time>
      </trkpt>
      <trkpt lat="45.86404" lon="4.69917">
        <ele>193.6065826416</ele>
        <time>2014-06-07T10:24:25Z</time>
      </trkpt>
      <trkpt lat="45.86407" lon="4.69941">
        <ele>193.40934753418</ele>
        <time>2014-06-07T10:24:30Z</time>
      </trkpt>
      <trkpt lat="45.86407" lon="4.69966">
        <ele>193.31193542481</ele>
        <time>2014-06-07T10:24:35Z</time>
      </trkpt>
      <trkpt lat="45.86407" lon="4.69989">
        <ele>193.2717590332</ele>
        <time>2014-06-07T10:24:40Z</time>
      </trkpt>
      <trkpt lat="45.86405" lon="4.70018">
        <ele>193.08786010742</ele>
        <time>2014-06-07T10:24:46Z</time>
      </trkpt>
      <trkpt lat="45.86401" lon="4.70049">
        <ele>192.89181518555</ele>
        <time>2014-06-07T10:24:52Z</time>
      </trkpt>
      <trkpt lat="45.86401" lon="4.70053">
        <ele>192.87065124512</ele>
        <time>2014-06-07T10:24:53Z</time>
      </trkpt>
      <trkpt lat="45.864" lon="4.70059">
        <ele>192.83036804199</ele>
        <time>2014-06-07T10:24:54Z</time>
      </trkpt>
      <trkpt lat="45.86396" lon="4.70084">
        <ele>192.73083496094</ele>
        <time>2014-06-07T10:24:59Z</time>
      </trkpt>
      <trkpt lat="45.86396" lon="4.70089">
        <ele>192.77380371094</ele>
        <time>2014-06-07T10:25:00Z</time>
      </trkpt>
      <trkpt lat="45.8639" lon="4.70118">
        <ele>193.11041259766</ele>
        <time>2014-06-07T10:25:06Z</time>
      </trkpt>
      <trkpt lat="45.86389" lon="4.70123">
        <ele>193.16175842285</ele>
        <time>2014-06-07T10:25:07Z</time>
      </trkpt>
      <trkpt lat="45.86386" lon="4.70142">
        <ele>193.34329223633</ele>
        <time>2014-06-07T10:25:11Z</time>
      </trkpt>
      <trkpt lat="45.86382" lon="4.70167">
        <ele>193.72360229492</ele>
        <time>2014-06-07T10:25:16Z</time>
      </trkpt>
      <trkpt lat="45.86378" lon="4.70176">
        <ele>194.22578430176</ele>
        <time>2014-06-07T10:25:18Z</time>
      </trkpt>
      <trkpt lat="45.8637" lon="4.7019">
        <ele>195.15187072754</ele>
        <time>2014-06-07T10:25:22Z</time>
      </trkpt>
      <trkpt lat="45.86365" lon="4.70202">
        <ele>195.79162597656</ele>
        <time>2014-06-07T10:25:25Z</time>
      </trkpt>
      <trkpt lat="45.86357" lon="4.70212">
        <ele>196.39416503906</ele>
        <time>2014-06-07T10:25:28Z</time>
      </trkpt>
      <trkpt lat="45.86353" lon="4.70217">
        <ele>196.69114685059</ele>
        <time>2014-06-07T10:25:30Z</time>
      </trkpt>
      <trkpt lat="45.86343" lon="4.70235">
        <ele>197.44926452637</ele>
        <time>2014-06-07T10:25:35Z</time>
      </trkpt>
      <trkpt lat="45.86338" lon="4.70245">
        <ele>197.80363464356</ele>
        <time>2014-06-07T10:25:38Z</time>
      </trkpt>
      <trkpt lat="45.86338" lon="4.70249">
        <ele>197.90946960449</ele>
        <time>2014-06-07T10:25:39Z</time>
      </trkpt>
      <trkpt lat="45.86334" lon="4.70264">
        <ele>197.99111938477</ele>
        <time>2014-06-07T10:25:43Z</time>
      </trkpt>
      <trkpt lat="45.86332" lon="4.70278">
        <ele>197.90521240234</ele>
        <time>2014-06-07T10:25:46Z</time>
      </trkpt>
      <trkpt lat="45.86333" lon="4.70282">
        <ele>197.98321533203</ele>
        <time>2014-06-07T10:25:47Z</time>
      </trkpt>
      <trkpt lat="45.86332" lon="4.703">
        <ele>197.90962219238</ele>
        <time>2014-06-07T10:25:51Z</time>
      </trkpt>
      <trkpt lat="45.86335" lon="4.70311">
        <ele>197.99592590332</ele>
        <time>2014-06-07T10:25:54Z</time>
      </trkpt>
      <trkpt lat="45.86338" lon="4.7032">
        <ele>197.98986816406</ele>
        <time>2014-06-07T10:25:56Z</time>
      </trkpt>
      <trkpt lat="45.86345" lon="4.70327">
        <ele>197.98924255371</ele>
        <time>2014-06-07T10:25:59Z</time>
      </trkpt>
      <trkpt lat="45.86355" lon="4.7034">
        <ele>198</ele>
        <time>2014-06-07T10:26:04Z</time>
      </trkpt>
      <trkpt lat="45.86366" lon="4.7035">
        <ele>198</ele>
        <time>2014-06-07T10:26:08Z</time>
      </trkpt>
      <trkpt lat="45.86374" lon="4.70359">
        <ele>198</ele>
        <time>2014-06-07T10:26:12Z</time>
      </trkpt>
      <trkpt lat="45.86383" lon="4.70371">
        <ele>198</ele>
        <time>2014-06-07T10:26:16Z</time>
      </trkpt>
      <trkpt lat="45.86384" lon="4.70376">
        <ele>198</ele>
        <time>2014-06-07T10:26:17Z</time>
      </trkpt>
      <trkpt lat="45.86388" lon="4.70385">
        <ele>198</ele>
        <time>2014-06-07T10:26:19Z</time>
      </trkpt>
      <trkpt lat="45.8639" lon="4.7039">
        <ele>198</ele>
        <time>2014-06-07T10:26:20Z</time>
      </trkpt>
      <trkpt lat="45.86391" lon="4.70395">
        <ele>198</ele>
        <time>2014-06-07T10:26:21Z</time>
      </trkpt>
      <trkpt lat="45.86397" lon="4.70419">
        <ele>197.96353149414</ele>
        <time>2014-06-07T10:26:26Z</time>
      </trkpt>
      <trkpt lat="45.86397" lon="4.7043">
        <ele>197.79556274414</ele>
        <time>2014-06-07T10:26:28Z</time>
      </trkpt>
      <trkpt lat="45.86395" lon="4.70441">
        <ele>197.63732910156</ele>
        <time>2014-06-07T10:26:30Z</time>
      </trkpt>
      <trkpt lat="45.86389" lon="4.70455">
        <ele>197.38639831543</ele>
        <time>2014-06-07T10:26:34Z</time>
      </trkpt>
      <trkpt lat="45.86381" lon="4.70471">
        <ele>197.07580566406</ele>
        <time>2014-06-07T10:26:38Z</time>
      </trkpt>
      <trkpt lat="45.86374" lon="4.70488">
        <ele>196.70388793945</ele>
        <time>2014-06-07T10:26:42Z</time>
      </trkpt>
      <trkpt lat="45.86375" lon="4.70513">
        <ele>196.58135986328</ele>
        <time>2014-06-07T10:26:47Z</time>
      </trkpt>
      <trkpt lat="45.86379" lon="4.70538">
        <ele>196.66731262207</ele>
        <time>2014-06-07T10:26:52Z</time>
      </trkpt>
      <trkpt lat="45.86384" lon="4.70557">
        <ele>196.58578491211</ele>
        <time>2014-06-07T10:26:56Z</time>
      </trkpt>
      <trkpt lat="45.86391" lon="4.70567">
        <ele>196.30706787109</ele>
        <time>2014-06-07T10:27:00Z</time>
      </trkpt>
      <trkpt lat="45.86407" lon="4.70568">
        <ele>195.73225402832</ele>
        <time>2014-06-07T10:27:04Z</time>
      </trkpt>
      <trkpt lat="45.86412" lon="4.70564">
        <ele>195.60173034668</ele>
        <time>2014-06-07T10:27:06Z</time>
      </trkpt>
      <trkpt lat="45.86418" lon="4.70562">
        <ele>195.50035095215</ele>
        <time>2014-06-07T10:27:08Z</time>
      </trkpt>
      <trkpt lat="45.8643" lon="4.70558">
        <ele>195.49621582031</ele>
        <time>2014-06-07T10:27:12Z</time>
      </trkpt>
      <trkpt lat="45.86433" lon="4.70558">
        <ele>195.4764251709</ele>
        <time>2014-06-07T10:27:13Z</time>
      </trkpt>
      <trkpt lat="45.86446" lon="4.70556">
        <ele>195.41389465332</ele>
        <time>2014-06-07T10:27:17Z</time>
      </trkpt>
      <trkpt lat="45.86462" lon="4.70552">
        <ele>195.40460205078</ele>
        <time>2014-06-07T10:27:22Z</time>
      </trkpt>
      <trkpt lat="45.86466" lon="4.7055">
        <ele>195.4337310791</ele>
        <time>2014-06-07T10:27:24Z</time>
      </trkpt>
      <trkpt lat="45.86468" lon="4.70551">
        <ele>195.38999938965</ele>
        <time>2014-06-07T10:27:25Z</time>
      </trkpt>
      <trkpt lat="45.86477" lon="4.70552">
        <ele>195.29295349121</ele>
        <time>2014-06-07T10:27:28Z</time>
      </trkpt>
      <trkpt lat="45.86483" lon="4.70554">
        <ele>195.19853210449</ele>
        <time>2014-06-07T10:27:29Z</time>
      </trkpt>
      <trkpt lat="45.86496" lon="4.70556">
        <ele>195.0205078125</ele>
        <time>2014-06-07T10:27:32Z</time>
      </trkpt>
      <trkpt lat="45.86501" lon="4.70559">
        <ele>194.90444946289</ele>
        <time>2014-06-07T10:27:34Z</time>
      </trkpt>
      <trkpt lat="45.86504" lon="4.70561">
        <ele>194.88023376465</ele>
        <time>2014-06-07T10:27:35Z</time>
      </trkpt>
      <trkpt lat="45.86508" lon="4.70563">
        <ele>194.88859558106</ele>
        <time>2014-06-07T10:27:36Z</time>
      </trkpt>
      <trkpt lat="45.86517" lon="4.70571">
        <ele>194.83743286133</ele>
        <time>2014-06-07T10:27:39Z</time>
      </trkpt>
      <trkpt lat="45.86523" lon="4.70576">
        <ele>194.80641174316</ele>
        <time>2014-06-07T10:27:41Z</time>
      </trkpt>
      <trkpt lat="45.86532" lon="4.7059">
        <ele>194.90924072266</ele>
        <time>2014-06-07T10:27:45Z</time>
      </trkpt>
      <trkpt lat="45.86543" lon="4.70612">
        <ele>195.74920654297</ele>
        <time>2014-06-07T10:27:50Z</time>
      </trkpt>
      <trkpt lat="45.86551" lon="4.70623">
        <ele>196.26484680176</ele>
        <time>2014-06-07T10:27:53Z</time>
      </trkpt>
      <trkpt lat="45.86556" lon="4.70627">
        <ele>196.5791015625</ele>
        <time>2014-06-07T10:27:55Z</time>
      </trkpt>
      <trkpt lat="45.86576" lon="4.7063">
        <ele>197.41387939453</ele>
        <time>2014-06-07T10:28:01Z</time>
      </trkpt>
      <trkpt lat="45.86592" lon="4.70628">
        <ele>197.71405029297</ele>
        <time>2014-06-07T10:28:06Z</time>
      </trkpt>
      <trkpt lat="45.86609" lon="4.70631">
        <ele>198.03106689453</ele>
        <time>2014-06-07T10:28:11Z</time>
      </trkpt>
      <trkpt lat="45.86619" lon="4.70638">
        <ele>198.38925170898</ele>
        <time>2014-06-07T10:28:15Z</time>
      </trkpt>
      <trkpt lat="45.86633" lon="4.7064">
        <ele>198.62615966797</ele>
        <time>2014-06-07T10:28:20Z</time>
      </trkpt>
      <trkpt lat="45.86645" lon="4.7063">
        <ele>198.40069580078</ele>
        <time>2014-06-07T10:28:24Z</time>
      </trkpt>
      <trkpt lat="45.86662" lon="4.70614">
        <ele>198.04879760742</ele>
        <time>2014-06-07T10:28:30Z</time>
      </trkpt>
      <trkpt lat="45.86675" lon="4.70615">
        <ele>198.29867553711</ele>
        <time>2014-06-07T10:28:35Z</time>
      </trkpt>
      <trkpt lat="45.86686" lon="4.70632">
        <ele>198.86128234863</ele>
        <time>2014-06-07T10:28:40Z</time>
      </trkpt>
      <trkpt lat="45.86687" lon="4.70636">
        <ele>198.93797302246</ele>
        <time>2014-06-07T10:28:41Z</time>
      </trkpt>
      <trkpt lat="45.86698" lon="4.70657">
        <ele>199.16979980469</ele>
        <time>2014-06-07T10:28:47Z</time>
      </trkpt>
      <trkpt lat="45.86698" lon="4.70661">
        <ele>199.20330810547</ele>
        <time>2014-06-07T10:28:48Z</time>
      </trkpt>
      <trkpt lat="45.86703" lon="4.70674">
        <ele>198.81634521484</ele>
        <time>2014-06-07T10:28:51Z</time>
      </trkpt>
      <trkpt lat="45.86709" lon="4.70686">
        <ele>198.18302917481</ele>
        <time>2014-06-07T10:28:54Z</time>
      </trkpt>
      <trkpt lat="45.86713" lon="4.70693">
        <ele>197.82591247559</ele>
        <time>2014-06-07T10:28:56Z</time>
      </trkpt>
      <trkpt lat="45.86716" lon="4.70696">
        <ele>197.61033630371</ele>
        <time>2014-06-07T10:28:57Z</time>
      </trkpt>
      <trkpt lat="45.86721" lon="4.70699">
        <ele>197.40699768066</ele>
        <time>2014-06-07T10:28:58Z</time>
      </trkpt>
      <trkpt lat="45.86729" lon="4.70702">
        <ele>197.12704467773</ele>
        <time>2014-06-07T10:29:01Z</time>
      </trkpt>
      <trkpt lat="45.86735" lon="4.70706">
        <ele>196.85494995117</ele>
        <time>2014-06-07T10:29:04Z</time>
      </trkpt>
      <trkpt lat="45.86737" lon="4.70708">
        <ele>196.76400756836</ele>
        <time>2014-06-07T10:29:05Z</time>
      </trkpt>
      <trkpt lat="45.86743" lon="4.70714">
        <ele>196.40299987793</ele>
        <time>2014-06-07T10:29:09Z</time>
      </trkpt>
      <trkpt lat="45.86749" lon="4.70721">
        <ele>196.07141113281</ele>
        <time>2014-06-07T10:29:12Z</time>
      </trkpt>
      <trkpt lat="45.86749" lon="4.70724">
        <ele>195.96005249023</ele>
        <time>2014-06-07T10:29:13Z</time>
      </trkpt>
      <trkpt lat="45.86758" lon="4.7073">
        <ele>196.11265563965</ele>
        <time>2014-06-07T10:29:17Z</time>
      </trkpt>
      <trkpt lat="45.8676" lon="4.70742">
        <ele>195.77238464356</ele>
        <time>2014-06-07T10:29:20Z</time>
      </trkpt>
      <trkpt lat="45.86758" lon="4.7075">
        <ele>195.39833068848</ele>
        <time>2014-06-07T10:29:22Z</time>
      </trkpt>
      <trkpt lat="45.8676" lon="4.7076">
        <ele>195.23382568359</ele>
        <time>2014-06-07T10:29:24Z</time>
      </trkpt>
      <trkpt lat="45.86762" lon="4.70771">
        <ele>195.04447937012</ele>
        <time>2014-06-07T10:29:26Z</time>
      </trkpt>
      <trkpt lat="45.86764" lon="4.70776">
        <ele>195.01106262207</ele>
        <time>2014-06-07T10:29:27Z</time>
      </trkpt>
      <trkpt lat="45.86767" lon="4.70786">
        <ele>194.86857604981</ele>
        <time>2014-06-07T10:29:29Z</time>
      </trkpt>
      <trkpt lat="45.86773" lon="4.70795">
        <ele>194.87907409668</ele>
        <time>2014-06-07T10:29:31Z</time>
      </trkpt>
      <trkpt lat="45.86779" lon="4.70802">
        <ele>194.94261169434</ele>
        <time>2014-06-07T10:29:33Z</time>
      </trkpt>
      <trkpt lat="45.86787" lon="4.70816">
        <ele>194.85583496094</ele>
        <time>2014-06-07T10:29:37Z</time>
      </trkpt>
      <trkpt lat="45.86802" lon="4.70828">
        <ele>195.04438781738</ele>
        <time>2014-06-07T10:29:42Z</time>
      </trkpt>
      <trkpt lat="45.86816" lon="4.70849">
        <ele>194.74670410156</ele>
        <time>2014-06-07T10:29:47Z</time>
      </trkpt>
      <trkpt lat="45.86818" lon="4.70854">
        <ele>194.59266662598</ele>
        <time>2014-06-07T10:29:48Z</time>
      </trkpt>
      <trkpt lat="45.86828" lon="4.70877">
        <ele>193.82836914062</ele>
        <time>2014-06-07T10:29:53Z</time>
      </trkpt>
      <trkpt lat="45.8683" lon="4.7088">
        <ele>193.70349121094</ele>
        <time>2014-06-07T10:29:54Z</time>
      </trkpt>
      <trkpt lat="45.86842" lon="4.70905">
        <ele>192.62298583984</ele>
        <time>2014-06-07T10:30:00Z</time>
      </trkpt>
      <trkpt lat="45.86851" lon="4.70926">
        <ele>191.98603820801</ele>
        <time>2014-06-07T10:30:05Z</time>
      </trkpt>
      <trkpt lat="45.86855" lon="4.70938">
        <ele>191.74113464356</ele>
        <time>2014-06-07T10:30:08Z</time>
      </trkpt>
      <trkpt lat="45.86864" lon="4.70965">
        <ele>191.21699523926</ele>
        <time>2014-06-07T10:30:14Z</time>
      </trkpt>
      <trkpt lat="45.8687" lon="4.70989">
        <ele>190.70429992676</ele>
        <time>2014-06-07T10:30:19Z</time>
      </trkpt>
      <trkpt lat="45.86873" lon="4.71014">
        <ele>190.47436523438</ele>
        <time>2014-06-07T10:30:24Z</time>
      </trkpt>
      <trkpt lat="45.86873" lon="4.71019">
        <ele>190.47894287109</ele>
        <time>2014-06-07T10:30:25Z</time>
      </trkpt>
      <trkpt lat="45.86879" lon="4.71041">
        <ele>190.54302978516</ele>
        <time>2014-06-07T10:30:30Z</time>
      </trkpt>
      <trkpt lat="45.86885" lon="4.71053">
        <ele>190.62542724609</ele>
        <time>2014-06-07T10:30:34Z</time>
      </trkpt>
      <trkpt lat="45.86891" lon="4.71057">
        <ele>190.69409179688</ele>
        <time>2014-06-07T10:30:36Z</time>
      </trkpt>
      <trkpt lat="45.869" lon="4.7106">
        <ele>190.79937744141</ele>
        <time>2014-06-07T10:30:39Z</time>
      </trkpt>
      <trkpt lat="45.86917" lon="4.71062">
        <ele>191.00317382812</ele>
        <time>2014-06-07T10:30:44Z</time>
      </trkpt>
      <trkpt lat="45.86934" lon="4.71065">
        <ele>191.84545898438</ele>
        <time>2014-06-07T10:30:49Z</time>
      </trkpt>
      <trkpt lat="45.86954" lon="4.71066">
        <ele>192.79760742188</ele>
        <time>2014-06-07T10:30:55Z</time>
      </trkpt>
      <trkpt lat="45.8697" lon="4.71064">
        <ele>193.56665039062</ele>
        <time>2014-06-07T10:31:00Z</time>
      </trkpt>
      <trkpt lat="45.86974" lon="4.71064">
        <ele>193.74975585938</ele>
        <time>2014-06-07T10:31:03Z</time>
      </trkpt>
      <trkpt lat="45.8699" lon="4.71065">
        <ele>194.537109375</ele>
        <time>2014-06-07T10:31:08Z</time>
      </trkpt>
      <trkpt lat="45.87008" lon="4.7107">
        <ele>195.01533508301</ele>
        <time>2014-06-07T10:31:14Z</time>
      </trkpt>
      <trkpt lat="45.8701" lon="4.71073">
        <ele>195.01506042481</ele>
        <time>2014-06-07T10:31:15Z</time>
      </trkpt>
      <trkpt lat="45.87016" lon="4.71074">
        <ele>195.02201843262</ele>
        <time>2014-06-07T10:31:17Z</time>
      </trkpt>
      <trkpt lat="45.87034" lon="4.71073">
        <ele>195.04962158203</ele>
        <time>2014-06-07T10:31:22Z</time>
      </trkpt>
      <trkpt lat="45.87037" lon="4.71073">
        <ele>195.05461120606</ele>
        <time>2014-06-07T10:31:23Z</time>
      </trkpt>
      <trkpt lat="45.87055" lon="4.71073">
        <ele>195.08474731445</ele>
        <time>2014-06-07T10:31:28Z</time>
      </trkpt>
      <trkpt lat="45.87062" lon="4.71071">
        <ele>195.11430358887</ele>
        <time>2014-06-07T10:31:30Z</time>
      </trkpt>
      <trkpt lat="45.87066" lon="4.7107">
        <ele>195.12828063965</ele>
        <time>2014-06-07T10:31:31Z</time>
      </trkpt>
      <trkpt lat="45.87077" lon="4.71067">
        <ele>195.17483520508</ele>
        <time>2014-06-07T10:31:34Z</time>
      </trkpt>
      <trkpt lat="45.87094" lon="4.71062">
        <ele>195.05313110352</ele>
        <time>2014-06-07T10:31:39Z</time>
      </trkpt>
      <trkpt lat="45.87111" lon="4.71057">
        <ele>194.8703918457</ele>
        <time>2014-06-07T10:31:44Z</time>
      </trkpt>
      <trkpt lat="45.87131" lon="4.71053">
        <ele>194.62896728516</ele>
        <time>2014-06-07T10:31:50Z</time>
      </trkpt>
      <trkpt lat="45.87148" lon="4.71053">
        <ele>194.3731842041</ele>
        <time>2014-06-07T10:31:55Z</time>
      </trkpt>
      <trkpt lat="45.87167" lon="4.71049">
        <ele>194.24789428711</ele>
        <time>2014-06-07T10:32:00Z</time>
      </trkpt>
      <trkpt lat="45.87175" lon="4.71047">
        <ele>194.61166381836</ele>
        <time>2014-06-07T10:32:02Z</time>
      </trkpt>
      <trkpt lat="45.87185" lon="4.71042">
        <ele>195.16557312012</ele>
        <time>2014-06-07T10:32:05Z</time>
      </trkpt>
      <trkpt lat="45.87196" lon="4.71042">
        <ele>195.55516052246</ele>
        <time>2014-06-07T10:32:08Z</time>
      </trkpt>
      <trkpt lat="45.87199" lon="4.71048">
        <ele>195.48968505859</ele>
        <time>2014-06-07T10:32:09Z</time>
      </trkpt>
      <trkpt lat="45.87198" lon="4.71067">
        <ele>194.94053649902</ele>
        <time>2014-06-07T10:32:12Z</time>
      </trkpt>
      <trkpt lat="45.872" lon="4.71098">
        <ele>194.83943176269</ele>
        <time>2014-06-07T10:32:17Z</time>
      </trkpt>
      <trkpt lat="45.87201" lon="4.71111">
        <ele>195.09580993652</ele>
        <time>2014-06-07T10:32:19Z</time>
      </trkpt>
      <trkpt lat="45.87202" lon="4.71124">
        <ele>195.40100097656</ele>
        <time>2014-06-07T10:32:21Z</time>
      </trkpt>
    </trkseg>
  </trk>
</gpx>